GFSGL_250_spd_000.txt.gz
Wind_Speed
40 38 37 38 41 43 47 47 47 48 42 42 40 45 43 48 50 52 49 50 54 58 58 56 55 58 65 58 61 60 64 63 54 56 60 71 76 75 82 83 62 62 46
43 40 40 41 44 47 48 50 47 44 45 44 46 45 48 51 49 49 56 56 57 61 58 57 64 69 63 62 64 60 63 59 59 56 62 77 81 85 87 78 78 77 51
46 44 44 47 49 50 51 51 50 49 44 43 47 56 60 62 55 56 61 66 65 65 64 66 67 66 65 63 64 64 62 57 63 62 70 76 88 88 97 92 94 72 49
50 49 49 52 54 53 53 44 45 50 51 51 53 52 56 63 65 68 68 66 67 68 66 67 66 68 68 69 70 60 64 67 67 68 72 80 87 94 94 96 94 79 50
54 54 56 56 57 56 49 40 45 48 50 53 57 59 58 63 67 71 67 65 68 74 66 68 69 73 71 65 72 72 68 68 70 73 77 87 95 97 96 103 96 69 55
59 61 61 61 57 53 52 46 47 51 53 59 56 59 60 63 68 72 71 72 75 77 77 76 73 74 68 69 75 70 71 76 73 80 90 90 99 100 99 88 74 54 48
65 66 64 61 58 54 53 51 52 56 59 62 67 62 64 69 71 71 77 79 78 76 75 75 73 63 69 68 67 72 75 78 84 88 87 89 96 101 92 78 67 54 44
70 69 67 65 59 55 52 54 57 61 65 69 70 68 68 68 69 71 72 75 78 79 73 70 72 74 73 70 70 77 80 82 83 88 94 94 95 91 76 69 64 54 45
72 70 68 65 62 59 59 60 62 68 69 69 71 73 72 65 69 73 75 75 75 76 74 66 64 67 68 75 77 78 82 86 89 93 98 91 79 76 66 66 61 50 44
74 72 67 64 63 64 63 66 69 71 71 70 72 67 67 71 73 76 73 66 65 69 71 71 72 73 75 78 79 80 86 88 88 86 77 75 76 75 61 57 52 48 40
72 70 69 66 63 65 70 72 74 74 69 67 68 68 69 70 72 74 72 70 71 71 73 72 73 74 71 76 80 84 84 82 76 77 79 80 76 63 53 49 47 44 39
70 71 71 70 70 72 74 74 74 72 69 68 70 70 71 71 67 69 73 77 79 80 77 71 71 74 77 76 78 78 73 75 78 81 82 78 66 57 49 43 42 39 35
69 70 71 72 74 76 76 75 74 72 72 73 74 67 67 69 75 78 76 76 75 74 75 76 77 77 78 78 75 76 81 83 86 84 73 64 60 53 45 40 35 35 32
71 72 72 74 75 75 73 74 74 72 74 72 68 70 73 77 77 77 79 82 80 78 78 77 77 76 78 78 79 84 86 88 86 69 61 53 48 43 37 33 30 32 31
73 75 76 75 73 71 73 72 71 73 76 77 77 75 77 79 82 84 86 88 85 80 78 76 77 80 81 82 86 88 88 82 67 60 52 47 44 36 33 30 29 31 30
76 77 76 72 75 72 72 73 76 80 80 79 78 79 79 83 86 88 94 91 80 77 75 75 79 83 87 89 91 87 75 69 61 54 45 41 38 33 28 27 29 30 29
75 74 73 71 72 74 76 80 84 82 82 82 84 84 87 92 92 89 79 77 77 76 79 84 87 90 92 88 80 68 64 60 56 48 43 39 34 27 24 26 29 31 29
70 70 68 72 74 78 82 82 80 81 81 83 84 86 89 87 82 78 77 77 82 86 88 90 91 91 82 70 65 63 57 53 48 42 39 35 31 28 25 26 30 32 28
71 72 73 74 79 83 85 85 83 82 84 84 87 87 82 79 79 78 83 86 90 92 93 91 84 68 65 61 59 56 52 48 43 39 35 33 29 26 25 27 30 31 28
74 76 76 81 84 86 86 87 86 85 85 82 78 77 81 83 83 86 91 94 94 89 81 68 64 60 57 54 52 48 44 42 40 36 33 30 27 25 26 28 31 31 28
77 81 83 82 85 86 85 82 82 81 80 81 83 82 85 88 92 94 93 87 78 70 66 61 55 51 49 47 44 40 37 35 33 30 28 27 26 25 28 30 33 33 31
78 80 83 84 82 83 82 82 81 81 84 85 85 89 92 95 92 85 77 71 63 59 55 50 49 46 45 43 39 36 33 32 30 28 25 23 24 23 27 31 34 34 31
79 81 78 79 80 79 77 79 83 86 87 90 91 94 94 84 75 71 64 60 57 53 51 47 45 43 42 41 39 36 32 29 26 24 21 20 21 22 24 31 35 36 34
78 77 77 76 76 78 80 83 86 89 92 93 96 89 77 73 68 60 57 53 50 46 44 43 42 42 40 37 35 33 31 28 25 22 20 18 18 20 22 28 33 36 38
77 77 77 78 81 83 85 88 90 92 93 93 80 74 67 62 58 52 47 47 44 42 39 40 40 39 37 36 33 31 29 26 24 22 19 17 16 17 21 25 31 36 40
77 79 81 83 85 88 90 91 92 92 85 75 67 60 52 47 46 45 44 43 40 38 38 38 38 37 35 34 32 29 27 25 23 22 21 18 16 17 18 22 30 34 42

GFSGL_250_spd_003.txt.gz
Wind_Speed
38 37 37 35 33 36 38 39 44 49 48 48 44 42 41 42 44 46 49 50 53 55 56 58 57 55 49 53 53 49 47 48 51 54 57 61 59 59 61 65 63 64 72
41 41 41 37 37 39 40 42 48 52 52 50 47 46 49 49 49 51 52 53 55 56 61 65 62 61 55 55 48 48 50 53 48 57 61 64 62 62 62 67 68 74 80
45 45 45 43 42 43 43 46 50 55 55 53 45 48 50 53 51 54 59 62 60 61 64 66 62 52 56 55 49 50 51 54 53 54 56 57 59 62 64 69 72 81 76
50 50 48 48 47 47 50 50 53 53 58 54 53 53 54 55 55 58 62 61 62 65 66 69 71 74 68 52 50 54 57 58 54 54 55 56 63 69 71 74 75 76 82
55 53 52 54 52 53 54 56 54 56 58 58 57 56 58 61 63 68 70 68 67 66 69 73 73 67 57 56 57 56 57 53 54 51 57 63 69 72 75 77 81 87 87
56 54 55 59 58 56 59 60 58 57 58 59 57 60 61 62 70 68 71 69 69 71 70 69 71 69 68 68 62 59 60 64 62 68 70 72 71 73 77 85 88 89 77
58 58 61 63 63 63 62 61 59 59 56 56 58 60 63 66 71 72 72 69 69 70 72 72 73 73 67 66 67 68 68 62 60 67 73 74 71 79 85 90 86 79 78
65 65 67 66 66 67 66 64 63 61 60 59 58 61 64 70 70 71 70 67 69 70 71 74 75 70 65 69 69 68 65 68 68 72 75 76 80 81 82 77 76 77 81
70 71 71 71 70 71 70 68 67 66 63 60 63 63 68 70 71 70 71 71 72 75 75 77 74 72 78 76 72 72 66 69 69 71 75 79 79 76 76 75 77 80 82
74 74 74 74 74 73 72 71 71 68 66 68 69 69 71 70 72 73 70 74 74 72 77 75 75 82 75 72 73 71 75 75 74 75 74 74 78 82 83 82 81 78 68
77 77 77 75 75 75 73 73 72 71 71 71 73 74 73 73 73 71 71 74 76 76 79 83 80 79 75 76 74 72 71 72 69 70 74 76 78 78 76 75 69 64 57
81 79 78 77 75 76 74 73 73 74 76 75 74 76 76 74 73 72 75 77 80 84 89 87 81 85 81 74 70 67 64 65 68 73 76 77 78 77 73 60 56 52 49
82 82 81 78 76 76 76 75 74 77 77 76 78 80 78 77 75 77 75 85 89 88 88 85 84 81 73 67 68 70 73 75 76 77 78 78 75 64 56 50 47 45 45
83 83 81 77 75 73 76 77 78 79 76 78 80 82 78 77 76 79 87 92 91 91 87 86 82 75 71 69 76 78 80 82 82 80 76 70 59 53 48 44 42 38 37
80 80 78 77 76 79 79 79 80 80 75 81 81 80 80 80 84 89 93 93 88 86 84 77 74 74 78 80 82 84 84 82 79 73 61 54 53 47 41 41 38 35 33
79 79 80 79 81 81 80 78 78 77 80 82 84 84 84 85 88 91 90 86 84 81 79 77 78 80 83 85 86 83 79 76 69 61 58 51 46 43 40 36 34 30 30
79 80 80 83 82 83 83 85 84 82 82 84 83 84 86 88 89 87 84 83 79 81 81 82 82 86 87 85 79 73 69 63 59 54 53 48 43 40 36 32 28 26 26
81 81 80 79 84 82 80 80 78 78 81 79 83 86 90 88 86 85 83 79 81 80 84 84 89 86 80 70 66 64 60 53 50 50 48 45 40 38 34 30 28 26 27
74 72 73 74 72 74 75 78 81 82 80 79 87 87 88 86 86 84 81 82 82 85 88 91 81 72 67 64 60 55 51 47 47 45 43 40 36 34 31 29 27 25 28
67 69 72 74 73 76 77 78 79 80 82 81 86 83 86 83 82 82 83 85 86 91 89 75 69 65 61 57 53 51 49 44 42 42 41 36 31 28 26 25 25 25 28
70 72 68 67 74 79 78 79 79 81 85 85 79 80 85 84 84 84 85 86 90 86 75 67 64 62 59 54 49 45 43 41 40 40 39 36 31 27 23 22 23 24 28
65 69 71 73 72 76 80 81 83 85 84 84 83 83 83 85 87 86 85 89 82 71 64 63 60 54 51 47 43 40 39 38 37 36 33 32 29 26 24 22 21 24 27
68 70 70 75 80 79 80 83 84 85 86 84 83 85 89 88 87 88 89 79 70 62 58 54 50 47 45 43 40 37 35 33 32 31 29 28 26 24 22 20 21 23 26
82 80 79 81 81 80 79 83 85 84 84 87 90 93 93 92 88 88 75 66 60 54 50 49 45 42 39 38 35 33 31 31 29 28 26 24 23 21 19 19 20 23 26
86 87 83 79 80 82 81 83 84 86 90 93 94 95 91 86 83 69 61 55 53 50 45 41 39 39 37 35 34 33 31 28 27 26 25 23 21 20 17 16 19 22 26
83 84 86 86 89 88 89 89 92 91 94 95 94 87 85 77 64 56 53 52 46 42 41 39 38 36 35 33 33 32 32 30 27 25 24 22 20 20 19 18 17 22 25

GFSGL_250_spd_006.txt.gz
Wind_Speed
34 35 34 34 36 35 35 36 36 38 41 44 47 51 49 50 47 46 47 51 53 51 53 58 58 57 54 55 57 58 54 51 59 44 46 48 50 50 52 53 63 66 63
37 38 39 40 40 39 40 41 40 42 45 48 52 52 53 53 53 52 49 49 52 56 60 62 61 56 57 58 60 64 58 57 49 50 51 55 56 59 54 57 65 62 62
40 41 43 44 45 44 44 46 46 46 47 51 55 56 55 55 54 54 55 56 58 60 62 63 63 59 58 58 58 57 56 56 53 56 58 61 64 62 60 60 62 63 66
45 47 47 48 49 50 50 50 50 51 52 55 60 62 60 57 56 56 56 58 59 63 64 65 64 65 65 66 62 59 56 58 59 61 64 66 68 69 64 66 63 67 72
51 52 51 52 54 55 55 54 54 54 55 58 61 65 63 60 58 57 58 62 64 66 68 66 67 67 68 64 62 58 65 63 67 63 65 67 67 69 68 67 70 73 76
56 58 55 56 58 59 59 58 57 56 58 60 64 64 63 63 61 59 61 63 65 68 68 70 70 67 69 68 64 64 70 68 67 79 66 63 65 65 64 67 70 74 79
61 62 61 62 63 63 62 59 59 60 61 62 64 63 64 66 65 64 60 65 68 68 67 72 71 66 69 67 68 73 73 79 83 71 68 66 64 66 66 71 72 80 85
65 66 65 66 68 66 64 62 62 64 65 65 66 65 66 68 69 67 68 70 68 69 73 72 70 70 70 69 70 81 87 85 79 78 70 64 64 67 70 72 76 76 80
72 68 68 68 69 69 68 67 67 70 69 69 69 68 69 70 70 71 74 72 71 77 76 74 71 73 73 73 85 89 87 83 78 74 67 63 65 67 67 66 71 75 80
76 73 71 73 72 72 71 72 73 74 75 74 73 73 71 70 74 77 76 74 77 77 77 78 78 77 80 87 87 85 83 79 73 65 62 63 67 70 73 76 80 82 85
76 77 77 78 78 76 77 79 78 78 78 78 76 76 75 76 76 78 76 76 79 81 80 81 83 83 90 92 89 81 77 69 67 67 71 72 74 75 77 80 84 86 85
79 81 81 82 83 81 84 84 83 79 79 78 77 77 77 77 76 77 72 77 83 82 81 80 83 90 93 90 85 81 75 73 74 75 76 78 78 80 82 80 76 72 66
80 84 86 87 86 85 84 86 85 81 79 76 75 77 77 76 77 76 82 86 82 81 81 85 86 91 87 84 81 79 79 81 83 83 81 81 81 78 74 70 63 61 59
84 85 88 89 87 85 85 84 82 80 76 75 76 77 75 76 81 83 82 83 84 82 86 88 93 89 86 81 81 82 83 87 86 82 81 80 75 69 65 59 58 55 52
84 86 87 85 86 83 84 81 79 77 78 77 77 78 77 74 78 84 84 82 82 85 88 90 88 84 80 81 81 83 86 87 84 80 75 71 67 64 58 52 53 50 48
83 84 84 83 82 80 77 74 79 78 75 78 77 79 78 80 80 78 79 80 82 88 88 83 82 82 83 84 83 85 87 79 78 76 71 64 58 53 50 49 47 44 43
84 84 82 80 77 77 78 77 80 76 75 74 76 77 77 78 76 76 77 80 85 86 84 83 83 85 88 86 88 87 79 75 70 65 60 55 52 48 45 43 41 39 38
78 77 73 75 74 75 78 77 74 71 69 77 76 78 80 77 76 78 84 84 82 84 83 84 86 89 86 88 87 78 72 67 61 58 55 51 47 42 40 39 38 36 35
71 69 71 68 68 69 72 74 72 66 73 72 76 80 80 76 79 82 82 83 84 86 86 90 94 90 85 81 73 68 63 57 52 50 48 43 40 39 36 35 35 33 31
67 66 67 67 69 73 74 76 73 73 69 72 71 81 81 81 80 82 84 89 90 92 94 94 88 85 78 70 62 56 53 51 49 46 44 41 37 36 34 31 30 28 27
60 62 67 67 71 75 81 86 79 69 69 73 77 87 85 80 82 84 90 91 95 97 96 91 83 77 67 60 54 51 50 48 45 42 39 36 33 33 31 29 25 22 23
69 80 80 79 76 77 74 68 73 77 80 79 81 85 87 86 89 89 93 93 99 99 88 84 74 64 57 52 49 46 43 43 42 39 36 33 31 31 29 28 24 21 20
59 71 71 64 64 68 72 75 79 79 82 83 88 88 86 90 90 91 92 96 98 85 83 73 61 54 50 46 44 42 41 39 36 34 33 30 28 28 27 26 24 22 18
62 66 68 70 73 75 77 82 88 89 88 85 89 90 96 92 94 96 101 99 89 83 71 60 54 48 43 42 40 37 38 37 35 32 30 29 26 25 24 24 22 21 19
67 71 77 79 81 81 87 91 87 86 88 87 98 101 100 96 102 95 86 84 79 71 60 54 47 44 42 38 38 36 36 36 35 33 30 26 25 24 23 22 21 21 21
76 81 81 82 86 89 89 86 84 86 90 97 104 96 95 91 83 89 82 77 70 59 53 47 43 41 42 39 37 37 36 35 34 33 31 27 24 23 22 21 21 20 20

GFSGL_250_spd_009.txt.gz
Wind_Speed
31 31 32 34 35 32 33 32 31 33 37 38 40 43 45 48 50 50 51 49 45 45 47 48 50 51 51 49 50 49 45 48 44 41 39 40 40 42 46 48 53 57 58
35 35 36 37 36 35 37 38 37 37 40 42 44 45 49 50 52 53 53 51 52 54 53 51 52 56 56 55 54 54 46 50 51 49 48 48 47 46 53 55 53 57 62
40 41 41 42 40 40 41 43 43 43 43 44 45 49 51 53 57 58 55 55 55 55 56 57 58 60 58 59 58 56 54 53 55 48 51 53 55 53 51 59 59 68 68
46 47 47 47 45 45 46 48 48 48 48 48 50 49 50 54 58 62 61 59 61 59 59 61 64 62 60 63 63 61 60 60 59 56 64 66 65 65 62 56 57 53 60
51 53 54 52 50 51 51 53 53 52 52 54 55 55 54 56 58 63 65 64 63 64 64 65 68 63 65 67 66 65 66 66 64 63 70 71 75 73 65 62 61 61 63
56 57 59 58 55 54 57 56 55 53 54 55 57 57 58 59 63 65 65 66 67 64 67 71 68 66 65 69 70 68 67 69 64 73 79 80 75 70 66 63 63 61 60
59 62 63 64 61 59 60 60 58 59 60 60 61 60 61 63 65 67 68 70 68 70 71 72 74 68 69 73 71 73 71 70 71 80 83 82 77 74 64 59 57 57 58
63 67 68 69 69 64 63 63 61 63 66 69 68 60 66 68 70 70 70 70 71 72 75 72 72 72 75 74 75 74 74 79 81 84 81 78 74 70 66 60 61 62 65
67 70 72 72 73 70 68 64 64 63 66 53 48 73 72 72 74 72 74 73 72 75 73 75 74 78 78 74 78 78 77 83 83 84 80 76 71 70 70 70 73 73 74
72 74 75 74 74 74 72 69 67 66 64 73 80 79 75 76 74 78 78 77 76 77 74 75 78 77 79 79 81 81 82 85 85 80 76 74 75 76 78 78 79 79 80
77 74 76 77 76 76 74 72 72 73 74 77 80 81 80 80 81 79 74 76 79 77 77 80 80 77 77 79 80 83 86 86 80 78 78 80 82 82 83 84 83 78 76
82 80 78 80 82 80 74 76 78 77 81 84 84 83 84 82 80 77 79 78 78 81 79 78 79 79 79 78 81 85 85 80 80 82 85 86 86 87 87 83 77 72 70
89 85 85 83 84 83 79 81 82 84 84 84 86 87 85 83 81 79 76 77 81 76 78 78 78 75 78 81 85 83 83 83 87 89 88 87 85 85 81 75 69 64 61
88 89 90 90 87 86 82 86 86 85 86 87 87 83 82 82 78 79 76 76 74 80 77 80 77 78 82 82 83 84 88 91 92 91 87 84 82 76 71 67 62 58 54
89 85 89 91 88 86 87 88 86 86 86 85 85 84 81 79 78 72 73 75 77 79 79 76 78 81 79 82 87 90 94 93 92 88 86 82 75 70 65 61 58 54 51
92 91 89 85 83 85 86 85 85 85 85 82 80 78 77 72 67 64 73 77 79 79 78 79 78 79 81 88 91 96 97 90 88 86 79 71 68 64 57 53 50 47 45
87 85 86 86 85 86 85 84 83 82 81 80 78 77 70 66 66 68 75 76 76 80 82 83 85 88 85 87 93 94 87 82 79 70 64 59 57 55 49 45 44 41 40
75 78 78 78 78 81 83 80 76 71 70 70 69 65 66 72 77 80 77 73 79 83 84 89 96 97 97 97 92 86 81 75 66 60 58 54 50 47 44 41 40 39 39
64 67 68 70 75 74 72 68 67 58 65 69 66 63 70 73 72 73 74 79 81 82 82 89 100 97 95 86 80 80 75 64 57 54 52 51 48 45 41 39 36 36 35
56 57 55 55 55 58 54 52 54 53 59 60 64 70 74 75 69 74 79 84 82 86 89 98 96 96 88 83 77 73 63 56 51 49 48 49 46 44 39 35 33 33 32
38 44 39 51 51 61 65 61 55 61 59 63 70 79 75 70 71 83 84 89 85 89 98 103 97 82 86 77 74 62 53 48 47 46 45 44 45 41 37 33 30 30 29
57 59 45 46 56 63 57 55 53 59 64 69 76 79 75 75 79 86 82 84 89 97 99 96 79 87 82 77 63 55 46 44 43 44 43 42 41 40 36 32 29 29 27
54 54 63 69 67 68 66 63 56 55 57 62 69 70 73 77 85 88 87 84 97 105 99 91 88 86 77 67 55 44 41 40 42 42 42 40 38 36 36 31 28 26 26
47 46 44 44 50 58 58 61 59 64 68 70 72 76 81 86 90 89 88 93 100 103 94 88 84 81 73 59 49 41 38 39 39 40 38 37 36 33 33 32 27 25 24
43 49 52 56 56 55 60 63 70 72 71 75 79 87 84 95 98 89 93 98 104 100 93 86 87 77 66 51 43 40 37 38 38 37 37 36 35 34 31 31 27 24 23
53 56 58 62 61 64 66 72 75 79 83 84 85 86 90 90 90 92 97 102 101 97 90 84 82 73 61 49 41 39 37 38 37 37 36 35 34 33 31 29 27 24 22

GFSGL_250_spd_012.txt.gz
Wind_Speed
30 30 32 33 31 29 29 29 30 30 33 35 37 38 40 42 44 48 50 47 49 48 49 47 47 49 51 52 50 44 45 46 49 51 45 43 41 37 38 46 46 46 45
34 35 37 35 34 34 33 34 36 35 37 39 40 41 44 47 48 48 51 53 53 54 52 50 53 53 53 55 52 49 47 49 53 50 49 50 47 43 42 46 50 52 56
42 40 38 38 39 38 37 37 40 42 41 42 42 45 46 49 51 50 52 55 57 57 58 56 58 59 61 61 58 53 47 53 58 57 56 53 54 50 49 53 56 59 58
45 44 43 42 42 43 42 42 44 46 45 45 43 47 50 53 54 55 55 58 60 63 61 62 65 66 66 67 64 61 57 58 60 61 62 61 58 56 56 58 64 61 57
51 50 48 47 47 47 47 47 49 50 47 48 49 52 54 59 62 60 49 60 66 71 63 71 71 69 71 72 69 64 66 65 65 68 65 67 63 64 62 64 61 60 61
54 57 54 53 53 52 51 50 52 54 50 51 52 53 58 64 58 38 53 63 65 70 69 74 73 73 73 77 72 73 73 71 71 70 71 70 69 70 70 65 60 58 57
58 61 62 60 59 57 56 55 56 56 55 55 54 52 58 57 43 38 63 77 74 68 78 76 76 74 74 78 76 76 72 74 73 73 74 74 72 73 69 65 63 61 63
64 64 66 67 67 63 61 59 60 60 59 58 56 51 52 35 38 49 77 81 76 81 80 77 78 80 79 79 75 75 77 77 76 73 74 75 73 69 67 66 68 70 72
66 68 71 73 73 71 66 65 64 64 62 62 60 60 45 46 63 76 85 82 83 83 80 81 81 82 78 77 74 78 79 78 74 77 79 77 74 73 75 78 80 77 76
73 75 77 75 72 72 72 72 72 69 65 68 67 66 64 60 69 75 78 83 84 81 83 83 81 81 81 75 77 77 77 76 80 81 79 79 81 81 85 89 85 80 77
79 83 82 78 76 76 77 78 79 74 74 73 72 77 75 75 76 76 80 83 82 80 82 80 83 83 79 79 76 77 80 80 83 83 81 85 86 88 91 88 81 76 74
84 87 84 84 84 82 83 82 82 80 83 79 80 83 84 78 80 83 83 82 81 82 81 81 80 75 77 79 78 81 81 87 91 89 88 91 90 89 86 81 77 70 63
88 90 90 89 89 89 87 86 84 86 89 88 86 85 78 75 85 86 83 83 83 81 77 76 70 74 79 79 81 85 87 90 96 95 93 90 86 84 82 77 67 61 58
74 85 91 92 92 91 86 84 86 90 89 90 83 75 76 84 84 84 85 82 79 76 74 73 73 74 75 81 85 87 92 98 102 96 91 87 81 77 70 64 60 56 54
48 66 78 80 82 84 82 76 73 62 60 63 68 71 74 80 83 84 79 78 77 73 68 71 71 75 79 81 87 91 99 104 94 86 82 78 77 71 65 59 55 51 48
54 55 62 60 62 62 62 43 62 70 78 75 72 83 90 87 78 77 77 66 66 66 66 72 71 76 84 87 88 92 103 99 85 82 80 77 71 66 62 57 53 50 45
64 60 55 48 52 50 53 52 82 87 86 83 90 86 81 78 78 77 76 75 68 65 71 73 74 83 82 86 87 96 108 93 85 80 77 70 65 61 58 54 48 45 41
56 43 50 51 59 69 61 69 76 81 86 90 84 80 79 76 73 70 64 67 64 66 74 74 80 82 86 89 92 99 108 87 79 75 70 65 58 55 53 51 46 44 40
44 36 41 51 56 64 67 67 74 81 78 72 62 62 66 54 59 59 63 64 66 72 76 76 78 87 90 92 96 101 93 84 79 72 64 57 54 50 50 49 45 42 40
34 38 49 50 46 49 53 57 57 53 46 48 57 58 58 62 65 65 65 67 69 69 77 77 85 90 94 91 96 101 97 83 76 69 60 55 52 51 49 48 46 41 37
29 31 29 31 32 33 41 40 39 34 39 55 60 64 70 69 68 61 64 65 68 73 75 78 86 91 93 98 103 101 89 79 73 63 56 52 51 50 49 47 45 40 36
43 42 38 37 39 41 47 39 41 47 45 55 68 73 76 67 65 67 64 69 74 77 80 84 88 92 95 96 100 95 91 76 70 59 52 50 49 48 47 45 43 40 34
34 38 37 44 40 43 50 60 52 54 56 64 70 75 75 73 69 70 66 74 79 83 85 86 88 89 92 96 103 96 93 80 70 58 50 48 47 46 46 45 42 39 34
42 44 48 53 63 62 69 69 62 63 60 69 73 78 84 72 66 67 74 80 84 87 88 90 90 90 93 98 98 94 91 77 69 56 48 45 45 44 44 44 41 37 34
60 62 64 65 72 72 68 60 60 60 64 67 64 63 61 63 70 75 80 82 87 88 90 91 88 88 96 95 95 89 88 77 66 57 46 43 44 44 44 43 41 36 33
78 83 76 72 72 68 64 56 55 56 55 59 60 59 66 72 77 79 83 88 88 90 90 85 88 97 97 96 90 93 93 77 65 57 46 41 41 41 41 42 39 37 32

GFSGL_250_spd_015.txt.gz
Wind_Speed
35 29 29 30 31 28 27 29 30 30 29 30 31 32 34 37 39 43 46 49 50 48 42 42 43 38 47 56 57 56 55 55 52 48 49 54 53 51 54 53 51 47 45
39 33 31 34 33 33 33 33 34 34 33 34 34 35 36 39 42 46 51 51 59 50 40 42 48 46 54 65 64 63 61 60 60 57 55 54 52 55 54 53 56 54 53
40 39 34 36 36 35 38 37 38 39 38 38 37 36 38 42 46 51 53 57 62 43 44 50 57 59 66 70 70 69 67 65 65 66 61 60 62 61 59 59 54 52 57
43 44 39 39 41 41 43 43 42 43 43 42 42 41 41 42 46 51 58 64 52 36 47 63 72 69 76 79 76 72 72 71 67 65 64 63 67 65 58 54 56 61 63
48 50 46 44 45 45 48 49 49 49 47 47 46 44 43 43 47 51 59 51 40 39 51 69 70 74 82 86 84 78 72 70 69 66 67 69 68 60 59 62 66 65 63
54 55 53 50 52 51 52 52 52 53 53 52 52 48 49 49 48 48 53 51 44 44 50 56 78 83 84 88 85 80 75 76 76 73 74 69 69 66 65 68 66 65 69
59 59 58 56 57 57 56 57 56 57 56 57 56 53 54 54 55 50 55 61 48 48 66 76 79 85 87 88 86 80 81 81 76 78 76 71 73 75 77 77 75 69 67
67 66 63 64 64 62 61 61 60 61 61 61 61 57 58 59 60 58 54 59 64 66 77 78 85 81 87 87 82 83 81 80 76 75 76 77 77 83 84 84 81 76 74
72 70 72 71 68 68 68 67 65 65 65 63 61 59 63 64 65 68 66 66 66 73 77 79 74 81 84 81 83 86 80 78 78 80 81 82 88 93 92 87 82 77 75
77 77 76 78 75 71 74 72 69 68 68 68 64 64 69 70 72 76 76 75 77 77 75 73 73 78 81 84 82 81 75 76 78 82 86 91 91 97 99 90 85 82 76
85 85 83 81 80 79 78 75 77 78 76 73 70 70 74 77 78 79 83 84 79 68 70 71 74 82 87 81 82 76 78 79 81 87 92 94 96 102 97 90 84 79 74
78 84 85 85 83 82 80 80 80 84 85 80 77 76 76 80 79 81 80 73 56 61 67 68 81 80 78 82 76 76 76 76 83 88 98 100 101 105 97 88 81 73 64
67 68 75 80 81 83 81 83 85 89 90 81 80 80 77 76 75 70 53 50 56 65 68 74 75 76 77 83 79 79 74 81 86 92 101 102 109 101 92 85 74 64 56
55 56 55 59 64 61 69 65 60 71 82 69 69 69 64 63 62 58 51 56 62 69 75 78 75 78 81 82 74 79 79 86 89 94 100 106 107 97 87 75 64 58 55
52 53 50 29 36 42 49 58 62 59 55 43 43 41 52 64 65 54 64 65 69 78 83 78 75 79 82 75 76 79 82 88 87 93 102 110 107 96 83 70 62 59 54
34 35 31 26 33 42 55 62 38 28 20 25 30 46 60 54 74 72 70 76 77 81 79 70 74 78 72 76 77 79 85 83 89 98 104 105 106 93 79 67 63 59 54
49 47 42 29 30 26 26 18 16 24 20 32 42 51 64 73 79 83 82 85 88 89 83 79 71 73 74 78 79 80 79 84 91 93 106 104 103 90 76 67 62 58 54
53 69 61 48 26 26 30 29 25 38 28 40 75 72 77 78 85 89 89 100 98 89 65 67 73 74 76 75 77 78 84 90 96 100 104 106 101 88 76 67 62 59 53
44 28 34 19 36 56 39 42 50 55 55 65 72 77 79 85 76 75 83 90 84 73 67 68 70 71 74 79 82 81 87 93 98 98 104 102 100 89 76 66 62 57 52
29 36 37 50 93 80 52 61 77 76 70 73 76 80 85 91 94 89 92 90 75 76 68 74 75 78 84 85 78 83 91 96 99 94 100 100 94 83 74 66 61 57 51
36 38 39 54 66 70 71 72 72 65 67 78 82 88 86 89 93 94 84 81 70 70 75 81 81 85 85 79 80 85 89 93 98 96 96 95 94 83 74 66 60 56 53
39 54 62 61 63 66 62 67 66 60 64 67 71 70 77 82 82 77 78 81 82 81 79 79 84 88 79 79 80 88 92 97 96 91 94 97 93 82 71 65 61 56 52
53 50 61 59 60 62 65 54 51 53 53 56 59 63 62 65 68 76 77 77 75 78 80 78 83 82 83 80 85 90 92 93 88 96 94 96 90 82 71 63 59 56 51
61 60 49 45 48 53 54 59 61 66 70 70 68 61 64 72 74 72 71 73 72 78 83 85 87 77 77 82 90 88 91 94 94 93 94 94 89 86 72 63 56 54 52
73 72 72 67 66 67 71 74 80 75 73 73 69 71 71 73 74 77 77 76 77 83 81 82 77 80 80 86 88 91 95 94 94 93 95 90 88 83 70 65 53 50 51
86 83 80 81 82 86 82 84 85 83 77 72 74 75 77 78 79 75 74 77 77 77 74 75 80 81 85 87 91 96 98 93 97 97 91 89 90 80 69 63 54 46 47

GFSGL_250_spd_018.txt.gz
Wind_Speed
29 28 30 30 30 29 25 26 29 29 27 28 29 29 30 30 32 35 35 38 44 48 48 30 27 31 34 50 56 66 71 70 70 70 70 67 60 55 55 53 52 48 43
39 39 37 35 34 33 30 28 32 33 33 31 34 36 37 35 35 39 40 40 44 50 45 40 40 42 46 49 56 70 74 74 74 76 77 66 61 56 55 55 51 54 51
44 42 38 38 36 33 33 31 35 36 37 36 36 39 39 38 38 40 43 43 43 48 50 52 50 51 49 50 60 72 78 76 78 74 75 72 66 62 59 58 54 53 59
42 45 44 42 40 38 39 40 40 40 40 41 39 41 42 42 41 43 45 46 46 47 50 53 52 53 55 61 70 74 79 73 75 80 72 72 67 64 63 62 68 67 72
45 43 46 47 45 43 44 46 45 45 44 45 45 46 45 44 45 47 47 49 51 51 51 53 47 53 60 61 72 75 72 73 78 76 73 70 67 66 69 69 73 79 82
52 51 51 53 51 51 50 50 50 51 50 48 51 50 49 49 47 50 51 52 53 55 56 57 53 49 56 64 70 71 69 70 73 74 70 64 71 75 69 73 79 84 91
58 58 59 61 60 59 56 54 56 57 55 54 55 56 55 56 52 55 57 56 56 58 61 62 63 61 56 68 70 64 64 68 72 71 71 75 73 73 79 85 87 92 97
65 63 66 67 66 64 63 60 59 60 61 59 60 61 62 62 59 59 61 64 64 64 65 69 69 67 62 62 60 63 69 69 73 76 78 79 77 83 86 89 93 99 103
74 74 74 74 74 70 69 68 65 64 66 66 64 65 65 67 67 67 66 69 71 71 71 75 71 66 66 55 57 63 67 72 77 80 82 79 84 87 88 92 99 106 105
67 77 80 81 79 76 77 78 76 71 71 72 70 70 71 72 74 72 71 70 75 77 77 75 68 65 55 53 58 65 75 81 74 78 77 76 85 90 90 95 104 108 106
62 64 67 72 77 78 82 85 84 81 77 75 74 77 76 80 82 80 75 75 77 75 70 60 55 54 57 55 63 73 84 85 77 78 79 81 85 93 94 100 108 110 104
64 63 66 64 68 70 71 71 74 75 78 78 75 76 74 77 83 81 79 69 59 54 56 53 64 58 55 62 70 82 88 85 83 78 76 82 89 97 98 105 109 112 105
63 66 64 61 65 64 66 63 62 62 63 68 72 67 59 72 68 52 44 41 47 57 65 66 67 63 72 74 83 86 82 85 81 79 86 88 93 98 101 108 111 111 103
58 65 60 59 59 60 60 54 54 54 52 56 51 42 37 37 31 36 40 46 57 61 63 67 71 67 71 81 87 90 89 81 83 84 84 90 97 102 101 107 114 108 103
59 56 58 65 64 57 51 51 51 42 37 28 32 26 17 9 30 36 48 43 53 63 61 69 76 78 79 84 87 97 77 80 86 93 94 95 100 102 101 108 112 109 103
60 61 61 63 59 51 52 54 38 36 32 23 14 14 23 24 28 30 46 61 67 66 65 72 75 86 94 97 98 100 86 88 94 99 97 96 101 96 104 107 111 106 102
66 66 56 44 48 49 52 44 33 20 17 12 12 14 20 31 38 60 70 68 64 78 87 83 88 92 93 94 97 95 87 97 100 102 96 96 95 100 105 102 109 105 101
47 35 45 40 37 45 47 27 26 26 18 14 17 25 39 41 46 59 68 71 74 81 94 95 93 100 98 93 95 100 87 103 98 99 95 92 97 102 97 100 111 107 101
54 63 38 36 36 41 49 42 30 32 27 30 33 38 46 49 55 59 72 77 75 84 89 95 100 99 98 102 106 107 102 105 105 99 95 94 99 96 94 102 109 106 101
66 59 39 32 22 28 59 71 72 51 57 54 52 71 73 64 62 70 74 77 77 79 80 87 94 99 103 109 105 107 101 97 95 98 95 93 95 91 95 102 105 108 103
64 54 42 29 18 37 74 65 73 71 70 71 63 71 62 62 70 71 73 77 76 81 87 95 101 105 104 101 91 89 92 89 88 92 93 94 93 88 96 102 108 103 100
68 57 41 36 35 51 64 61 67 73 69 61 69 76 74 75 80 80 80 77 76 82 86 90 95 94 76 84 85 87 83 82 89 89 89 91 86 90 98 101 104 102 96
66 57 52 51 39 46 59 70 75 71 69 68 78 81 77 74 81 85 80 80 84 81 81 72 68 77 77 80 83 83 83 83 85 88 88 84 86 90 97 99 102 98 94
72 67 63 59 58 53 53 50 50 60 61 64 69 78 78 76 79 84 74 64 63 70 74 73 73 76 76 79 82 82 84 81 85 85 84 87 89 92 98 99 98 95 94
75 75 74 75 71 62 67 71 69 58 56 54 52 56 59 59 60 67 69 78 79 76 71 74 80 80 81 78 78 83 83 84 88 88 85 86 88 93 97 102 99 95 93
74 74 81 86 82 84 85 76 77 72 68 73 74 74 78 79 79 78 76 80 80 75 73 80 83 78 80 85 79 80 81 81 82 85 87 88 91 94 97 95 100 92 95

GFSGL_250_spd_021.txt.gz
Wind_Speed
25 23 23 24 24 23 24 25 25 29 28 21 24 26 26 26 29 31 31 32 32 36 39 39 40 43 43 47 43 42 49 49 57 60 57 57 63 69 73 68 59 64 60
33 32 31 30 31 31 32 31 32 32 32 28 27 29 30 30 32 36 36 35 36 40 42 42 44 45 47 50 51 53 52 53 57 59 56 58 61 72 77 67 63 63 66
38 39 37 37 38 37 34 35 34 34 33 34 34 34 35 37 37 39 41 39 39 43 47 48 50 52 54 56 58 62 57 54 60 51 57 60 67 71 76 74 64 72 68
43 45 44 42 40 39 39 40 37 38 38 37 38 40 41 42 43 42 43 44 45 46 50 52 53 55 58 59 59 60 60 58 56 50 55 58 68 73 74 70 70 74 76
42 44 44 45 44 43 43 43 42 42 43 43 43 45 46 47 48 47 46 49 51 53 53 55 57 59 61 64 64 58 62 63 53 52 57 61 72 78 74 69 76 75 83
48 51 51 50 50 49 48 48 49 49 49 49 51 50 50 51 51 50 51 54 56 58 58 57 60 62 64 67 67 61 60 55 49 49 59 65 75 78 80 75 79 84 88
54 56 57 57 57 57 54 55 56 56 55 56 57 56 56 56 56 56 57 60 62 61 62 63 62 65 67 68 58 55 51 57 55 61 62 70 79 84 84 79 83 86 94
61 62 62 62 62 60 60 61 62 61 62 62 63 62 62 61 62 61 62 64 66 67 66 69 71 66 66 52 47 50 56 53 59 60 65 73 83 86 70 77 89 99 96
50 56 60 66 68 66 67 68 67 67 68 70 70 69 69 68 68 67 68 68 71 70 71 70 71 63 46 46 53 55 57 59 61 62 67 78 85 79 80 93 101 101 103
48 48 48 49 50 49 51 53 55 58 63 69 73 75 77 77 74 72 73 72 73 72 69 65 49 41 42 51 50 63 64 62 65 66 70 80 85 94 96 96 101 102 113
40 42 46 49 51 52 54 54 55 55 56 58 60 63 65 68 69 72 69 65 67 61 45 36 33 36 48 51 62 69 66 65 71 74 76 86 87 92 94 100 103 109 109
43 44 43 44 47 50 52 56 57 60 58 59 57 56 56 57 57 59 56 39 41 25 30 34 37 44 53 58 71 69 73 71 78 79 82 83 86 91 95 109 112 110 107
49 50 48 48 49 50 52 56 55 59 57 59 56 53 55 53 46 42 32 23 26 29 30 37 43 46 46 61 72 75 81 75 82 82 85 87 88 94 101 104 107 108 103
59 57 56 54 55 53 58 60 60 55 57 66 59 56 46 50 33 26 14 10 21 31 35 38 45 52 66 75 69 75 75 77 80 88 90 88 93 96 102 113 105 103 100
63 62 59 59 60 59 61 60 61 61 63 53 57 56 42 49 52 28 24 25 23 24 25 40 39 52 74 75 80 78 81 81 89 91 88 91 102 105 100 98 95 95 98
68 65 62 61 60 61 62 58 59 62 59 54 45 45 38 38 43 37 26 27 24 23 28 42 53 52 62 71 73 70 75 85 90 92 94 98 99 99 103 92 92 93 94
71 70 68 66 60 62 65 59 52 41 46 48 43 36 33 38 39 29 26 33 34 40 34 44 65 76 89 78 72 67 74 89 94 93 91 98 105 106 93 88 92 91 91
73 74 70 69 62 64 67 54 34 39 45 35 24 24 32 35 38 36 38 43 45 41 49 55 59 66 71 74 75 75 82 87 87 86 95 100 105 97 89 91 88 87 91
74 73 70 68 71 64 67 47 39 41 39 35 36 39 40 36 38 36 46 55 56 45 49 62 64 67 66 68 74 77 87 92 89 94 99 101 87 84 87 92 87 88 87
80 75 70 69 69 69 63 41 40 33 40 41 38 37 38 48 59 53 47 51 61 60 61 66 66 67 70 78 79 84 88 86 88 94 90 74 84 84 84 87 82 86 86
80 81 77 75 79 79 61 43 42 33 32 39 45 69 89 82 83 75 66 63 65 69 75 73 74 72 73 84 83 86 82 87 87 82 76 73 77 82 84 82 84 84 86
82 78 85 95 85 73 58 50 46 35 38 42 65 61 66 68 79 85 84 79 77 70 76 77 77 78 77 81 85 85 86 78 76 77 82 79 77 79 79 81 78 82 86
99 88 85 83 82 72 54 57 59 55 58 60 61 61 66 70 70 72 74 77 70 67 72 79 79 83 82 85 83 75 74 77 82 78 87 79 75 74 75 80 80 80 84
83 87 85 77 70 70 58 61 66 68 69 68 68 72 65 71 74 72 74 69 68 66 60 67 78 82 83 76 68 68 74 81 81 83 78 78 80 76 77 79 81 80 85
75 72 67 67 67 67 63 70 68 71 68 70 68 66 57 55 54 57 61 63 62 69 69 65 63 67 71 73 77 84 83 84 82 83 79 78 76 75 78 78 79 83 86
66 67 67 66 66 66 68 72 68 75 67 72 78 71 69 67 67 67 63 65 65 60 59 65 75 78 80 83 84 83 83 85 85 81 80 75 76 80 82 79 79 85 87

GFSGL_250_spd_024.txt.gz
Wind_Speed
28 26 25 23 20 19 19 19 19 21 23 24 23 23 26 25 25 27 28 30 32 34 36 38 39 41 44 46 45 46 50 54 47 43 45 45 45 48 51 69 64 58 50
32 31 30 30 28 26 26 27 28 28 28 26 25 25 28 30 29 31 33 35 37 38 38 39 43 45 48 49 49 51 54 55 45 36 42 45 45 50 53 67 66 61 56
34 34 35 35 34 31 32 34 32 32 32 32 29 28 31 34 34 34 36 39 40 42 42 43 47 50 51 52 52 53 55 47 39 37 41 51 47 52 54 65 71 65 66
39 39 40 40 38 37 37 40 38 37 37 37 37 36 35 37 40 39 41 42 44 45 47 47 50 52 54 56 57 56 56 41 41 46 44 52 53 59 57 65 69 66 72
42 43 45 43 44 43 42 41 41 40 39 39 40 40 40 42 44 45 45 46 49 49 51 53 54 55 56 56 59 59 52 34 39 43 51 57 59 63 61 68 75 69 74
44 45 44 44 45 44 44 43 45 44 44 45 46 47 48 48 50 52 51 51 52 53 55 56 57 56 56 58 58 58 43 34 38 48 53 57 63 64 68 71 71 78 83
45 46 47 47 49 48 48 50 51 51 51 52 53 54 55 56 56 57 57 56 57 60 61 60 59 58 58 55 55 49 36 37 40 49 63 61 64 71 68 73 78 79 88
49 50 52 54 53 52 53 55 56 56 57 58 60 61 61 61 60 62 62 62 64 67 67 67 66 64 56 50 39 34 33 41 39 50 60 65 66 69 69 77 83 82 89
57 57 56 57 58 56 53 55 56 57 54 52 52 53 53 57 57 58 58 56 60 66 65 65 64 60 51 27 34 33 38 42 39 45 59 64 66 68 76 78 84 85 97
46 46 43 42 40 42 41 40 38 39 41 45 45 47 49 51 52 55 55 54 55 59 58 55 45 38 29 26 34 37 41 46 44 51 57 64 72 72 76 79 84 88 96
37 36 37 38 38 37 38 38 39 40 44 46 47 50 51 50 51 48 52 54 52 49 48 42 30 19 20 27 38 38 37 42 52 54 58 63 71 74 77 80 85 90 97
39 40 40 41 41 40 38 39 43 40 44 48 50 53 55 56 52 49 55 53 51 41 36 27 24 20 20 24 29 39 42 46 47 55 57 53 69 72 77 82 85 95 99
48 48 47 48 47 46 46 47 45 48 52 52 51 55 57 58 56 52 56 56 43 26 22 23 22 29 36 40 37 42 40 45 48 50 57 61 76 76 80 85 90 91 94
56 54 55 54 53 52 52 51 50 51 56 57 53 56 57 57 61 61 53 50 26 22 23 15 19 26 31 31 31 37 41 49 50 53 60 65 74 75 82 85 87 88 94
64 64 63 61 59 58 57 55 53 54 58 60 58 58 56 57 56 49 41 38 27 20 22 20 26 31 35 35 36 42 46 50 51 53 59 67 69 75 78 81 87 87 83
68 68 66 65 67 66 63 61 58 59 60 62 59 61 62 57 55 47 38 34 36 31 26 29 32 32 36 34 44 50 50 57 56 55 64 69 69 72 77 81 82 86 84
73 73 72 72 72 71 69 66 64 63 64 64 62 61 57 51 55 49 32 30 33 39 35 36 35 27 62 57 56 58 57 58 63 66 71 75 71 77 82 82 82 83 78
82 81 80 79 76 73 71 68 70 69 63 62 61 59 55 56 56 44 26 27 31 44 41 34 39 43 60 56 54 59 62 63 66 71 74 71 73 77 81 81 83 80 84
86 86 86 83 80 78 77 75 77 71 67 66 66 63 59 59 54 41 33 35 35 47 48 44 58 61 61 61 65 69 74 74 71 67 64 65 69 74 80 83 79 82 81
87 88 88 87 85 83 82 82 80 74 74 70 68 62 58 56 53 41 38 34 45 36 53 64 65 64 66 70 76 77 76 74 69 72 72 72 74 76 71 75 69 75 86
88 89 90 89 89 86 87 84 77 73 75 73 71 61 55 51 49 45 37 59 69 89 91 63 62 69 63 59 64 68 69 76 76 74 71 75 79 75 73 68 75 83 86
89 89 88 84 84 86 85 86 86 83 72 71 66 52 55 52 37 32 46 52 78 68 71 73 78 78 74 73 74 70 67 69 74 73 74 79 81 71 71 74 76 80 88
99 95 94 92 88 88 86 85 85 85 86 80 83 59 61 63 52 55 61 59 64 67 59 61 60 58 62 60 60 56 58 62 68 72 78 74 74 68 71 81 84 89 88
98 98 99 102 98 92 90 92 91 87 81 81 75 65 65 69 66 73 66 64 64 63 70 67 70 69 64 59 56 56 57 63 66 64 69 68 72 76 78 86 90 89 88
95 98 97 99 95 96 95 89 83 85 84 82 70 70 69 75 77 87 86 67 63 67 67 65 64 62 57 60 60 62 66 69 71 71 71 76 77 82 85 89 90 92 92
100 101 97 96 95 94 87 79 87 69 59 56 61 68 69 78 82 81 81 76 64 56 60 62 63 62 57 56 58 62 63 68 72 75 82 83 85 90 93 93 95 93 86

GFSGL_250_spd_027.txt.gz
Wind_Speed
33 30 27 23 23 21 18 17 15 15 16 15 18 18 23 26 25 25 26 27 27 29 31 33 36 37 38 37 38 40 40 41 41 30 26 31 45 41 52 52 54 50 58
36 34 31 27 25 23 23 22 20 19 21 22 21 20 25 27 29 29 30 30 31 33 36 38 39 41 43 43 41 42 42 44 42 28 24 30 43 47 53 54 55 51 57
37 36 33 30 29 27 27 26 25 25 29 29 29 28 29 32 34 33 33 34 35 36 38 40 43 45 45 46 47 46 46 45 40 25 25 29 41 51 51 56 57 54 54
36 35 35 34 32 31 32 33 32 34 34 34 34 31 31 33 36 38 39 39 41 42 43 46 48 50 50 51 51 52 51 50 40 25 29 32 40 50 50 55 59 63 58
38 36 38 35 34 36 37 37 40 39 38 38 38 37 37 39 42 43 44 45 47 49 50 52 53 54 56 56 57 57 56 53 42 23 27 28 38 44 52 55 59 63 60
40 40 39 39 39 41 41 41 44 42 40 41 41 44 46 46 48 50 54 55 56 57 58 58 59 59 59 58 59 57 56 51 36 26 29 31 34 44 51 53 60 60 64
42 41 38 41 43 43 42 42 42 42 44 47 48 50 52 54 56 57 59 59 59 58 58 59 60 59 61 57 57 54 50 41 31 30 32 32 36 43 51 54 58 63 68
45 44 44 45 45 44 44 45 46 47 49 51 53 56 55 55 53 50 49 48 49 51 52 52 53 52 54 49 45 42 34 29 28 30 37 40 38 39 53 58 61 64 68
52 51 49 48 48 48 49 48 50 51 53 53 47 45 46 45 44 43 42 43 45 49 52 52 51 47 43 41 34 29 22 23 27 34 40 40 37 46 52 58 58 63 69
59 57 53 51 53 53 52 52 52 46 43 37 39 39 38 40 42 43 46 46 49 46 48 48 47 45 35 26 28 20 22 27 23 34 41 50 45 47 49 58 56 60 64
62 59 54 51 53 52 46 42 38 36 32 34 36 38 38 42 45 51 54 53 52 48 53 51 43 45 30 26 13 13 20 28 36 40 45 49 47 50 51 57 59 51 63
49 46 47 46 44 42 39 36 35 35 34 37 38 41 45 47 50 51 54 56 56 55 54 42 33 32 28 13 16 15 26 32 40 39 42 47 50 48 57 58 59 55 61
44 43 43 42 42 42 41 41 40 40 40 43 44 46 49 51 50 54 55 55 57 55 53 32 26 19 17 12 20 27 29 29 24 30 38 48 53 51 51 58 61 65 65
48 47 47 47 47 47 47 46 46 48 49 50 49 48 50 52 53 56 57 57 60 59 53 44 24 22 20 12 16 28 35 30 33 40 53 59 63 60 58 58 66 64 68
54 55 54 54 54 54 54 53 55 55 54 56 57 57 58 58 59 57 58 57 62 59 56 46 32 32 30 25 34 30 34 28 32 43 56 62 68 62 68 70 66 67 68
59 60 60 61 61 60 60 60 60 60 58 59 61 62 61 64 64 62 64 64 59 58 55 53 37 37 31 25 26 27 36 37 45 54 55 65 68 66 68 68 69 70 68
65 65 65 66 64 64 64 64 65 64 65 66 66 66 65 64 65 66 68 67 67 63 57 48 44 44 34 32 29 33 40 52 55 60 64 72 69 66 70 73 74 69 69
68 69 68 69 69 70 71 73 73 72 71 72 73 73 71 70 72 72 73 69 71 65 59 40 43 49 44 36 37 32 45 59 66 56 64 70 73 74 75 77 75 71 71
76 76 76 74 74 75 77 79 78 78 77 78 78 76 75 75 75 78 72 70 71 66 60 50 42 49 55 50 48 59 62 67 71 67 69 73 78 76 66 70 74 71 73
82 83 81 79 77 78 78 79 80 80 79 77 80 78 80 81 77 76 74 74 74 74 61 51 50 57 51 47 62 75 73 76 73 70 74 70 67 66 68 71 71 66 70
88 87 85 85 84 83 83 82 82 82 81 81 82 81 83 80 72 72 72 77 80 68 57 54 54 57 49 58 80 72 86 74 64 63 65 70 70 71 71 70 60 65 69
88 86 85 86 86 85 85 84 85 83 83 82 80 79 81 83 82 76 82 84 79 73 57 52 52 58 45 72 66 63 64 61 63 64 64 69 74 67 67 60 62 68 69
92 92 94 89 90 90 89 87 85 87 85 83 82 85 86 84 81 86 90 79 82 82 61 62 51 59 65 81 64 53 50 52 53 52 54 54 61 59 62 64 64 66 70
94 94 96 96 97 96 97 97 97 98 97 96 94 96 93 92 89 84 79 77 70 72 66 65 63 60 63 66 68 62 61 60 61 55 54 56 59 62 64 67 68 70 73
104 103 97 95 99 99 97 96 97 96 100 97 97 96 88 85 86 82 82 73 65 72 67 70 74 77 81 79 72 63 58 57 58 59 58 61 62 65 62 63 65 68 71
108 106 107 108 104 103 101 102 104 101 102 103 100 95 92 92 86 79 72 59 56 54 54 61 70 76 76 71 69 61 58 58 56 59 59 60 63 65 69 68 70 74 78

GFSGL_250_spd_030.txt.gz
Wind_Speed
37 34 31 30 27 23 20 19 18 15 13 9 10 13 15 19 22 23 24 26 26 26 29 30 33 32 36 36 37 35 36 35 35 37 37 22 23 23 30 34 37 39 40
37 36 34 31 26 20 20 19 19 17 14 13 15 19 22 25 25 26 28 27 27 29 33 35 37 38 39 41 42 43 42 41 39 36 37 31 27 27 24 30 39 41 41
39 37 34 31 28 24 22 23 23 21 21 21 22 26 28 30 32 31 32 33 36 38 41 44 45 47 49 50 51 50 49 48 44 42 37 30 28 27 26 29 33 43 45
40 39 37 34 32 29 28 26 26 27 25 27 29 32 33 35 35 36 37 40 41 43 47 50 51 53 55 55 54 54 53 50 47 41 35 30 28 29 30 32 39 42 44
42 40 38 36 33 33 33 31 30 31 30 33 34 36 37 38 39 40 43 44 48 51 53 56 56 56 55 55 53 47 45 45 42 36 31 24 25 23 25 32 34 37 45
45 44 39 37 35 36 37 35 34 34 34 37 38 41 41 41 43 44 48 51 53 53 50 50 49 51 51 48 50 48 43 38 34 30 28 20 21 26 28 28 36 37 45
50 48 43 39 36 37 37 35 36 37 39 40 42 42 44 44 47 49 51 50 46 42 37 39 42 46 47 47 44 42 40 31 28 25 18 21 25 26 28 30 36 45 48
47 44 42 39 38 38 35 36 37 38 41 43 43 46 48 48 50 48 41 39 37 35 41 41 46 48 47 46 38 37 35 33 19 16 18 19 23 27 34 29 36 45 51
51 50 47 44 43 42 42 40 39 40 43 44 46 50 50 48 41 34 32 34 37 41 46 49 50 51 53 41 31 29 26 19 13 18 25 32 34 35 38 39 39 42 51
52 51 48 45 46 48 45 45 45 46 47 47 48 49 42 37 35 35 33 35 40 43 44 46 48 50 51 43 30 21 19 16 20 24 26 31 35 34 38 42 47 47 53
54 52 53 53 53 53 50 50 52 52 48 50 44 36 36 37 37 37 37 39 41 41 46 48 48 45 45 40 29 24 17 14 21 26 29 27 21 30 38 48 56 56 54
59 60 60 58 57 58 58 56 56 54 45 40 36 35 38 40 40 41 42 43 45 46 47 47 48 45 39 39 35 33 19 22 26 23 23 23 25 28 37 46 58 63 64
43 47 48 49 48 48 47 46 40 39 38 38 38 38 40 43 46 48 50 53 53 55 55 54 50 48 44 42 37 41 26 29 27 28 29 32 31 26 38 49 60 69 68
42 41 40 39 39 39 41 43 42 41 40 42 42 43 45 47 50 51 53 55 57 57 56 55 55 54 43 42 41 43 42 29 29 35 35 39 37 31 41 47 64 67 68
47 48 48 47 47 46 47 46 45 46 46 46 47 49 51 53 54 54 55 54 57 61 59 59 59 57 56 50 44 38 42 43 32 32 32 34 39 43 44 48 58 68 75
51 52 52 53 53 53 51 50 51 53 52 52 53 54 55 54 56 58 60 60 62 66 69 69 63 63 60 56 49 43 46 52 44 34 40 39 49 49 48 49 56 66 69
54 55 55 57 56 56 57 57 59 56 56 57 59 60 60 61 62 65 66 68 68 69 67 68 69 68 62 60 56 48 49 57 44 35 50 52 56 49 47 69 76 76 70
60 60 61 62 61 61 61 63 63 61 61 60 61 62 64 64 66 68 68 69 70 73 72 70 67 62 58 54 61 53 51 57 51 48 46 53 64 53 65 74 75 80 78
65 66 66 67 66 66 64 65 65 65 62 64 67 69 71 70 69 69 70 69 69 71 73 73 74 65 63 62 61 50 47 62 53 48 40 52 71 71 67 75 76 79 80
72 71 69 70 72 71 71 70 69 68 69 72 73 74 73 73 73 74 76 75 73 74 74 75 72 72 74 69 54 46 48 58 63 56 52 61 80 82 83 75 70 64 71
79 78 77 77 78 78 78 77 76 77 78 79 77 77 78 78 78 78 78 82 81 80 81 77 72 79 76 74 57 46 46 53 42 57 65 80 72 66 68 77 72 67 68
86 85 85 85 85 85 85 85 84 84 85 84 81 80 86 84 83 84 87 84 82 84 82 79 84 81 80 74 68 47 41 47 50 50 69 71 77 65 57 58 55 58 57
92 94 95 94 94 93 93 91 92 91 92 94 93 92 92 88 87 89 89 91 88 83 80 78 77 76 78 76 61 45 43 47 62 72 72 59 62 63 62 63 62 63 60
96 97 99 100 100 100 101 102 103 101 98 96 94 92 93 93 92 90 88 94 92 86 83 82 78 75 74 74 58 48 48 60 65 80 79 78 73 67 67 73 67 63 60
101 102 103 101 100 102 100 100 99 99 99 97 98 100 101 100 96 97 96 98 96 89 90 83 78 79 66 68 60 49 59 59 66 77 85 93 89 74 68 59 61 61 60
103 107 111 112 110 109 107 108 108 109 110 111 113 109 104 102 102 101 100 98 93 91 89 82 82 82 82 65 56 50 54 65 67 75 85 89 83 81 82 79 72 65 64

GFSGL_250_spd_033.txt.gz
Wind_Speed
43 39 35 34 31 26 22 20 19 16 13 12 11 11 11 13 14 17 19 22 23 24 27 30 32 33 36 41 42 43 43 44 44 43 37 35 34 31 30 32 30 29 32
43 38 39 37 33 27 23 19 18 17 16 17 18 17 17 18 19 22 24 25 25 28 32 35 38 42 45 47 48 47 44 44 43 42 42 37 32 31 32 30 32 30 30
45 43 42 40 33 28 23 20 19 19 21 23 23 23 22 24 25 27 29 29 31 35 38 41 44 46 46 43 42 41 40 41 39 37 35 35 29 31 28 27 20 25 28
47 45 42 39 34 30 28 27 25 22 25 28 28 28 28 28 29 31 33 33 36 40 44 47 44 39 37 37 41 41 40 38 37 35 33 33 30 28 23 18 21 19 23
48 46 43 39 35 32 30 31 31 28 26 31 33 33 32 32 32 35 35 37 40 44 47 41 35 33 33 38 40 41 39 35 30 35 30 27 23 25 21 17 23 23 30
51 48 43 41 37 34 34 34 34 31 30 33 34 35 35 33 35 37 38 41 43 44 38 33 32 35 36 40 45 48 34 27 30 27 25 20 13 9 12 12 18 17 24
52 48 46 42 37 35 35 36 34 35 35 36 37 37 36 35 36 37 40 43 43 34 31 33 36 39 43 44 45 47 35 31 25 20 17 10 9 12 11 12 18 20 22
50 50 47 43 39 37 38 36 36 36 39 39 38 38 37 37 38 39 41 44 35 32 30 30 32 36 41 45 46 46 39 30 19 9 12 12 14 16 18 21 17 17 24
48 49 47 45 42 39 40 40 39 39 39 37 35 38 40 40 40 40 43 35 33 31 31 31 34 39 40 41 45 42 41 31 27 26 23 20 18 22 27 23 22 26 29
49 51 48 43 42 42 43 44 42 41 41 41 41 43 43 44 44 44 35 32 32 30 33 33 37 41 41 41 37 41 45 42 30 31 31 28 31 29 27 28 31 35 34
47 42 41 41 43 45 45 45 46 44 44 46 47 46 49 48 44 36 30 31 32 32 35 37 40 42 43 42 41 39 40 40 36 35 37 36 36 38 36 34 38 41 38
50 47 46 47 48 48 49 50 49 48 48 49 50 52 51 45 37 33 33 33 34 36 39 39 42 43 46 47 47 46 43 40 41 35 34 43 44 43 40 41 47 45 41
55 53 54 54 54 53 52 52 50 51 51 50 48 46 43 39 38 36 38 39 39 40 43 44 47 49 52 55 55 55 51 48 43 36 36 44 51 48 46 39 41 43 46
56 60 60 58 57 55 55 54 53 52 47 43 41 40 38 40 39 41 42 43 45 46 46 47 50 54 55 56 56 55 54 52 43 36 41 47 48 53 50 42 42 43 48
38 41 44 44 45 48 50 50 47 44 42 42 41 40 43 44 44 45 45 47 51 51 51 53 55 57 57 58 55 52 51 52 39 35 40 40 47 51 48 38 38 46 50
45 45 45 45 44 45 44 42 43 42 42 42 42 44 46 49 48 50 51 52 53 53 52 53 55 58 59 60 56 55 57 58 51 44 47 48 45 48 53 54 51 55 59
55 54 52 49 50 49 49 48 48 47 45 47 51 51 51 53 53 54 56 53 50 52 52 54 60 60 60 60 59 63 62 59 54 52 52 50 47 47 52 47 50 55 57
61 58 58 55 54 55 53 52 51 52 54 55 56 55 55 56 56 55 54 54 56 55 58 63 63 64 61 61 65 69 69 63 57 52 52 51 47 44 48 45 38 53 51
63 62 61 59 56 56 55 54 54 54 56 57 59 59 57 59 59 59 60 61 63 64 67 70 70 70 70 71 72 72 69 64 59 55 43 47 48 38 41 43 37 39 85
67 66 64 64 64 63 62 62 62 62 63 63 64 64 64 64 65 67 68 68 70 72 74 74 75 74 75 77 77 74 74 71 66 58 53 49 48 42 44 40 67 86 84
73 71 71 70 70 70 70 70 70 70 69 69 69 70 70 72 73 76 77 76 76 79 81 79 81 82 82 82 83 76 74 70 66 54 52 48 42 40 41 45 76 83 83
78 79 78 79 78 77 77 77 76 76 76 76 76 77 78 80 82 83 83 83 84 84 85 86 86 86 87 92 87 81 76 66 62 50 49 42 45 43 42 46 65 78 87
84 84 84 83 83 83 84 84 84 84 85 84 84 84 85 88 90 90 90 90 91 90 91 89 89 91 95 88 86 82 75 67 62 57 51 46 49 55 51 60 65 69 81
87 89 90 90 91 90 90 90 90 91 93 93 93 94 94 94 96 96 95 96 94 94 93 92 94 88 87 95 86 79 73 69 66 62 65 49 59 62 64 66 77 77 77
96 96 94 93 93 94 95 95 96 98 99 99 99 99 99 99 101 101 99 97 95 95 94 96 91 95 91 86 81 78 73 70 70 69 71 53 65 71 72 75 76 84 93
99 100 101 99 99 98 98 100 102 104 102 101 101 101 102 103 104 104 103 102 100 99 97 97 95 91 89 86 81 80 79 79 76 68 59 55 47 72 77 81 78 73 77

GFSGL_250_spd_036.txt.gz
Wind_Speed
45 40 35 33 30 30 27 24 22 19 18 19 17 17 15 14 11 11 13 19 20 21 23 28 32 36 41 42 37 33 34 36 36 34 32 30 30 29 29 31 30 31 32
45 41 38 36 35 33 30 26 23 19 20 22 22 21 20 19 17 16 19 22 25 26 29 33 38 42 39 31 28 31 34 37 38 33 28 27 29 29 28 30 30 28 19
46 45 43 41 38 37 33 27 25 22 22 22 23 24 24 24 22 21 23 26 29 31 33 39 42 38 29 29 31 32 33 34 33 31 31 31 31 25 24 26 25 21 15
46 47 46 44 41 39 35 32 28 24 23 23 23 26 27 27 25 25 28 29 32 33 36 39 38 29 30 30 31 33 33 33 29 26 27 30 27 27 20 16 11 7 14
48 49 47 46 44 41 39 36 30 28 28 26 26 26 28 29 28 30 29 30 32 34 39 41 27 25 24 31 35 41 38 35 34 30 31 27 28 21 13 6 2 4 6
51 51 50 48 47 42 42 38 34 33 31 31 33 32 30 28 28 30 30 31 32 36 39 33 26 25 25 29 33 36 41 40 40 31 35 26 23 15 7 7 12 15 19
50 53 53 51 48 44 42 40 38 35 34 33 34 33 31 31 31 30 31 31 33 36 39 30 28 23 25 30 33 34 32 35 33 34 37 36 22 15 17 14 16 19 27
44 53 53 53 50 45 44 43 41 36 34 36 36 35 35 33 32 33 32 32 35 38 35 30 29 29 30 33 35 35 33 33 34 32 33 36 36 29 24 27 28 29 33
38 51 56 53 52 48 48 46 43 38 39 38 38 38 34 31 29 30 34 35 37 38 34 30 29 31 31 34 36 39 41 39 41 39 32 33 35 39 36 32 32 33 39
40 44 52 51 51 51 48 46 44 43 42 43 42 40 37 35 33 33 34 39 39 38 35 31 31 34 34 35 36 38 42 46 47 45 38 33 38 40 39 39 37 38 37
47 43 44 50 52 52 50 47 50 49 48 47 45 43 42 39 37 38 38 41 40 36 35 31 33 35 37 38 40 43 48 49 48 46 41 42 38 39 39 40 42 40 38
48 45 43 41 44 48 51 52 52 50 49 47 46 45 43 43 43 43 45 43 42 37 33 35 38 36 38 42 43 47 50 50 47 42 41 43 37 36 40 42 42 43 46
53 51 49 47 45 46 47 48 49 48 47 46 48 49 48 47 49 50 49 46 37 34 35 38 39 38 40 44 46 49 50 49 46 43 44 46 42 38 38 43 45 50 50
56 54 51 50 50 50 51 51 50 49 49 51 52 51 51 53 55 55 51 41 33 33 37 39 39 41 42 43 44 48 50 51 50 46 49 51 53 47 42 44 49 58 56
45 53 59 59 57 56 56 55 55 55 56 56 56 57 60 60 60 56 41 35 37 38 41 43 44 45 44 44 45 47 51 53 54 52 52 58 56 47 46 49 46 49 57
38 39 40 44 52 58 60 61 62 63 64 64 64 63 60 54 46 39 36 40 42 44 45 46 47 46 46 47 49 51 55 59 58 58 60 63 61 59 51 53 55 52 53
44 44 44 44 43 43 45 49 52 52 52 49 46 42 41 41 42 44 44 45 47 49 49 51 50 50 51 52 55 58 61 63 65 63 65 65 67 61 55 51 50 53 50
55 55 53 53 51 47 47 48 47 46 47 48 48 47 46 46 48 50 50 50 52 54 55 54 55 56 57 59 59 63 66 68 68 70 69 69 70 62 60 53 58 56 49
58 58 60 60 58 57 57 56 55 53 53 54 54 53 53 54 55 55 55 55 57 58 58 60 63 62 64 66 68 71 70 72 73 75 73 74 66 68 63 52 57 55 46
60 60 61 62 62 64 63 61 60 60 59 60 58 56 56 57 57 58 58 60 62 63 64 66 68 68 70 73 76 77 77 77 78 80 81 76 75 71 60 53 56 53 51
67 65 63 65 66 65 65 67 66 64 64 64 63 63 63 64 65 66 67 68 68 69 71 73 75 75 79 80 81 81 82 83 85 86 83 77 71 69 59 49 57 50 54
72 70 69 68 70 70 69 69 70 71 71 71 71 71 71 72 73 74 75 76 76 77 78 80 81 85 83 84 87 86 88 87 85 87 84 80 73 59 52 52 49 52 48
79 77 74 74 74 75 74 74 76 77 79 79 80 80 79 80 82 82 82 83 83 85 85 88 88 89 91 93 90 89 89 90 87 81 80 76 67 58 54 55 52 51 54
85 82 81 82 81 80 81 81 81 82 84 86 87 87 87 87 88 89 89 90 91 91 92 92 94 97 94 92 94 92 91 76 73 73 72 71 69 65 61 60 63 60 53
89 86 87 87 88 88 88 88 88 88 89 89 90 90 91 93 93 92 94 95 97 99 98 98 97 96 94 93 92 85 73 72 74 74 75 76 81 79 76 70 64 64 58
91 90 92 92 93 94 95 96 96 96 96 97 98 97 97 99 100 102 102 102 104 103 101 100 99 96 88 86 85 81 80 77 82 84 82 89 85 77 73 71 62 57 59

GFSGL_250_spd_039.txt.gz
Wind_Speed
37 34 36 34 31 28 27 27 23 21 21 20 19 18 17 17 14 13 13 13 18 23 27 28 32 38 39 30 30 31 32 36 36 35 31 26 26 26 23 26 26 24 28
39 36 36 37 35 33 31 28 27 25 23 23 22 20 18 17 18 18 18 18 21 25 28 29 33 39 28 28 29 32 36 40 40 35 35 33 30 30 27 23 20 17 17
41 38 36 39 39 37 33 30 30 27 25 23 22 20 20 20 21 22 21 22 25 27 28 29 33 34 24 25 25 29 33 36 41 40 37 41 43 38 25 17 15 11 4
43 41 40 42 43 40 36 33 34 31 28 26 23 20 19 20 20 23 25 26 27 27 27 29 33 29 22 21 21 27 29 32 32 37 38 38 40 40 25 14 10 5 5
42 43 43 41 44 43 40 37 37 35 32 29 27 24 21 20 21 24 25 25 26 27 27 29 34 29 26 25 26 28 26 28 31 35 43 42 35 35 26 15 6 6 9
42 45 43 43 45 47 43 40 39 39 36 32 30 28 26 26 26 26 26 26 28 27 27 29 32 30 26 26 26 28 28 27 33 36 37 41 39 35 32 25 17 18 19
38 41 45 47 47 45 43 44 42 40 38 36 33 32 30 29 28 27 28 27 28 28 28 32 33 33 28 28 27 27 23 26 30 35 37 36 40 37 35 31 25 25 26
36 39 41 48 51 48 47 45 44 41 40 39 38 36 32 31 29 29 29 29 26 27 30 33 36 36 28 30 29 29 23 26 30 30 32 32 30 37 37 37 34 28 32
40 38 40 43 47 51 50 47 43 42 41 40 40 39 36 34 31 31 31 29 29 31 32 37 40 40 31 30 29 31 31 30 33 35 33 29 27 34 37 34 35 34 35
47 45 40 39 41 48 52 50 46 43 44 43 43 42 41 38 34 35 34 35 34 35 36 39 42 42 34 31 30 32 32 31 34 36 34 34 30 33 34 36 37 35 31
52 48 45 40 38 41 48 52 50 48 47 48 47 47 45 43 40 39 39 39 39 40 43 42 43 42 36 34 32 33 33 33 30 34 37 39 38 38 40 38 40 41 40
56 53 50 47 41 40 42 51 51 50 52 51 52 51 50 49 44 44 42 41 42 45 47 46 45 40 36 36 35 35 37 36 34 34 37 40 43 43 45 50 51 49 51
59 57 54 50 46 41 36 39 49 53 54 55 55 55 53 51 48 47 44 45 47 49 49 50 46 38 36 37 37 39 40 39 38 38 40 42 45 45 46 50 53 55 53
57 56 55 53 50 48 46 44 44 47 50 52 54 54 53 50 48 47 49 51 52 52 51 51 40 39 38 39 40 41 44 43 43 42 44 46 51 54 55 55 55 57 58
55 57 56 55 52 50 49 50 49 49 47 47 48 47 49 51 52 53 54 54 55 54 51 42 42 40 41 40 43 45 46 48 47 49 50 52 57 59 63 63 63 61 60
43 50 56 58 58 56 56 55 54 54 54 54 54 54 55 57 58 58 57 58 57 51 44 41 40 42 43 44 47 49 51 53 53 55 55 57 62 67 68 68 70 68 65
41 42 44 45 47 49 54 60 62 59 57 57 58 59 61 60 60 61 57 51 46 42 39 41 44 46 47 49 51 53 55 57 60 61 62 63 69 72 72 75 73 70 70
50 48 47 44 40 40 40 40 42 44 48 52 55 56 57 57 54 49 44 44 43 43 44 47 49 52 52 53 55 58 60 62 63 65 67 68 73 75 77 80 76 77 76
58 56 54 53 51 50 47 45 45 46 47 48 49 49 49 48 48 49 49 50 50 52 52 52 55 57 58 58 60 62 64 64 67 71 73 74 78 81 85 86 83 75 71
64 63 62 61 59 57 56 55 55 54 54 55 56 56 57 56 56 57 57 56 56 57 57 59 61 62 62 63 66 69 70 72 73 77 80 82 83 85 85 85 82 71 62
68 68 66 65 65 64 64 63 61 62 62 62 62 62 63 63 63 63 62 63 62 62 63 64 65 67 69 72 74 76 76 78 80 83 86 85 85 87 86 85 69 64 60
70 70 70 69 68 68 67 67 65 65 65 66 67 67 67 67 67 67 67 68 69 69 70 71 73 75 77 78 80 81 83 85 87 88 89 89 91 88 79 75 66 65 64
76 75 75 74 74 73 71 70 70 70 69 69 69 70 71 71 72 72 73 74 74 75 77 79 81 81 83 85 86 89 90 92 93 94 94 95 92 87 79 75 76 77 80
84 83 83 83 81 79 78 77 76 75 75 75 76 75 75 77 79 79 80 80 81 83 84 86 87 88 89 91 93 95 95 96 97 98 93 87 87 79 75 70 67 74 78
92 92 92 91 88 87 85 84 83 84 84 84 83 83 82 82 83 84 85 85 86 87 88 89 90 91 92 94 95 98 101 98 99 94 92 92 83 72 69 71 73 77 87
96 97 96 96 95 93 92 90 89 89 89 89 89 89 90 91 91 91 91 91 91 93 94 95 95 98 99 99 101 102 100 98 96 95 99 89 78 78 77 77 84 85 94

GFSGL_250_spd_042.txt.gz
Wind_Speed
29 29 28 28 27 28 25 26 25 22 20 21 18 16 15 15 13 13 14 13 15 19 24 25 26 29 34 27 24 26 28 30 32 38 41 42 36 35 24 17 15 16 16
32 31 32 31 31 30 29 28 27 24 25 24 23 19 18 17 15 15 16 17 17 21 25 26 27 28 33 28 24 27 28 28 31 38 39 40 40 34 31 28 22 14 11
33 33 35 35 34 34 34 32 29 29 28 28 25 20 18 17 16 15 15 17 20 22 24 26 26 27 32 30 26 26 29 28 30 37 40 38 37 36 27 24 23 17 12
36 39 38 40 39 37 36 36 33 33 33 32 28 23 17 16 15 12 14 17 21 21 22 23 24 26 29 31 28 26 26 26 29 32 35 37 37 35 32 26 14 12 12
33 38 41 42 42 40 40 39 37 36 35 34 31 26 21 18 17 18 19 21 22 22 23 23 24 24 27 29 28 26 24 22 24 25 27 30 32 31 30 31 28 20 15
37 35 37 39 41 44 44 42 42 40 38 36 35 32 26 24 23 21 22 22 23 23 23 26 24 23 26 31 30 27 24 23 23 25 24 26 28 26 27 28 30 29 28
40 38 36 36 43 42 43 44 43 42 41 38 38 36 32 28 26 26 26 25 25 24 24 23 23 24 28 31 31 28 24 23 23 26 26 26 26 24 28 30 29 27 31
45 42 41 37 37 41 44 46 45 44 42 42 40 38 36 33 30 30 30 28 26 25 24 25 25 26 28 31 34 29 21 23 21 22 22 22 22 22 22 24 25 28 32
47 45 44 43 36 37 42 42 47 45 44 42 41 40 40 38 35 33 33 32 31 30 29 29 31 31 30 32 36 34 26 25 25 24 20 20 21 22 23 24 26 28 31
50 49 47 44 41 38 38 38 37 46 46 45 43 43 41 40 39 37 36 37 37 33 32 35 36 36 34 34 37 37 31 25 27 28 26 24 24 26 27 29 30 33 34
51 53 53 48 45 42 36 34 37 41 47 49 48 46 45 44 43 42 41 40 43 40 37 38 39 38 39 39 39 41 35 29 28 31 34 32 30 31 34 37 40 44 45
50 50 53 51 49 46 41 38 35 39 45 52 51 50 48 48 47 47 46 47 47 47 44 42 42 41 41 43 43 44 41 33 32 34 36 36 35 34 36 39 42 47 55
49 51 52 54 53 51 48 45 42 37 41 46 51 51 52 52 52 52 50 49 49 50 48 46 45 46 45 46 46 46 41 37 35 36 39 40 39 40 41 44 47 50 54
46 47 48 51 54 56 54 51 48 46 42 43 49 54 55 55 56 54 52 52 50 51 48 47 48 50 51 50 50 45 41 40 39 38 42 44 44 44 46 49 51 53 55
47 48 50 53 54 54 56 55 54 54 53 49 47 47 51 53 52 51 50 50 48 47 48 51 52 54 54 55 51 43 42 41 41 42 44 46 48 48 52 55 55 57 60
47 47 47 49 53 54 55 58 58 57 56 54 51 48 45 47 47 47 47 47 48 49 52 54 55 56 60 54 48 48 46 45 46 47 47 50 52 53 56 59 60 60 67
50 47 46 46 48 50 54 55 56 58 57 54 53 51 51 53 54 54 53 52 52 55 57 57 62 57 52 49 47 48 48 49 50 51 52 54 56 57 61 65 66 67 70
53 51 48 46 44 46 51 54 57 59 60 60 60 58 57 56 57 58 57 58 60 61 57 51 47 45 45 46 47 50 52 54 55 56 58 59 62 65 67 71 72 75 76
57 55 52 50 49 47 45 46 48 51 52 52 52 53 53 53 53 53 51 48 46 44 44 45 47 48 50 51 53 55 56 57 59 61 63 65 68 71 74 76 78 81 82
62 61 60 59 57 54 52 50 49 48 47 47 46 45 46 45 45 46 48 49 50 51 52 53 54 55 56 56 58 59 60 62 64 67 69 72 75 77 79 82 83 83 88
67 66 67 66 65 63 61 59 58 58 56 53 52 52 53 53 53 54 55 57 59 60 60 61 62 62 61 61 63 65 67 69 71 73 75 79 82 83 83 86 90 89 91
75 75 74 72 71 70 69 69 67 66 64 63 62 61 61 61 61 61 61 63 63 64 65 65 67 67 68 68 70 71 72 75 76 78 82 84 85 88 89 90 92 94 92
84 83 81 80 78 77 73 72 71 70 71 71 70 69 67 67 67 67 67 67 67 68 70 70 71 72 73 74 76 77 79 80 82 83 84 85 88 90 92 95 96 92 91
89 88 86 80 79 78 77 78 80 80 79 77 76 74 73 73 72 71 71 72 72 72 73 73 75 76 78 79 81 82 83 85 85 87 88 91 92 93 94 97 95 92 87
95 94 92 86 83 84 83 83 83 83 82 81 80 79 79 79 79 79 79 79 79 79 79 80 81 82 83 84 86 87 88 90 91 92 91 91 92 91 93 92 90 81 77
101 101 99 95 90 90 91 90 89 90 90 89 85 86 84 84 84 84 84 84 85 86 87 88 88 88 89 90 90 90 90 92 93 94 89 87 91 88 89 81 80 77 76

GFSGL_250_spd_045.txt.gz
Wind_Speed
25 29 28 26 25 26 24 22 22 21 18 16 16 15 13 13 13 13 13 15 15 15 18 21 21 22 23 27 26 22 24 27 30 33 33 31 28 26 25 25 25 22 16
24 28 31 29 28 28 26 24 24 23 20 20 19 18 16 15 15 16 14 15 15 16 19 20 20 21 21 24 25 22 24 23 27 32 32 32 28 23 21 17 18 19 17
25 27 30 32 32 31 28 26 26 25 23 24 23 22 20 18 16 17 14 13 13 17 19 19 19 19 19 21 25 23 22 22 22 26 29 29 27 27 27 22 14 14 16
29 30 33 35 36 34 32 31 28 27 27 27 26 26 25 20 17 16 13 13 15 18 20 20 21 19 19 19 22 25 21 24 22 21 25 26 24 25 28 29 26 18 13
32 32 33 36 34 35 36 35 33 32 31 30 30 29 28 26 22 18 18 19 20 21 22 21 23 21 21 19 19 23 22 22 23 20 20 21 20 21 22 22 26 28 22
36 37 35 33 34 37 36 39 37 36 35 35 34 32 33 32 29 24 23 24 24 23 23 23 25 25 20 21 21 23 26 20 22 22 19 17 18 20 21 22 22 24 27
38 38 36 35 31 34 36 38 40 40 39 40 37 37 34 34 35 32 29 29 27 26 25 25 26 25 23 24 23 22 24 24 23 23 20 17 16 16 15 17 19 22 26
37 40 40 38 36 31 32 40 38 39 43 43 41 39 38 37 37 37 35 33 31 30 29 28 27 28 27 27 28 25 25 27 25 26 27 23 18 16 15 16 17 21 27
39 41 42 41 39 38 37 34 35 40 40 45 44 43 41 40 40 39 39 38 36 34 33 32 29 30 31 31 32 31 27 29 30 29 29 29 26 23 22 22 21 24 28
41 43 43 44 43 42 40 36 33 35 40 41 47 47 46 44 42 41 42 41 40 39 38 36 34 33 33 33 35 34 33 31 33 35 32 35 33 29 26 26 28 31 30
43 45 44 44 45 44 42 38 38 36 36 41 43 48 49 48 46 43 43 43 43 43 42 40 38 37 40 39 39 37 36 36 38 39 38 36 36 34 32 31 31 33 36
45 44 44 46 46 46 45 42 41 41 40 39 42 45 48 48 48 47 46 48 48 49 47 45 43 41 43 45 43 40 40 40 42 42 42 41 37 37 36 34 36 37 39
48 48 46 47 47 47 49 49 47 47 45 43 41 42 43 44 45 47 50 52 53 53 50 47 47 46 47 48 46 43 43 44 43 45 41 40 39 41 40 38 41 41 43
47 46 47 48 48 49 50 51 53 53 51 49 47 45 41 40 44 48 52 56 58 52 48 50 51 51 51 51 48 46 46 47 46 48 44 41 41 41 42 42 44 45 47
44 46 45 44 46 47 50 53 56 56 54 53 52 50 49 49 45 44 48 50 49 49 50 51 54 54 52 50 48 48 50 51 50 50 46 45 44 44 43 44 46 48 51
45 45 42 40 42 45 47 49 52 55 56 56 56 56 56 54 51 47 46 45 47 49 51 52 51 50 50 50 51 52 53 52 48 45 44 45 47 48 48 49 51 53 56
48 43 43 46 37 27 47 48 48 51 54 56 57 58 58 57 55 54 53 49 48 47 46 48 49 52 53 53 55 53 50 44 42 42 44 46 48 51 52 53 55 58 62
51 46 37 50 49 54 50 50 52 49 49 51 54 56 57 58 57 53 51 50 48 49 49 50 51 54 56 55 53 49 45 45 45 46 48 49 51 52 54 56 59 63 66
57 56 58 62 58 53 53 56 53 48 47 49 51 53 55 56 58 58 57 56 56 57 57 57 59 56 52 47 46 46 48 49 51 54 54 54 55 57 60 62 65 67 70
61 59 60 61 59 60 60 58 53 52 50 49 50 51 51 52 54 55 56 56 52 50 48 45 45 45 47 49 51 53 55 57 58 58 59 59 60 62 65 67 69 73 74
66 65 66 65 65 63 61 59 56 54 53 51 51 50 50 51 51 51 50 50 49 50 49 49 51 52 53 55 57 58 59 60 62 63 64 66 67 69 70 72 74 74 76
72 72 71 69 69 67 65 64 62 61 60 59 58 57 56 57 57 57 57 58 58 58 58 58 58 58 60 62 62 63 65 66 68 69 70 71 72 73 74 76 77 79 81
79 76 75 74 74 73 71 70 70 69 69 67 66 65 66 66 65 64 64 64 64 65 65 65 65 65 66 66 67 68 70 71 72 73 75 76 77 79 80 81 81 82 81
84 82 80 80 80 80 79 78 77 75 75 74 73 72 71 70 69 70 70 70 70 70 71 71 71 72 73 73 75 75 76 78 78 79 79 82 84 84 85 86 86 82 82
89 89 88 88 87 88 88 86 83 82 81 79 77 77 77 77 76 76 75 75 75 76 77 78 78 78 79 80 81 82 83 82 83 83 84 86 89 90 89 88 89 86 89
95 94 95 95 96 96 95 94 92 90 88 85 83 82 82 83 83 81 80 80 81 82 83 83 83 84 85 85 87 87 87 88 89 90 90 90 90 91 92 92 93 91 83

GFSGL_250_spd_048.txt.gz
Wind_Speed
21 23 25 24 25 24 26 24 23 22 20 17 15 14 12 10 9 9 11 11 13 14 16 17 19 19 19 20 22 26 25 24 28 30 32 25 23 20 18 17 19 19 19
24 25 26 28 25 28 27 27 26 25 24 22 19 17 16 14 12 12 11 14 14 13 13 17 18 18 18 19 19 22 24 23 24 26 29 27 22 26 24 20 20 18 17
25 25 24 25 30 30 30 29 29 27 26 25 22 20 20 19 16 13 12 12 13 12 14 17 19 19 18 19 18 19 22 24 22 24 26 28 22 22 21 23 19 19 17
28 26 24 25 29 32 32 31 30 30 29 26 24 23 22 21 20 16 15 14 14 15 18 19 20 19 19 20 18 18 19 22 23 20 22 24 24 22 18 19 19 21 20
31 32 31 31 29 28 31 34 34 33 31 29 28 26 25 24 25 22 19 19 19 20 21 21 22 21 21 21 17 19 20 20 22 21 18 18 20 19 18 19 15 17 19
33 34 33 32 30 29 32 35 36 37 35 33 33 30 27 28 28 29 27 25 25 24 25 25 24 24 23 21 20 21 21 21 20 21 21 20 18 20 21 18 18 15 15
34 34 34 35 33 32 32 34 37 37 34 38 37 36 33 31 31 31 33 34 32 29 29 29 28 27 26 25 24 23 24 24 23 23 22 23 22 20 20 18 16 17 14
34 33 34 36 38 37 34 33 36 38 38 36 37 39 37 35 34 34 33 34 34 34 33 33 31 31 30 29 29 27 28 28 27 28 26 26 25 25 24 23 25 27 26
35 35 34 35 37 39 38 40 38 34 35 35 35 36 39 39 39 38 39 38 37 37 37 37 36 35 33 32 33 32 32 32 32 34 33 32 32 31 29 31 28 29 32
39 39 38 36 36 41 42 41 40 38 35 30 34 41 39 41 44 44 43 41 41 39 40 41 40 39 38 36 36 37 38 36 36 38 37 36 35 37 36 35 35 34 33
39 38 38 37 38 39 40 41 42 40 40 39 37 36 39 42 43 46 48 47 45 43 43 44 43 43 42 41 40 41 42 41 41 40 41 41 40 42 43 37 35 35 36
41 40 39 40 39 38 40 41 42 42 42 42 41 41 37 38 41 44 48 50 49 50 49 48 48 48 46 45 44 44 46 45 46 45 44 42 43 46 42 38 39 42 45
44 43 39 41 42 40 41 41 43 44 45 45 44 42 41 39 39 41 46 49 49 50 51 53 55 53 47 47 47 46 48 48 48 49 46 43 45 44 42 48 49 46 46
46 45 43 42 44 45 43 43 43 44 46 47 48 47 47 44 42 41 41 43 45 48 49 49 51 53 50 48 48 48 49 50 50 46 44 44 48 47 52 53 50 50 49
49 46 44 44 42 43 43 43 45 46 47 48 51 52 53 50 49 49 48 47 46 45 43 42 43 46 46 46 49 51 51 50 46 44 45 48 49 52 53 47 46 46 48
50 47 46 42 42 43 42 42 45 48 50 50 51 53 57 57 56 55 52 51 51 49 48 48 46 46 47 48 50 50 47 46 47 47 50 53 54 53 46 43 44 46 48
53 50 55 48 45 44 40 40 43 47 51 50 49 50 55 56 57 58 58 57 55 53 53 54 53 53 51 47 46 46 48 49 50 52 54 55 50 45 45 45 48 50 51
57 41 48 46 48 45 37 41 46 51 41 46 45 47 47 50 55 54 55 59 58 57 56 55 55 54 53 50 49 48 51 53 55 54 50 45 45 47 49 52 54 56 57
61 62 66 56 50 45 41 44 54 47 61 48 46 43 43 46 48 50 53 55 56 55 56 56 55 53 52 52 53 54 55 52 48 46 46 47 50 53 54 55 55 56 57
66 65 60 53 50 45 53 53 62 58 58 56 59 50 46 48 48 49 49 52 55 56 57 58 59 59 59 57 53 49 47 48 49 50 52 53 55 56 57 58 59 60 63
70 71 69 65 58 60 64 60 70 73 69 74 68 58 54 54 53 52 52 52 52 53 53 53 52 52 51 51 52 52 52 53 55 57 59 60 60 61 62 64 66 67 67
79 78 77 76 73 75 80 77 78 78 80 75 69 65 62 59 59 59 58 56 56 55 55 54 54 54 55 55 55 57 60 62 63 63 63 64 65 66 68 69 70 73 75
84 83 80 81 82 82 83 81 80 79 86 82 78 72 69 66 65 67 66 65 63 62 62 62 62 62 63 64 66 68 69 67 66 68 68 69 71 72 74 75 75 76 77
91 91 88 85 82 82 85 84 86 89 89 86 83 80 77 75 74 73 71 70 70 69 69 69 70 70 71 71 71 71 72 71 72 73 75 76 77 78 78 79 81 82 81
94 92 87 88 89 88 86 86 86 86 87 87 86 84 82 80 79 77 75 75 75 75 74 74 74 73 73 75 77 77 78 78 78 79 80 81 82 85 86 87 87 86 85
98 95 92 91 91 89 89 89 88 86 85 83 83 83 83 82 81 80 80 79 78 79 78 78 78 78 79 81 83 83 84 83 84 85 86 87 88 91 93 93 93 92 92

GFSGL_250_spd_051.txt.gz
Wind_Speed
23 22 19 22 23 21 23 23 22 21 19 16 13 12 13 13 12 9 9 10 10 12 13 13 17 17 17 18 19 21 25 28 27 26 26 26 23 23 24 23 20 17 19
24 26 26 24 23 27 26 25 27 25 24 22 18 16 17 17 16 14 10 11 10 11 10 12 16 19 17 17 18 18 20 23 24 24 25 26 23 18 19 20 18 15 14
23 27 27 27 27 29 30 29 29 27 27 26 23 21 21 20 19 18 15 12 10 10 10 12 15 18 18 17 19 13 18 21 22 23 22 24 25 22 19 16 15 13 14
23 26 29 28 29 30 28 29 30 28 26 26 24 24 25 23 23 22 21 16 13 12 15 15 16 19 20 20 16 14 15 17 19 22 23 21 21 24 23 19 16 15 10
29 28 30 32 29 27 27 29 31 30 29 28 27 27 27 27 26 26 26 23 18 16 16 18 20 21 22 21 20 18 17 16 17 19 21 23 23 21 22 23 19 14 16
35 33 30 32 31 30 28 28 29 31 31 31 30 29 29 28 28 31 30 28 26 23 22 23 23 25 26 25 23 22 21 20 19 19 20 21 21 23 22 21 24 25 23
39 35 32 31 34 36 36 32 30 33 31 32 31 33 34 32 32 33 33 33 32 31 29 29 28 27 28 28 28 26 25 24 23 22 22 24 27 25 25 26 23 26 29
41 39 35 31 34 34 35 37 35 34 33 32 32 36 36 36 36 37 37 36 36 34 31 31 31 31 31 33 34 33 32 30 29 29 30 29 29 30 31 31 31 30 29
46 43 40 37 33 33 34 37 39 38 34 33 32 35 37 37 36 37 40 40 39 37 36 34 35 35 35 37 38 37 38 36 35 34 34 34 34 34 35 35 36 35 35
49 48 42 36 33 34 35 36 37 38 38 36 30 31 36 38 40 40 40 39 41 41 41 40 39 39 39 40 41 41 41 39 39 39 39 40 39 40 40 38 37 38 36
53 47 43 40 38 39 36 36 37 39 40 39 37 34 37 37 36 41 44 44 42 42 44 45 45 44 44 44 44 45 44 44 42 43 42 42 42 44 44 41 39 37 33
54 50 45 44 41 39 40 39 40 40 42 43 42 43 43 42 43 41 40 40 41 43 45 46 48 48 48 49 50 48 47 46 47 48 46 45 45 46 46 43 40 38 38
53 51 50 47 42 42 42 41 42 42 42 41 45 47 47 47 47 46 45 41 37 38 40 42 44 46 48 47 49 49 48 50 51 52 51 50 48 48 46 43 42 42 48
59 55 52 48 47 45 43 42 41 43 42 41 41 42 44 44 45 47 48 46 42 41 40 38 38 39 36 32 36 37 39 43 47 52 52 51 51 49 45 43 46 48 52
61 57 56 53 52 48 44 43 42 40 42 42 43 44 43 44 45 47 49 49 49 49 46 45 44 42 41 39 40 42 43 43 45 50 51 50 47 44 46 48 50 53 54
62 61 59 58 55 49 47 46 44 44 44 43 42 44 45 46 48 51 51 52 52 52 51 51 50 48 46 45 47 47 48 50 51 50 47 45 44 47 49 52 54 55 50
63 63 63 61 57 53 52 50 48 49 47 44 44 45 47 50 51 50 53 56 53 47 51 55 57 55 56 54 54 54 53 54 54 50 49 47 46 52 54 56 54 48 47
69 68 66 62 63 60 58 53 48 46 45 47 47 46 41 42 52 48 49 35 55 53 49 49 53 57 56 57 56 53 51 51 49 48 49 53 55 55 52 49 47 48 50
71 71 70 65 66 63 59 55 53 51 48 46 42 43 45 50 48 56 55 52 53 48 48 47 49 51 51 51 54 54 55 57 59 60 57 55 52 48 47 48 50 52 55
69 75 76 72 69 65 63 59 55 53 50 53 50 51 52 44 44 53 52 48 46 47 48 49 46 47 48 49 50 51 53 55 55 53 50 48 48 49 51 54 56 58 60
71 70 71 72 75 71 66 60 56 52 52 59 53 56 51 48 60 54 56 59 57 49 52 54 53 53 52 52 53 53 53 52 51 51 51 52 54 56 59 63 65 64 65
68 70 75 71 70 69 69 67 62 60 62 60 64 69 57 63 67 71 73 75 78 70 59 62 64 60 60 58 57 59 59 58 57 57 57 58 60 64 69 69 68 68 70
74 79 76 72 73 74 70 68 71 68 65 71 75 77 67 73 73 75 76 78 81 79 71 68 69 68 64 62 63 66 67 65 64 64 65 66 68 69 71 72 72 74 75
85 86 80 76 74 73 70 72 72 73 69 70 81 80 83 84 85 80 83 85 78 77 78 76 74 74 71 69 70 72 71 70 71 71 71 70 71 73 75 77 77 78 79
78 87 92 90 84 80 77 74 72 76 79 80 77 80 86 86 89 86 84 83 81 81 84 86 84 79 77 78 76 75 75 75 76 76 76 76 78 80 81 84 83 83 83
98 88 93 93 91 88 86 80 80 80 79 79 80 81 85 87 91 94 95 96 93 91 91 88 85 84 84 85 84 85 84 82 82 82 83 84 85 86 89 89 89 90 91

GFSGL_250_spd_054.txt.gz
Wind_Speed
25 24 26 28 28 26 25 24 22 20 19 16 14 12 12 10 11 12 11 11 11 10 10 10 13 17 18 18 21 19 23 25 27 29 27 24 20 21 21 21 19 15 14
22 25 26 26 24 26 27 26 25 24 23 21 19 17 15 15 14 14 14 13 11 11 8 6 10 13 16 17 18 16 19 20 21 23 25 26 25 22 20 17 16 16 16
22 23 24 28 29 29 29 28 26 25 25 23 21 19 20 20 18 17 18 17 14 12 11 9 9 11 13 15 16 16 16 17 18 20 21 22 24 25 24 23 20 18 14
24 21 24 28 29 30 30 29 28 26 24 24 21 21 21 22 21 20 21 21 20 18 16 14 13 13 13 14 15 16 16 16 17 19 20 22 22 23 24 24 24 23 20
30 25 25 26 26 26 27 28 29 27 26 25 23 23 22 22 22 23 24 24 25 24 23 20 18 18 18 16 16 17 18 18 18 19 20 22 24 25 24 25 24 25 27
37 34 29 26 25 28 29 29 29 29 28 26 27 26 26 25 24 25 27 26 27 27 27 28 26 26 25 24 22 21 21 21 22 21 21 23 24 26 28 27 26 26 26
40 39 34 31 29 28 29 29 29 30 30 31 30 29 29 27 28 28 29 29 29 30 30 31 32 31 31 32 30 28 27 27 27 27 25 23 22 24 26 30 30 30 31
42 42 39 35 34 32 31 33 34 34 34 34 32 31 31 31 30 30 30 32 33 33 33 33 34 34 34 33 34 32 32 32 30 30 31 30 30 30 29 31 33 36 35
46 45 43 40 38 36 35 34 33 33 35 36 36 34 33 32 32 34 34 36 36 34 35 36 36 37 37 37 38 38 38 36 34 35 36 35 35 35 32 34 34 36 40
52 51 45 42 41 38 36 33 31 31 34 35 36 35 36 35 34 35 35 36 37 37 38 37 38 38 38 40 42 42 42 40 40 39 39 39 38 38 36 36 37 39 40
59 51 47 46 44 42 37 35 35 34 34 36 37 38 39 39 37 38 37 36 36 35 37 39 39 41 42 42 42 43 42 42 42 42 43 44 44 44 43 42 40 40 42
62 56 51 50 47 44 41 38 37 37 36 37 38 38 39 40 40 41 40 39 39 38 40 39 39 39 38 39 41 40 39 38 39 40 40 41 43 45 44 45 43 42 42
65 60 56 53 50 46 45 43 41 40 39 39 37 38 38 39 40 40 41 43 43 45 46 44 42 40 38 38 36 32 29 28 29 33 36 37 39 41 45 46 44 45 39
68 64 60 56 53 48 49 47 46 43 43 40 39 40 38 38 38 38 40 43 46 47 47 47 45 44 44 41 38 36 35 36 39 41 42 40 41 43 44 45 45 43 41
70 67 63 58 56 52 55 52 50 48 45 43 42 40 38 40 41 40 41 43 45 46 45 44 47 48 47 46 45 44 44 45 47 48 48 48 49 49 48 44 42 42 43
74 69 66 60 60 59 59 57 53 51 50 46 44 42 41 41 43 45 46 48 46 45 45 45 45 45 42 41 41 42 43 45 45 47 48 49 49 49 46 44 42 42 46
75 71 67 65 64 62 61 59 56 55 53 49 47 45 44 44 43 44 43 43 45 42 45 47 49 47 44 39 41 42 40 39 40 42 42 42 43 47 50 50 49 48 46
75 71 67 68 64 64 64 62 60 59 56 56 52 49 48 48 44 40 37 38 38 40 41 42 45 41 45 47 47 44 39 38 41 39 40 41 41 42 44 46 45 43 40
78 70 69 66 65 65 68 66 65 61 58 60 57 54 50 45 40 38 36 38 37 40 38 44 49 55 61 57 55 47 42 41 43 45 46 43 44 44 44 46 46 46 45
74 71 71 65 63 62 63 68 68 62 63 64 59 54 53 49 43 42 37 34 33 36 42 42 54 57 63 60 55 52 56 50 51 51 52 50 49 49 47 51 50 50 51
69 70 68 69 67 64 60 61 63 65 65 64 60 60 61 54 57 49 41 39 47 53 38 23 38 56 73 67 65 65 79 65 59 56 57 56 56 54 51 52 57 57 57
77 74 70 64 62 65 68 73 73 70 67 69 68 68 65 61 60 58 49 56 54 50 40 51 66 69 71 74 78 81 75 80 70 66 66 65 62 59 56 57 60 61 64
71 68 66 68 65 66 69 69 71 71 71 72 75 76 71 67 65 62 59 53 60 57 62 65 73 80 82 81 83 80 80 80 73 69 73 71 68 65 62 59 63 69 71
77 73 67 66 70 71 69 69 73 72 71 69 66 75 71 70 68 67 63 64 64 69 73 76 77 85 87 84 87 87 90 88 82 83 78 74 71 70 70 69 72 76 80
87 82 80 76 72 68 61 63 55 61 67 74 70 72 71 70 73 79 79 71 70 72 80 79 82 87 90 91 90 90 90 90 93 91 88 85 83 82 83 86 84 85 87
88 89 86 86 81 80 69 60 56 74 74 71 73 73 75 75 79 82 82 79 78 82 81 79 84 85 83 89 94 95 97 97 96 96 97 96 95 93 94 94 93 93 94

GFSGL_250_spd_057.txt.gz
Wind_Speed
22 21 28 32 33 31 31 28 25 23 19 17 16 13 12 11 11 9 7 6 7 9 9 6 10 12 15 17 18 17 18 21 22 24 24 25 24 22 21 19 19 20 17
24 22 25 29 30 33 32 31 29 28 25 23 21 18 17 14 12 12 12 9 8 9 10 9 7 8 11 14 16 17 17 17 19 21 22 22 22 22 21 21 20 19 18
23 23 25 28 31 33 33 33 33 32 30 28 25 23 21 19 17 15 15 14 12 11 12 12 13 12 11 12 13 14 16 17 18 18 18 20 21 22 23 23 22 22 22
27 25 26 28 28 27 30 32 32 32 30 29 26 25 24 22 20 18 19 17 15 15 15 16 17 17 16 15 14 15 15 16 17 18 18 20 21 21 21 22 23 26 27
32 30 25 25 25 25 27 26 26 25 26 26 24 26 25 23 21 20 20 19 18 18 18 19 20 21 22 21 21 22 22 21 20 18 18 20 21 21 22 24 24 24 24
36 35 30 26 23 26 26 26 25 26 26 27 27 25 26 25 23 24 25 23 22 20 21 22 22 22 25 25 26 26 25 25 25 23 22 21 21 22 24 26 28 29 30
42 39 37 33 30 29 27 28 28 27 25 28 29 30 29 29 27 28 29 28 27 25 24 24 26 27 27 28 29 29 29 29 29 29 27 28 27 26 26 27 29 31 31
48 43 41 40 37 34 30 30 29 28 27 27 26 28 29 29 29 30 30 29 28 27 26 27 28 29 31 31 31 32 32 32 32 33 32 32 31 29 28 29 31 32 34
53 50 45 42 41 38 36 32 30 29 29 29 29 28 30 30 31 31 32 33 32 31 31 30 30 31 31 33 33 33 34 34 34 35 35 34 32 31 31 31 33 34 36
63 58 52 45 45 43 39 37 34 32 31 29 28 28 28 29 30 31 32 33 32 30 31 29 28 28 29 32 33 34 34 35 36 35 34 33 32 32 33 33 35 37 37
66 66 54 51 47 45 41 40 39 36 32 31 31 30 30 30 31 32 33 34 35 31 31 31 30 30 31 32 33 33 32 31 30 30 28 29 29 30 29 29 31 32 34
59 61 58 54 50 48 45 43 41 39 35 35 35 33 34 33 31 30 32 35 36 32 33 34 34 34 35 34 34 33 34 33 29 27 28 31 34 35 37 39 40 39 38
51 54 55 58 53 51 49 45 43 41 40 39 38 38 36 34 33 32 33 35 36 34 34 35 35 34 35 35 36 36 35 34 35 35 36 37 38 40 43 44 45 43 39
73 65 58 58 57 56 52 48 46 45 44 43 42 43 40 36 36 35 34 34 36 37 36 34 33 34 34 34 34 32 31 33 34 35 38 40 40 40 39 41 42 40 39
86 76 72 67 66 62 56 52 50 48 47 48 48 46 43 41 41 38 36 34 34 38 36 34 35 36 33 33 34 31 28 27 28 30 35 36 35 33 36 36 36 37 39
94 86 79 75 72 67 59 56 55 55 53 53 51 50 48 48 46 42 39 36 36 36 33 33 34 33 33 36 35 28 29 28 27 29 31 29 26 29 30 32 33 35 37
96 92 85 80 75 70 63 60 60 60 58 55 52 51 51 51 48 45 42 40 40 37 36 35 34 34 35 36 37 30 29 29 29 32 34 25 27 31 32 32 35 36 40
96 94 88 82 77 72 67 63 64 65 60 57 55 51 53 53 52 51 46 43 44 44 41 38 39 39 39 38 37 36 37 39 40 38 38 31 36 42 41 40 40 43 39
98 95 87 82 77 73 71 67 68 67 61 60 58 56 55 57 57 54 50 45 45 43 38 34 28 28 35 34 32 44 50 53 52 50 44 44 39 55 57 56 52 45 45
98 94 88 84 79 75 72 72 71 67 63 62 59 56 59 60 60 56 55 51 50 46 42 39 26 24 33 29 32 72 68 53 55 53 52 54 57 63 65 62 53 48 54
99 94 89 88 81 75 69 67 62 62 60 56 54 53 61 63 62 61 58 55 50 47 48 51 50 40 46 36 44 57 69 67 67 56 59 64 65 73 72 70 66 60 64
97 93 91 89 84 73 69 68 65 56 58 59 55 59 55 62 62 66 64 61 56 56 54 50 54 54 47 52 56 54 53 54 60 63 64 67 74 75 74 73 70 72 74
94 89 87 84 78 73 69 66 62 56 50 53 61 55 58 62 63 64 61 61 62 62 61 63 62 66 61 58 54 55 58 59 67 69 73 78 81 83 81 79 81 85 84
94 91 85 74 72 73 68 63 63 61 65 68 63 59 61 68 70 71 74 75 70 68 66 70 67 66 66 65 59 63 68 72 79 83 83 85 84 85 86 84 85 90 95
77 87 89 80 74 69 72 66 65 63 67 72 75 77 78 81 85 82 79 74 72 75 69 68 69 71 68 74 78 75 72 77 83 87 86 84 83 88 90 89 93 97 97
91 83 83 84 84 81 63 63 62 64 72 80 83 83 81 83 84 82 82 83 77 72 72 71 71 71 72 75 80 84 85 88 89 87 86 89 91 91 92 97 100 100 102

GFSGL_250_spd_060.txt.gz
Wind_Speed
25 25 29 32 31 33 32 29 26 23 22 19 18 16 13 11 10 9 8 8 9 10 10 8 9 11 12 14 16 17 19 20 21 21 21 21 21 21 20 18 18 18 17
23 25 23 30 32 31 32 32 31 28 26 25 22 20 18 15 14 12 11 9 10 11 11 10 10 11 13 13 14 16 16 17 18 19 20 21 21 19 18 18 20 21 21
25 23 24 26 33 35 34 32 31 31 30 29 26 23 23 21 18 17 17 15 13 13 12 13 13 12 13 15 16 17 18 20 21 21 19 20 21 21 20 21 21 22 23
26 26 27 25 25 29 30 32 32 30 29 29 27 25 25 24 23 21 21 20 17 16 16 15 15 15 15 16 18 21 22 23 23 21 19 18 18 19 20 22 24 23 25
33 30 27 25 23 22 27 28 29 31 31 30 29 26 25 23 24 24 22 21 20 19 19 19 18 18 18 17 18 20 20 21 22 21 23 23 24 22 22 25 26 27 26
40 37 31 30 28 29 26 25 24 24 23 24 24 23 23 21 21 23 24 22 22 23 22 23 22 22 22 21 22 22 21 23 23 22 24 25 26 25 26 28 28 30 32
39 41 37 33 33 31 29 27 27 27 25 24 24 25 25 24 24 25 26 26 26 25 25 25 25 24 25 26 26 26 25 25 25 26 26 26 26 26 26 27 28 31 34
45 45 44 37 36 36 32 31 29 30 30 28 26 24 23 23 21 24 26 27 26 26 26 27 27 28 30 30 27 25 25 27 27 28 28 27 27 26 28 29 30 31 31
47 52 50 47 39 41 39 33 26 23 22 26 26 24 23 23 23 23 25 28 28 27 26 27 27 27 28 26 24 23 23 22 24 26 25 25 25 25 27 27 27 27 29
53 54 56 55 45 45 45 37 30 26 25 21 22 24 24 23 22 22 24 26 26 24 25 28 27 25 25 25 25 25 25 21 24 23 25 24 23 25 24 26 28 32 34
61 57 55 55 51 47 43 39 35 31 29 27 25 24 25 24 23 24 25 25 27 25 25 27 27 27 27 28 28 27 25 25 25 23 24 22 25 26 28 30 32 35 36
49 57 53 54 53 55 50 41 40 35 32 32 28 28 29 27 27 27 27 29 28 29 30 28 29 28 29 28 30 29 26 26 25 24 24 24 25 28 28 29 31 29 30
58 52 56 50 52 53 52 56 43 40 37 36 34 33 34 32 30 30 29 30 30 30 28 28 30 29 30 30 30 28 27 25 25 23 22 21 22 21 21 20 19 20 24
71 67 66 59 59 57 60 51 48 43 43 40 37 36 36 35 36 36 34 32 32 32 31 27 29 30 30 33 31 32 31 25 23 21 20 21 18 17 15 18 16 19 22
61 74 72 69 64 61 60 56 57 50 46 44 42 40 40 39 40 39 38 36 36 37 35 33 32 30 31 31 32 34 33 27 23 24 25 20 18 20 18 18 24 24 28
85 73 74 67 63 67 65 57 59 54 51 49 45 44 43 43 43 43 41 40 39 38 37 37 36 33 33 34 34 34 32 34 30 27 21 22 22 23 25 28 30 32 40
94 86 78 68 61 65 63 63 58 53 51 48 48 49 47 48 48 46 46 44 40 40 41 40 40 36 37 37 36 37 35 35 36 32 28 24 25 29 37 37 37 37 45
105 96 87 76 72 70 69 66 62 58 57 53 53 53 52 52 52 51 49 47 47 44 45 46 43 41 39 38 38 38 35 34 35 39 44 39 35 41 41 41 44 47 51
113 107 100 99 91 85 81 80 78 69 65 60 60 59 59 58 57 54 53 53 52 50 48 47 48 45 39 34 34 36 32 38 40 32 36 37 42 44 42 50 50 52 58
116 113 104 103 105 99 96 95 90 80 74 68 68 66 65 62 60 58 58 58 57 55 55 52 47 46 43 42 40 36 41 39 41 48 44 41 43 48 51 60 64 66 63
121 119 113 106 108 105 104 99 88 81 78 75 70 69 69 63 60 63 65 61 58 56 54 56 53 50 45 44 45 48 49 50 51 54 59 61 63 71 67 66 70 72 66
130 126 119 112 109 111 107 102 93 88 82 78 74 74 72 63 57 62 63 58 61 56 58 55 55 53 52 50 53 53 53 54 54 54 60 59 64 68 70 73 77 73 74
133 130 123 115 109 113 112 105 95 92 88 85 77 73 68 60 54 57 58 59 59 53 44 54 60 60 59 59 57 59 65 67 68 67 68 69 72 74 75 76 77 73 71
124 127 124 120 113 113 113 107 99 95 90 85 79 77 72 63 62 62 57 59 67 67 65 68 70 72 71 71 72 73 74 72 71 71 72 70 71 72 75 76 71 73 81
122 126 120 119 115 112 110 102 98 91 83 82 81 80 76 69 63 67 71 71 69 67 68 72 74 78 80 78 79 79 81 77 80 81 79 78 79 76 76 76 81 82 86
121 128 122 112 112 106 103 101 95 92 86 82 88 80 74 73 71 72 68 72 73 74 80 86 85 87 87 89 92 92 92 90 90 87 83 83 82 81 84 85 88 92 91

GFSGL_250_spd_063.txt.gz
Wind_Speed
30 28 29 33 33 33 33 31 27 23 20 18 15 14 11 10 5 4 4 4 5 5 7 9 8 9 10 12 15 16 17 18 20 20 18 18 18 18 18 18 18 17 16
25 28 29 30 34 34 35 33 31 28 25 22 22 19 15 13 10 7 7 6 6 6 6 8 9 10 11 11 13 15 17 19 21 19 17 17 18 17 19 19 21 19 18
25 25 28 29 31 33 35 36 34 32 29 27 26 23 20 16 15 14 12 10 11 12 10 9 10 11 12 13 14 16 18 18 19 19 19 19 20 21 21 21 22 24 25
28 26 27 30 29 32 35 35 34 34 33 30 28 25 23 21 18 16 15 13 14 12 11 12 13 14 14 15 16 16 17 18 19 18 19 20 21 22 23 24 24 23 26
32 28 28 26 22 22 31 36 36 35 33 30 29 27 25 22 19 17 18 16 14 13 12 14 15 16 17 17 18 19 20 21 21 20 20 21 21 21 22 25 25 26 26
39 35 30 25 26 23 21 27 32 33 32 31 28 26 24 21 18 16 15 16 16 16 16 16 16 17 18 19 20 23 22 22 21 22 22 22 22 22 24 26 26 27 24
40 38 35 32 29 26 24 21 23 26 25 27 26 22 21 19 18 18 17 16 17 18 18 17 17 19 20 21 23 24 22 22 22 22 21 22 22 23 24 25 26 23 19
45 43 41 37 34 30 28 27 26 26 27 27 26 25 23 20 18 18 17 18 18 17 18 19 19 20 21 22 23 21 20 18 18 22 20 19 20 20 24 23 20 20 25
51 50 44 41 38 35 34 33 29 28 29 31 29 27 25 21 20 20 19 20 19 18 17 17 17 19 21 23 22 21 20 19 22 24 22 19 20 18 20 18 20 23 25
56 53 50 46 42 39 37 36 36 32 29 25 25 27 26 22 22 20 19 17 16 14 14 15 17 16 17 20 22 22 23 20 25 25 23 18 20 20 19 19 20 17 18
66 58 57 50 46 45 42 40 39 39 31 27 23 24 23 20 19 18 17 18 17 15 16 16 16 17 17 19 23 23 22 23 27 25 24 21 20 21 21 16 13 11 15
75 67 64 57 49 48 47 46 43 44 37 32 30 29 28 25 22 21 20 22 18 17 16 15 17 18 18 19 22 23 20 22 25 26 26 23 19 19 17 11 9 7 16
85 78 68 65 59 53 47 46 45 48 44 40 34 34 33 30 29 28 26 26 23 21 19 16 17 19 20 23 22 23 22 23 24 26 27 24 21 20 17 15 15 13 14
88 85 76 69 64 59 55 54 53 51 47 47 41 38 36 31 33 33 29 28 27 27 24 20 18 22 23 25 25 23 22 24 27 29 27 25 26 25 22 18 20 21 17
89 88 84 78 68 65 61 58 57 57 48 53 47 43 39 34 36 35 31 30 30 29 27 27 27 27 26 27 30 29 27 28 28 29 28 28 28 30 27 22 22 25 29
91 83 81 82 74 67 61 61 62 59 52 52 55 51 48 43 39 40 34 33 31 29 29 32 33 33 33 33 33 34 32 31 30 30 34 34 31 35 31 33 20 21 23
94 92 80 77 79 79 67 65 71 66 58 55 56 57 53 47 45 43 40 36 34 31 32 35 36 37 38 38 37 37 38 35 34 34 37 36 35 34 40 38 36 50 41
102 96 82 84 85 80 75 72 77 75 67 60 59 62 56 50 48 46 41 42 40 36 37 38 40 41 40 41 40 41 40 38 37 35 34 35 37 41 44 49 51 53 41
113 105 91 91 88 88 77 76 80 71 68 63 60 60 61 56 51 45 41 42 43 43 44 44 46 45 46 44 44 44 44 42 41 40 40 38 39 38 42 45 45 49 49
120 115 108 95 91 86 81 77 77 77 67 66 70 72 65 58 51 48 46 49 48 48 50 49 49 51 49 44 43 45 44 45 44 44 45 46 49 49 49 50 53 54 58
121 119 115 107 95 95 89 86 85 80 83 70 69 71 71 68 61 57 58 56 52 51 55 51 56 55 51 49 49 50 47 45 47 48 48 49 54 57 54 54 57 59 65
128 123 122 114 108 101 100 94 90 85 83 74 75 76 76 72 69 72 69 61 58 58 62 55 47 48 51 51 52 53 43 44 47 52 57 57 61 60 59 62 64 64 66
131 130 128 122 116 113 110 105 101 94 91 92 88 83 82 79 80 80 75 66 64 63 55 49 53 54 54 54 50 45 48 52 57 60 61 68 71 70 73 71 70 72 72
131 136 133 125 118 120 119 114 112 107 101 96 93 95 96 95 90 87 87 82 77 61 53 56 61 61 59 61 57 54 54 58 65 67 72 75 78 79 79 78 78 78 78
136 133 133 131 123 122 125 120 119 112 111 105 102 103 101 99 97 95 91 88 80 77 76 70 69 67 64 61 67 69 73 77 80 82 83 84 85 87 91 92 89 89 87
134 133 130 132 127 129 122 119 119 124 121 117 111 107 105 102 99 97 94 88 81 82 82 79 74 75 73 71 75 77 82 84 82 81 84 90 93 96 98 98 97 96 98

GFSGL_250_spd_066.txt.gz
Wind_Speed
30 29 26 30 31 32 31 28 27 24 21 18 16 13 10 7 6 7 6 6 7 8 7 6 7 8 9 10 11 12 14 16 15 15 14 15 14 15 15 15 16 17 19
31 29 29 28 32 32 32 33 33 30 27 24 20 17 13 10 8 10 8 8 7 9 9 8 8 8 8 9 10 12 12 13 12 12 12 12 14 16 16 16 17 19 19
32 29 30 29 33 30 32 34 35 34 32 28 25 21 19 15 13 12 12 11 10 11 11 9 8 9 9 10 11 12 13 14 14 12 10 11 12 15 17 18 19 21 23
34 32 29 30 31 30 28 31 33 34 33 31 29 26 23 20 18 16 14 11 11 11 11 9 9 10 10 10 11 12 13 15 15 14 14 14 14 14 16 18 19 20 21
38 36 33 29 29 30 29 31 32 33 33 30 30 29 25 23 20 19 16 14 12 11 11 12 11 11 12 11 11 11 14 14 14 15 15 15 15 15 17 19 20 19 19
43 42 36 29 27 28 28 28 29 34 33 31 30 30 27 24 21 21 19 14 12 13 13 12 12 11 12 14 15 15 14 14 13 12 14 15 16 16 17 18 17 13 13
47 46 39 33 29 28 26 26 25 29 32 32 31 31 30 25 22 21 20 19 16 15 15 15 14 13 13 14 14 14 13 12 11 13 15 17 16 17 15 14 14 17 16
49 47 43 38 36 31 27 26 26 22 24 26 26 24 24 23 21 21 20 19 20 19 17 17 16 15 14 14 14 14 14 12 13 15 16 15 15 17 13 10 12 12 12
55 52 49 44 41 38 35 32 30 26 25 24 23 24 24 23 21 21 21 23 21 18 16 15 13 11 12 14 14 13 13 10 12 13 13 13 14 13 11 8 4 10 7
62 57 52 49 48 45 39 38 35 31 29 27 26 27 27 26 24 23 22 24 23 15 10 11 12 9 10 13 12 13 11 9 13 12 11 11 11 12 8 2 5 3 3
70 64 61 57 55 50 44 41 35 34 29 29 26 25 26 26 23 22 20 22 20 10 10 9 8 9 9 12 14 14 10 10 12 13 12 12 12 13 13 9 10 9 2
81 68 67 63 61 58 51 46 41 37 36 33 33 28 27 26 23 23 19 20 16 13 11 9 9 9 10 12 16 17 14 13 14 15 17 14 15 17 17 16 16 18 15
87 79 76 71 67 63 57 52 50 46 44 41 39 38 34 32 28 27 25 24 19 17 14 12 12 12 15 18 19 18 17 16 16 19 20 20 19 20 23 23 23 24 25
87 85 84 79 75 69 61 58 53 47 48 42 45 42 38 35 34 30 28 26 23 22 19 14 15 18 20 22 22 20 20 21 24 23 21 20 20 20 22 24 24 25 29
95 88 88 85 83 76 68 65 60 52 47 44 43 45 42 41 38 34 28 28 28 29 23 22 23 22 20 23 24 24 24 24 25 25 25 27 27 24 24 25 29 27 29
104 100 95 94 90 86 78 72 67 64 58 55 48 48 46 45 44 41 36 36 32 29 26 30 29 26 24 25 25 26 26 27 28 27 27 30 31 32 32 31 30 29 25
108 105 101 99 95 90 88 81 76 69 65 60 57 54 52 53 52 52 43 41 39 35 34 33 33 32 30 29 29 28 29 31 31 31 31 31 30 32 31 29 28 30 33
111 111 106 104 101 96 91 86 84 78 72 65 63 59 57 55 56 50 51 43 48 43 37 38 38 38 36 33 33 33 32 33 34 32 33 34 35 35 35 34 31 33 32
115 113 111 108 105 101 96 91 88 82 81 77 71 67 64 59 58 55 50 49 49 48 45 40 42 42 40 37 37 38 37 35 34 32 30 31 33 35 39 38 35 36 39
121 117 115 111 109 106 102 95 89 87 84 81 78 75 72 69 69 68 62 57 51 51 51 45 46 45 46 43 41 42 39 35 34 39 39 38 38 35 40 46 44 41 45
126 122 119 116 114 110 108 103 93 89 89 90 87 85 79 74 72 69 70 66 59 57 57 53 50 52 49 44 44 43 39 42 43 44 43 42 43 41 41 48 51 47 53
127 126 123 118 117 113 112 108 97 93 88 90 92 89 85 82 77 73 67 69 66 63 61 59 57 51 48 47 47 47 44 47 46 48 49 54 50 49 49 49 55 56 56
123 125 125 124 119 117 118 111 102 96 93 96 95 93 92 87 82 80 75 75 72 70 69 69 66 57 58 48 46 48 51 51 53 50 52 53 54 58 61 64 66 64 67
118 123 124 128 123 119 120 116 111 101 100 101 100 97 97 93 88 81 76 75 70 70 70 74 78 68 59 54 60 54 57 58 58 60 62 66 68 65 61 64 69 73 77
118 121 124 124 128 123 121 120 115 112 108 106 103 102 100 100 95 90 84 85 84 79 78 81 79 78 73 62 54 60 63 65 71 74 74 73 74 77 81 85 87 87 87
120 120 122 122 125 124 124 125 123 117 113 109 107 104 100 102 100 98 95 92 90 88 82 83 84 84 86 82 77 76 79 78 82 78 73 74 79 75 80 83 87 88 89

GFSGL_250_spd_069.txt.gz
Wind_Speed
21 21 21 24 26 27 26 27 25 23 20 15 12 8 7 4 1 2 3 3 4 5 6 6 6 8 8 8 9 10 10 9 8 8 7 9 9 9 9 10 12 13 14
27 23 20 26 27 29 29 29 30 26 25 21 18 14 10 9 7 6 6 7 6 5 6 6 7 8 9 10 10 11 11 11 12 11 9 9 10 11 12 12 14 15 15
31 27 24 26 29 26 30 30 30 31 29 26 23 19 16 14 13 10 9 8 9 7 7 4 5 7 8 8 8 9 10 11 12 11 10 10 10 12 14 15 14 12 11
36 33 28 30 31 28 30 30 32 32 31 30 27 24 20 19 18 15 13 12 12 9 8 6 4 6 7 7 7 7 10 9 8 8 10 11 10 12 12 12 11 10 11
35 33 32 32 31 27 27 32 31 33 34 31 30 28 25 21 20 18 16 14 13 12 10 9 9 7 7 6 7 8 9 7 7 8 9 10 11 11 13 10 8 10 11
37 36 33 35 34 32 29 29 32 33 34 33 33 31 29 26 22 20 18 16 14 13 11 12 13 11 10 10 10 8 9 10 9 8 10 12 12 10 7 8 9 10 11
51 40 36 38 37 37 30 28 30 31 29 33 33 32 32 28 25 22 20 19 16 15 13 14 16 15 13 12 13 11 9 8 9 10 9 10 10 9 5 6 6 7 6
54 48 50 43 41 39 34 32 32 31 30 31 32 33 32 30 27 25 22 20 20 17 16 15 16 15 13 14 14 13 11 7 9 9 6 7 8 5 2 3 9 8 5
61 60 59 51 45 42 44 39 36 33 31 30 28 28 30 29 25 23 22 23 22 21 18 15 14 13 11 13 12 11 10 5 10 8 5 5 5 4 4 8 14 13 7
69 63 62 54 51 50 48 45 39 35 31 27 28 29 29 28 27 25 25 25 24 21 16 15 11 9 9 12 10 8 4 6 10 7 6 7 7 6 8 12 19 11 10
73 71 69 65 58 58 55 50 46 41 36 33 32 31 30 29 28 29 29 28 28 19 16 16 14 12 12 13 11 5 3 9 13 12 13 10 11 11 12 12 18 20 18
77 77 73 73 64 62 59 56 50 47 42 40 35 32 32 32 28 25 26 29 26 21 19 17 16 14 13 14 16 9 6 8 10 12 13 12 11 13 13 14 16 21 25
84 79 80 76 72 67 64 62 55 53 48 41 39 38 37 34 32 28 25 27 24 22 21 18 15 16 18 21 17 11 9 10 10 12 12 11 12 14 15 15 16 17 21
89 86 83 84 80 76 70 67 60 55 54 50 45 45 38 35 35 34 30 26 25 24 23 20 21 25 27 23 18 15 13 14 15 16 14 13 15 18 20 20 21 23 26
95 92 89 88 86 82 77 74 67 62 58 54 51 48 44 44 44 38 35 31 29 31 27 27 29 28 26 26 25 22 20 20 20 17 17 17 18 19 22 23 25 26 31
102 98 95 92 90 89 85 79 73 67 66 63 58 53 52 50 45 42 36 33 30 31 32 34 34 30 30 28 28 27 27 25 24 22 23 21 20 22 24 25 25 27 26
107 105 102 97 97 94 92 88 84 75 71 68 65 60 55 50 49 44 41 36 38 40 40 40 39 36 33 32 32 31 30 29 27 27 28 28 24 23 24 26 28 27 28
112 109 107 105 101 100 97 96 93 88 80 76 72 67 62 55 51 51 43 44 45 48 48 47 47 44 43 41 40 37 35 33 32 30 31 30 25 23 24 26 26 27 34
119 115 112 108 107 105 103 99 100 96 89 86 78 75 71 66 62 56 53 50 51 52 53 54 52 47 46 47 47 44 43 36 32 35 30 31 32 30 34 35 36 38 36
121 121 119 114 110 109 107 102 101 102 99 95 90 86 80 76 69 66 60 56 53 56 58 58 58 54 50 50 52 51 48 45 44 41 37 35 36 38 39 41 45 41 43
120 123 125 122 116 112 110 107 104 99 101 100 95 94 90 84 80 70 64 63 57 61 59 61 62 58 56 55 55 57 58 52 48 44 41 40 41 42 40 40 42 48 48
117 122 125 126 123 119 114 112 108 107 106 105 102 98 95 92 90 83 75 75 69 70 66 66 67 68 67 67 62 63 64 59 56 52 50 48 47 43 46 45 44 47 48
119 118 122 126 127 126 121 116 113 111 110 109 104 102 99 97 95 87 84 84 82 77 70 73 73 72 71 68 65 67 69 65 64 58 51 50 51 56 55 47 51 51 55
119 116 117 123 126 128 125 121 117 114 112 110 108 105 102 103 99 93 91 88 84 82 84 80 76 79 74 70 67 65 69 67 69 70 65 57 63 62 62 59 58 60 65
110 113 115 118 124 126 126 124 121 117 114 114 111 109 106 107 105 100 96 94 89 87 90 83 76 81 79 74 71 69 71 75 73 73 76 73 68 67 68 68 68 76 77
93 103 112 117 120 123 125 126 125 122 119 115 114 111 112 112 110 107 103 100 97 92 93 92 93 89 85 85 80 76 80 77 76 72 73 67 69 75 76 76 80 78 77

GFSGL_250_spd_072.txt.gz
Wind_Speed
26 24 19 14 16 20 22 23 22 18 15 12 9 8 4 4 3 1 1 3 4 4 4 3 3 4 6 7 8 9 8 8 9 8 8 9 9 10 12 13 12 11 12
34 29 24 21 20 21 24 25 26 22 20 18 16 13 10 6 6 5 4 3 4 3 4 3 1 3 4 4 4 5 6 7 7 8 9 10 11 12 12 12 11 11 12
39 38 32 28 26 23 23 25 28 28 27 23 21 20 17 12 8 7 7 7 6 6 5 3 4 2 3 4 3 3 4 5 5 5 7 8 10 10 10 9 8 10 12
43 41 36 35 32 27 27 27 26 31 31 30 27 25 22 18 15 12 10 9 10 8 7 5 4 5 6 5 4 5 6 6 4 4 6 7 7 8 6 4 7 8 13
44 41 38 36 34 29 29 31 28 29 34 34 33 31 28 24 20 17 15 12 11 11 8 9 6 5 6 6 6 7 6 6 7 6 5 6 5 5 5 5 6 9 15
46 46 41 38 38 34 31 32 29 29 30 34 36 35 33 30 26 23 20 16 15 15 13 10 9 10 9 8 7 5 7 8 7 6 7 8 6 1 3 3 5 11 14
50 46 48 34 35 37 32 32 32 31 30 32 34 36 36 34 31 28 25 22 20 20 18 16 13 13 11 10 10 8 7 7 8 8 6 7 5 0 7 7 9 13 11
47 46 46 49 41 33 29 35 35 32 30 32 32 35 37 36 34 32 29 26 25 24 23 20 19 17 12 12 13 12 11 8 9 8 7 8 6 3 9 12 14 16 13
56 50 50 48 47 40 32 38 40 36 33 34 35 33 36 37 36 34 32 31 29 28 26 24 21 19 15 14 13 12 12 9 14 11 9 7 6 5 12 18 18 19 16
64 59 56 57 51 53 45 49 42 42 39 36 36 36 36 37 37 35 34 33 32 31 26 26 24 20 16 15 16 14 12 12 15 13 11 9 7 8 11 18 20 21 21
74 68 65 66 58 61 62 50 45 45 43 39 38 37 37 37 35 32 30 31 34 29 24 25 23 21 20 19 18 16 15 16 15 9 10 10 10 8 9 14 16 23 27
82 78 71 70 72 69 62 60 55 50 48 45 42 39 38 36 33 33 30 32 32 27 26 25 25 24 23 22 22 19 17 18 11 6 6 6 10 12 13 13 15 19 28
88 85 81 76 75 73 70 67 62 59 53 51 49 44 42 39 37 33 31 33 34 33 30 30 28 27 26 27 28 19 17 17 14 15 14 10 12 14 15 15 16 17 20
95 91 87 84 81 78 76 71 64 63 59 57 55 51 47 43 40 34 33 32 32 32 32 30 29 30 33 34 32 20 18 20 20 21 20 18 17 17 18 15 18 20 23
99 97 93 91 89 82 80 79 72 70 66 62 60 59 54 49 45 39 36 33 32 32 31 30 33 36 38 37 33 26 24 23 23 23 23 24 23 22 22 20 22 23 21
105 104 100 95 94 89 86 84 79 77 73 68 66 62 61 55 48 45 39 39 38 37 35 35 37 38 39 37 33 31 28 29 28 26 27 26 25 24 24 25 25 25 22
111 109 106 101 97 94 91 89 87 84 79 75 73 66 67 62 56 50 47 44 41 40 43 43 40 40 39 36 36 35 34 35 33 34 34 33 31 29 26 24 25 24 22
119 116 112 108 103 99 98 93 93 91 87 83 80 73 71 70 65 60 52 48 48 50 50 48 47 44 41 39 37 35 36 38 39 38 38 38 37 38 34 27 26 29 34
127 124 122 115 111 106 103 100 95 97 93 90 87 83 78 76 72 67 62 57 52 52 55 54 51 50 51 49 47 45 44 42 43 44 45 43 42 43 41 34 33 38 40
133 128 129 125 118 113 109 105 101 100 97 96 92 90 87 84 80 75 70 67 63 60 57 57 57 58 58 57 55 53 52 51 48 48 47 46 45 45 48 46 44 42 40
130 132 131 130 128 123 116 111 108 104 102 100 98 98 95 90 88 79 76 74 70 68 64 61 59 58 57 56 55 54 56 56 59 57 55 49 46 49 51 51 49 48 50
127 129 129 130 130 129 125 119 114 109 108 104 104 103 102 97 96 91 83 79 78 77 71 67 65 65 60 60 60 56 56 58 58 59 57 56 59 62 58 61 60 59 55
108 119 127 126 126 130 131 126 122 116 113 108 109 110 107 103 102 99 96 88 83 84 81 78 71 70 69 69 66 64 62 61 61 62 65 66 64 64 65 64 65 66 61
95 101 111 121 123 125 130 131 128 124 119 115 112 113 111 109 107 105 102 97 93 92 92 88 83 78 75 72 72 71 66 67 66 67 65 64 66 67 67 69 71 70 69
84 88 97 108 118 124 128 131 132 129 125 121 118 115 115 112 110 110 107 104 100 98 98 97 93 87 85 80 73 74 72 65 65 65 67 59 64 63 69 72 75 69 68
75 78 84 96 106 116 124 130 133 131 129 126 124 121 119 114 113 114 111 109 104 105 105 103 100 98 95 91 87 84 83 79 76 72 69 71 72 72 73 76 79 81 82

GFSGL_250_spd_075.txt.gz
Wind_Speed
31 27 24 20 17 16 18 20 21 19 17 14 9 7 5 4 2 1 1 3 4 5 5 3 1 3 5 6 6 6 6 7 7 7 8 9 10 11 11 9 9 9 12
38 35 30 26 24 22 19 21 24 24 23 21 16 13 11 9 6 5 3 3 3 5 6 6 3 4 4 3 3 3 5 6 6 7 9 10 11 10 9 8 8 10 14
44 40 37 34 31 27 25 23 24 26 27 27 23 19 17 15 11 8 6 5 4 5 7 7 4 3 4 6 4 4 5 7 6 6 9 9 9 10 9 6 8 12 13
44 46 42 40 38 33 30 29 29 29 30 32 29 26 23 19 17 14 12 9 7 5 6 8 7 6 4 4 4 5 7 7 7 7 6 6 7 7 9 6 7 11 9
48 48 44 44 41 36 34 34 29 33 30 31 33 33 31 27 23 20 17 15 12 10 9 10 10 9 7 6 6 6 5 6 7 6 5 4 3 3 4 2 4 9 14
47 51 49 48 43 38 37 34 32 32 33 29 29 34 34 34 31 27 24 21 18 16 14 14 13 14 12 11 9 8 8 8 9 9 7 6 4 5 6 5 4 11 11
54 52 50 48 46 37 36 36 38 35 35 34 31 29 32 32 34 32 31 28 25 21 20 18 17 17 15 13 13 12 12 11 11 12 11 9 6 7 11 10 13 18 16
56 53 53 51 49 47 35 37 40 40 37 37 34 32 32 34 35 36 35 32 30 27 24 23 22 21 19 15 16 16 16 14 14 15 13 11 9 9 14 20 17 21 20
59 56 53 49 52 50 45 36 40 42 39 37 35 32 32 35 34 36 37 37 36 34 31 28 25 23 21 18 18 16 17 16 18 17 15 13 12 9 14 20 21 19 21
68 64 59 52 49 52 53 45 37 38 37 38 38 35 34 36 36 35 37 39 39 39 32 28 26 25 21 19 20 19 20 16 21 17 15 14 14 12 13 15 21 23 23
75 71 67 61 56 51 53 59 55 46 40 38 42 41 37 37 35 35 35 39 41 40 33 32 29 26 22 19 21 24 21 19 21 15 13 14 15 15 14 16 21 26 30
83 79 76 70 65 60 55 56 57 57 54 51 47 43 42 38 39 36 34 38 43 40 37 36 33 28 24 23 25 29 23 22 23 12 12 14 18 19 19 19 17 22 25
89 86 84 80 74 69 64 64 61 60 63 58 52 46 42 41 38 38 35 36 39 39 40 36 31 29 28 29 31 34 28 26 24 18 17 17 18 19 19 18 18 20 19
95 91 89 87 84 79 74 71 71 68 64 61 54 52 46 44 44 40 38 36 37 38 41 38 34 32 33 37 40 39 31 26 27 26 23 20 20 22 22 20 20 20 22
98 97 94 91 89 87 83 80 76 78 75 70 63 61 57 51 51 45 39 42 41 40 43 41 38 37 40 41 42 42 33 27 29 28 27 27 26 24 25 24 24 23 24
102 100 98 96 94 92 89 86 85 82 81 77 75 70 65 62 58 47 47 45 45 45 44 42 39 38 44 47 45 44 38 29 30 30 31 31 30 28 27 28 28 28 28
110 107 104 101 98 97 95 92 89 90 85 83 82 77 74 70 68 64 56 55 55 52 50 45 44 46 44 46 45 42 41 38 33 34 34 34 33 30 28 29 31 31 31
118 115 111 108 105 102 100 98 96 94 90 87 87 85 80 77 75 72 68 63 61 57 55 50 51 50 48 44 43 40 39 39 38 38 38 37 35 30 29 30 31 31 29
129 124 121 116 113 110 106 104 102 100 98 95 93 91 89 86 81 78 74 71 69 64 63 62 60 53 51 50 47 43 43 42 40 40 40 39 38 37 37 37 38 38 35
135 133 131 128 123 120 115 111 109 106 104 101 99 97 96 93 88 84 81 78 75 74 72 68 64 57 55 52 52 50 48 47 47 47 48 48 48 44 43 42 44 45 47
134 135 136 134 131 129 126 121 117 114 111 108 105 104 102 99 95 90 88 85 83 80 77 74 69 63 60 58 56 57 58 58 56 56 57 57 56 55 50 48 50 50 47
123 129 133 134 135 136 134 130 128 123 119 115 112 110 107 104 101 99 95 92 91 85 84 80 74 70 68 66 65 65 65 63 64 62 61 62 59 56 56 55 53 52 54
110 113 121 127 131 134 136 135 132 131 127 124 120 117 115 110 105 104 103 99 96 93 89 86 83 79 77 73 70 70 70 70 67 62 62 63 62 61 60 60 61 61 61
98 106 109 113 119 127 132 134 134 133 133 130 128 124 121 118 112 110 109 106 101 98 96 91 89 86 85 78 76 76 78 75 73 70 70 68 65 63 66 64 63 61 61
87 92 98 103 109 113 119 125 130 132 132 135 133 129 127 124 121 115 112 107 106 105 101 98 96 95 93 88 88 78 78 81 79 78 77 77 76 74 72 73 71 67 64
78 81 85 90 96 102 107 111 116 122 128 131 132 131 130 129 128 123 111 111 112 112 108 103 104 102 98 95 91 92 91 89 87 87 86 84 83 80 77 74 76 72 69

GFSGL_250_spd_078.txt.gz
Wind_Speed
27 25 24 22 21 19 19 22 16 10 15 20 23 15 7 5 2 2 3 3 2 4 6 6 6 6 8 8 8 9 11 10 9 9 9 10 11 11 12 13 12 12 16
32 32 30 30 27 23 22 23 24 16 18 21 21 19 11 10 7 7 6 4 2 1 2 3 4 4 5 7 6 6 10 12 10 10 10 11 10 11 9 9 10 12 14
38 38 34 31 33 30 27 27 28 24 22 24 24 22 21 17 14 12 10 9 9 6 5 3 2 4 3 3 5 5 6 8 8 8 8 8 8 9 7 8 10 10 12
34 37 30 28 37 36 34 32 30 29 27 26 28 29 29 28 21 17 17 14 10 10 8 7 6 6 6 6 6 7 7 8 8 8 6 4 3 4 3 7 7 9 8
36 28 24 28 40 30 38 39 34 34 33 31 30 30 29 28 26 24 22 20 20 19 15 11 9 10 8 7 7 9 10 9 9 9 7 8 4 3 4 6 10 10 10
55 58 42 48 38 42 50 43 39 35 35 35 32 31 30 30 30 30 29 28 25 24 21 18 13 12 11 12 10 10 12 12 13 12 9 7 5 4 8 9 13 13 11
57 58 56 57 61 48 37 38 40 39 38 36 38 35 33 31 30 30 33 33 31 29 27 22 19 16 15 15 13 12 13 14 14 14 12 10 6 10 12 12 15 16 16
57 60 63 61 60 57 58 45 50 43 39 41 39 38 37 38 35 34 33 35 37 34 32 29 25 22 19 18 18 15 14 15 16 15 13 11 9 10 15 19 16 18 22
72 63 60 60 58 56 58 51 43 42 44 44 44 41 40 39 37 36 35 34 35 37 36 34 31 29 23 20 21 18 19 18 19 19 15 12 12 11 13 17 20 23 24
80 80 73 67 66 63 61 53 55 49 45 42 44 45 42 41 39 35 35 35 36 38 35 33 32 31 26 22 22 21 24 18 21 21 17 12 14 14 15 15 17 22 27
76 83 77 71 70 68 62 55 51 54 53 47 45 43 42 42 40 39 35 35 39 39 36 36 36 33 29 26 26 27 28 21 23 24 18 16 14 18 19 20 20 20 23
85 84 80 76 73 69 64 59 55 52 55 50 41 42 43 37 41 40 37 34 39 38 37 38 38 35 32 30 29 30 30 26 26 27 21 17 18 21 22 24 21 19 21
93 90 88 85 81 76 72 67 62 57 53 59 60 54 49 43 42 42 40 37 37 36 37 35 37 37 36 34 31 33 35 31 28 25 22 20 19 21 24 23 21 19 19
101 99 96 93 89 85 80 75 71 66 61 59 61 65 58 54 53 47 42 38 37 34 39 36 34 36 36 36 36 38 38 35 32 31 27 25 24 23 24 21 19 18 22
109 107 104 101 97 93 89 84 79 76 71 67 66 64 63 64 64 61 52 44 36 34 38 39 39 39 38 38 40 40 41 40 38 34 32 31 29 25 25 24 25 23 24
114 113 110 108 105 101 97 93 88 84 81 76 72 72 70 67 66 68 59 53 48 41 41 41 40 39 42 42 41 43 44 43 41 35 33 33 33 31 29 26 26 26 27
118 116 115 112 110 107 103 99 96 92 88 85 83 80 80 77 74 69 65 62 56 51 48 46 46 49 47 43 43 43 46 46 43 40 33 36 36 35 32 32 31 29 28
125 123 119 116 114 110 107 104 101 98 94 91 89 89 86 85 83 82 74 70 66 59 54 55 50 54 54 50 47 42 43 47 47 42 40 40 41 39 35 34 32 29 29
132 128 125 123 119 116 112 109 106 102 99 97 96 94 93 92 92 87 83 78 76 70 64 62 61 59 57 55 53 50 49 44 45 47 44 44 43 43 41 38 34 33 33
137 134 132 129 126 123 119 116 113 108 104 101 99 99 100 98 97 95 91 85 80 76 75 75 73 68 64 62 61 57 55 52 49 47 47 48 48 46 45 44 41 40 43
139 139 138 136 134 130 127 124 120 116 111 109 105 104 104 103 101 98 96 94 89 87 84 82 82 77 72 72 67 64 62 56 55 55 53 51 52 52 54 52 51 51 50
132 135 138 139 139 138 135 131 128 123 120 117 113 111 112 108 105 103 101 99 98 96 93 89 86 84 81 78 74 70 68 63 58 57 54 52 55 57 60 62 62 62 61
117 122 128 132 134 134 134 134 133 132 129 125 123 120 118 114 112 109 106 107 106 102 102 95 91 88 87 85 82 77 76 71 64 59 55 48 61 63 62 69 72 71 70
102 106 111 115 119 122 128 134 134 133 131 130 129 128 126 123 119 117 114 112 110 110 109 103 99 96 93 92 89 87 84 79 76 69 72 64 78 69 70 71 72 79 78
85 90 95 99 102 104 108 113 120 127 130 132 133 132 132 131 128 125 122 120 118 113 111 106 105 102 100 97 94 96 91 90 85 84 84 76 78 77 75 76 78 77 80
76 79 78 79 82 89 95 101 106 110 115 120 126 130 133 134 133 132 131 130 126 120 117 113 111 111 107 104 101 99 99 97 97 95 94 94 93 92 84 80 79 78 80

GFSGL_250_spd_081.txt.gz
Wind_Speed
25 22 21 21 20 17 17 16 14 14 16 12 11 10 14 12 6 5 5 5 4 3 4 4 3 4 5 7 7 8 11 10 10 10 9 10 12 12 12 14 20 19 20
31 29 26 24 26 23 22 20 19 17 16 20 20 20 14 15 13 12 10 9 8 6 6 6 5 3 3 5 5 5 8 8 6 7 8 10 11 11 10 12 12 12 15
25 24 29 31 29 28 26 25 24 24 22 20 21 24 23 23 18 18 14 13 12 11 7 8 7 7 7 6 7 6 8 9 7 5 4 6 8 9 8 6 8 13 12
39 29 27 24 34 34 33 34 30 26 28 24 21 21 26 26 26 23 20 19 17 14 13 10 10 8 8 7 7 7 7 8 8 6 3 2 4 6 9 7 7 7 6
32 34 32 26 29 34 25 38 38 32 31 30 27 27 24 26 29 27 23 23 21 23 23 17 14 13 11 9 7 8 8 9 7 5 4 2 5 9 10 10 7 6 6
42 39 33 31 33 18 30 28 31 34 37 33 33 31 28 27 27 30 28 26 26 26 27 23 20 18 15 12 10 10 11 11 11 8 4 1 4 10 14 12 11 9 10
54 53 45 41 41 37 26 35 32 27 32 34 39 37 33 31 29 30 33 32 32 32 31 29 25 22 18 18 15 12 13 13 13 11 9 4 5 9 11 15 17 15 13
60 59 56 63 61 56 62 60 58 37 35 40 42 40 40 38 35 33 34 35 36 35 34 34 30 27 23 21 20 17 16 15 16 15 12 11 7 11 12 14 19 22 21
72 71 71 69 70 71 69 67 65 59 60 55 52 51 46 45 39 37 36 37 39 37 37 35 33 30 27 23 23 22 22 18 19 19 16 13 13 13 14 15 20 22 24
83 77 76 80 80 75 73 71 72 70 68 62 59 49 48 46 43 42 40 38 39 41 39 38 35 33 27 27 26 24 28 20 22 23 22 16 15 17 18 19 20 23 27
91 84 83 79 74 80 78 75 73 73 67 64 62 57 53 49 44 43 42 41 41 40 41 39 38 35 33 29 30 29 32 24 22 26 26 18 15 19 21 22 21 22 21
92 93 92 87 86 78 72 72 78 71 64 65 68 65 59 56 49 44 43 42 42 42 41 40 38 35 34 35 32 35 35 29 28 28 26 21 17 20 23 25 22 20 21
94 95 98 99 93 87 82 76 73 68 68 72 71 69 61 59 58 51 46 44 45 42 42 39 39 36 34 36 36 37 37 35 31 29 26 23 22 23 28 26 24 20 19
99 98 100 104 101 97 91 88 87 84 85 85 75 70 64 59 61 59 55 51 44 39 40 41 39 35 35 36 38 37 38 36 34 35 29 25 24 26 26 24 24 20 22
108 106 104 106 107 105 104 101 99 95 90 91 82 74 69 66 61 65 62 57 54 50 44 43 42 40 39 38 37 38 37 37 36 35 31 29 29 28 29 26 27 25 25
116 114 112 111 111 109 108 106 100 98 92 95 90 82 78 74 70 67 72 64 62 58 52 49 46 43 44 42 37 37 37 39 38 37 35 32 31 32 33 32 30 29 29
122 121 121 119 118 116 113 110 108 104 100 99 95 92 87 82 79 74 72 75 73 68 64 59 55 49 48 47 40 39 36 37 37 37 38 37 31 32 33 36 35 32 32
130 129 127 126 126 124 122 119 116 113 109 106 103 99 96 91 87 83 79 76 74 71 75 74 69 62 57 55 54 51 50 44 39 41 39 36 36 32 34 40 39 36 36
129 133 134 133 132 130 128 127 124 121 118 114 111 108 104 100 96 92 86 82 81 79 77 75 69 68 66 61 57 55 55 53 44 41 39 34 33 30 39 49 47 44 41
127 130 134 137 138 136 134 132 130 127 124 122 119 115 111 106 101 98 95 91 87 86 86 82 79 74 75 71 66 62 57 58 53 49 47 45 46 41 43 48 56 47 46
126 128 131 134 136 139 139 138 135 132 129 126 124 122 118 111 106 104 101 97 94 92 91 90 88 86 78 80 76 71 66 63 60 56 53 52 49 53 53 54 52 49 52
115 122 128 131 132 135 136 137 138 136 134 131 128 126 123 117 111 108 106 104 100 97 96 95 95 94 92 84 82 80 77 72 69 63 60 58 58 57 52 50 49 50 52
107 112 118 123 126 128 130 132 134 134 134 135 134 132 130 126 121 117 113 109 107 103 101 101 101 99 97 93 87 86 85 82 78 74 73 67 64 59 55 39 53 58 63
103 103 105 108 113 118 122 124 124 124 126 129 132 134 135 133 128 124 121 117 114 111 108 105 102 101 101 99 97 94 90 91 89 85 82 80 76 70 66 66 67 73 80
94 95 96 95 99 103 105 109 112 116 118 121 125 128 131 132 132 129 128 125 122 118 116 111 107 105 106 106 102 102 101 98 96 96 94 91 87 83 79 79 69 68 68
80 81 80 83 87 86 89 94 98 101 103 107 111 116 120 124 128 131 129 129 128 126 124 119 115 112 112 110 109 107 107 105 104 101 100 101 98 95 92 94 93 93 84

GFSGL_250_spd_084.txt.gz
Wind_Speed
22 19 19 19 18 17 17 14 12 11 11 11 12 13 11 13 15 13 10 10 11 8 11 9 9 8 7 7 7 9 9 8 10 12 13 12 14 16 18 18 14 12 10
25 24 24 22 23 23 21 21 18 16 13 12 13 17 18 17 15 16 13 13 14 11 10 13 11 9 8 8 7 9 11 8 7 9 10 8 10 12 13 13 13 15 15
37 30 28 27 26 25 27 25 23 23 20 17 15 16 17 18 19 20 23 15 17 14 11 10 14 12 10 7 6 5 7 8 6 5 5 9 8 8 9 6 10 12 14
37 34 29 25 28 27 26 24 26 28 26 23 19 18 19 17 18 19 21 18 18 18 16 14 14 15 14 11 7 6 5 5 5 4 4 5 10 8 10 3 7 6 4
40 40 36 37 32 30 30 26 20 17 22 32 27 24 25 24 21 20 20 20 20 22 20 20 17 15 15 15 10 8 5 3 4 1 2 6 13 15 12 8 7 6 7
46 40 34 48 42 39 38 30 28 29 21 27 33 36 35 30 27 24 25 21 24 25 24 25 24 20 17 15 13 11 11 7 4 5 3 8 12 13 16 14 12 11 7
56 54 54 56 51 45 42 34 33 36 36 26 28 35 38 32 29 27 28 28 28 28 27 29 30 26 21 20 19 15 13 12 9 7 7 9 16 17 21 21 18 14 11
59 55 55 53 51 47 48 42 39 36 35 33 28 36 33 33 33 35 36 35 34 33 30 29 30 30 28 23 22 21 19 15 15 12 10 11 13 17 23 28 29 25 23
68 59 59 60 57 55 57 52 50 48 41 46 43 39 37 43 47 46 43 44 43 39 37 34 34 32 31 29 27 25 24 21 19 19 14 13 13 14 17 19 22 27 27
72 73 68 67 67 62 59 60 65 60 51 53 53 55 59 47 53 47 47 44 44 41 38 38 39 37 34 31 31 30 30 26 24 24 23 19 15 15 18 21 23 24 23
84 81 77 76 76 74 69 65 75 69 63 61 63 64 62 63 62 58 53 50 50 43 41 44 43 39 35 34 34 34 37 30 28 28 28 24 18 18 20 24 23 24 24
102 100 94 87 82 83 79 80 78 80 77 73 71 70 71 71 68 65 63 59 55 48 46 46 47 41 39 35 35 37 38 36 32 31 31 29 22 20 20 24 26 23 22
102 105 106 104 98 93 94 89 89 86 83 80 80 80 82 78 72 69 67 65 58 53 50 48 46 46 42 39 36 36 37 39 37 34 33 33 26 22 23 23 25 26 23
103 103 106 108 108 104 97 97 87 90 89 90 89 84 82 82 78 75 72 70 62 59 56 58 52 51 47 42 39 37 36 37 37 38 37 34 28 28 28 26 26 27 26
108 107 106 105 107 108 111 111 105 93 92 89 86 86 86 86 86 85 84 78 70 62 60 63 61 52 48 42 41 38 36 37 37 39 39 38 33 30 32 30 30 29 27
114 113 112 111 109 109 110 112 115 116 106 97 96 82 88 84 85 84 83 82 75 70 66 65 66 60 55 50 45 44 40 39 39 37 37 39 38 34 33 32 32 33 32
116 117 118 117 116 115 114 114 114 115 117 116 105 105 101 96 98 99 93 90 87 80 73 72 67 67 64 62 55 49 47 43 41 39 39 41 42 40 35 31 32 34 35
115 118 121 124 124 122 121 120 118 117 116 117 121 116 109 108 107 104 100 97 96 89 81 76 74 73 72 67 63 57 55 51 47 47 48 44 45 41 26 26 26 29 32
119 120 122 125 128 130 129 127 126 125 123 121 119 124 127 123 118 114 109 107 104 97 87 82 80 77 76 75 71 65 63 59 56 53 52 49 43 45 39 37 41 40 30
122 123 125 127 128 131 134 135 134 133 131 130 128 127 124 125 128 128 124 118 115 109 98 88 86 83 81 79 80 77 75 72 67 64 61 59 54 48 48 44 46 43 38
124 124 125 127 129 132 133 136 139 139 138 137 136 136 133 130 126 130 129 126 119 111 106 100 93 89 87 87 85 83 80 78 81 78 71 66 63 58 57 52 51 45 43
112 116 120 122 125 128 131 134 135 136 140 143 144 143 141 138 135 131 128 126 124 119 113 107 103 98 94 93 92 89 87 84 80 79 78 76 74 69 63 63 56 52 48
105 106 107 111 115 118 122 127 130 133 136 140 144 147 148 145 142 139 136 133 130 127 123 117 111 107 103 99 98 96 94 92 91 84 84 84 83 79 74 68 65 60 55
105 106 107 108 109 110 112 115 118 122 128 134 137 139 142 145 146 145 144 141 137 134 130 125 120 116 110 106 104 101 100 99 98 96 91 89 89 90 86 81 76 73 68
98 100 103 105 105 105 105 106 108 111 116 120 124 129 135 139 141 143 144 146 146 142 138 133 127 122 118 116 111 106 105 104 102 101 101 98 95 97 98 93 89 83 82
89 90 90 92 93 96 98 99 101 105 103 103 109 116 120 123 127 132 137 140 140 140 139 138 136 131 124 119 119 117 111 108 107 106 105 105 104 102 103 103 100 97 93

GFSGL_250_spd_087.txt.gz
Wind_Speed
23 22 21 17 16 14 14 13 13 13 12 12 12 11 11 9 15 12 12 10 13 14 14 16 15 14 13 12 11 13 12 12 12 14 16 15 15 15 14 10 10 9 10
26 21 19 20 21 19 16 17 21 15 13 14 12 13 11 10 12 11 12 13 15 10 10 13 16 16 14 10 9 8 9 7 7 8 11 14 16 17 15 13 11 16 18
32 37 36 27 27 25 27 20 18 21 20 18 18 15 12 10 10 12 13 15 12 16 10 11 11 13 14 14 10 8 7 6 4 5 7 9 11 9 9 9 9 12 13
24 28 38 34 34 29 27 20 24 26 21 19 24 25 20 13 13 15 15 15 14 15 16 11 14 11 13 12 10 8 6 3 1 5 10 11 9 10 10 7 8 4 4
48 48 42 36 35 34 31 25 26 25 29 26 25 21 23 23 23 21 19 18 15 16 18 14 16 14 13 12 11 10 9 6 2 3 8 11 16 13 13 8 8 8 7
49 49 47 48 40 42 42 41 31 29 27 24 22 20 21 22 25 27 25 24 19 18 22 20 18 18 16 16 13 12 9 10 7 5 7 12 17 17 17 16 13 9 10
57 52 49 51 47 47 43 44 40 38 34 38 31 25 22 22 20 31 28 30 24 20 22 22 22 22 21 19 18 17 14 11 10 9 10 12 16 22 25 22 20 18 18
65 63 57 56 56 49 48 49 50 47 44 43 38 35 28 26 26 30 35 32 28 26 27 28 27 25 24 22 23 22 19 20 17 15 14 15 16 22 25 26 28 26 24
73 73 64 62 62 57 57 59 57 56 55 53 50 45 41 37 38 32 34 29 30 32 35 34 32 28 27 28 27 26 26 27 24 23 20 19 20 22 27 29 30 32 33
83 80 75 66 73 72 65 69 66 67 65 57 55 47 50 42 43 36 38 37 38 36 33 33 32 32 30 30 32 29 32 28 29 31 29 24 21 20 22 26 29 33 32
91 91 83 81 80 76 74 68 65 67 67 63 62 56 55 51 51 50 46 45 43 44 49 46 42 44 43 36 37 38 37 32 31 34 36 34 28 23 22 24 30 29 28
99 98 89 85 86 84 81 71 67 70 70 69 69 70 66 63 56 50 55 52 51 51 51 53 51 48 48 44 42 41 42 38 35 34 37 38 32 28 24 26 29 29 29
100 100 101 95 90 87 82 80 74 73 72 75 75 79 76 75 72 67 61 62 59 51 54 58 58 55 54 52 47 45 43 43 41 36 36 37 37 32 28 28 29 30 31
107 107 107 107 101 98 91 85 82 82 78 78 84 80 85 86 82 80 79 75 71 67 66 64 64 64 62 61 55 51 46 43 44 43 40 39 39 37 34 31 30 32 29
109 111 115 114 110 103 99 100 97 96 94 89 82 86 90 87 93 94 89 84 82 81 77 70 73 71 68 65 66 58 55 49 48 48 44 43 39 37 39 35 31 32 31
114 113 116 120 119 117 114 109 108 106 106 107 104 95 86 95 95 94 96 99 98 95 91 85 83 80 77 74 72 68 61 56 50 49 48 45 42 40 39 38 35 33 33
113 117 120 121 122 128 129 126 123 120 119 121 117 116 113 104 101 96 99 97 96 97 99 97 93 90 84 84 77 75 69 62 58 53 53 51 49 44 42 40 37 35 35
113 113 115 119 123 125 125 124 123 121 119 118 120 126 126 123 122 113 102 91 87 89 90 89 90 87 85 84 82 78 78 70 66 63 59 57 55 53 48 46 43 38 37
118 118 117 117 119 121 124 127 127 126 125 124 123 123 125 128 129 129 124 116 109 100 96 88 87 88 85 90 92 89 84 83 74 73 69 67 61 57 55 53 46 45 41
122 122 123 122 121 122 123 124 126 128 129 131 130 130 129 128 128 129 129 128 127 126 122 114 104 103 99 100 102 97 92 88 84 76 77 73 71 66 60 61 57 50 49
124 124 125 126 127 127 127 127 126 126 129 132 135 137 137 135 134 133 133 131 129 128 127 126 125 120 112 106 110 107 101 96 90 84 81 81 76 72 70 69 64 60 56
125 124 123 123 124 126 129 130 131 131 132 133 135 137 139 141 141 140 139 139 137 135 131 127 127 125 128 125 125 121 115 106 101 92 88 86 85 81 80 77 74 69 66
121 124 125 126 125 125 125 126 128 130 132 136 138 138 139 139 141 143 144 145 144 142 140 136 133 130 129 126 130 129 123 113 111 106 97 93 91 92 88 86 86 82 78
110 113 115 117 118 119 122 123 125 126 128 130 132 135 138 142 144 144 143 143 144 146 146 144 141 137 136 133 132 129 129 127 124 115 113 104 98 96 96 95 92 89 89
103 105 107 108 109 111 113 115 117 119 120 122 123 125 127 132 135 137 138 140 142 142 144 146 146 145 142 140 138 135 134 130 125 121 114 109 106 102 102 101 100 98 94
91 93 96 98 100 102 105 108 109 110 111 113 114 116 119 120 117 119 122 126 132 136 139 140 141 141 141 141 142 142 141 138 136 131 124 115 112 109 106 105 106 106 103

GFSGL_250_spd_090.txt.gz
Wind_Speed
25 20 19 18 16 14 8 9 10 11 7 7 6 6 8 4 8 10 9 13 12 12 14 17 18 16 14 13 15 13 12 12 14 16 16 14 14 12 14 13 14 15 18
19 21 22 18 14 14 16 16 13 12 14 15 13 10 7 5 4 7 7 9 11 10 10 11 14 16 16 13 11 12 10 8 9 11 13 14 12 12 11 11 16 21 19
33 26 34 27 22 23 21 21 20 20 18 14 15 18 16 15 9 6 6 7 8 8 8 11 10 12 13 13 11 9 9 6 4 8 10 13 8 9 11 12 15 16 15
34 35 41 35 29 31 32 32 28 25 23 19 22 20 15 20 20 13 12 10 8 6 8 10 12 9 8 9 9 9 8 6 3 6 7 8 7 7 6 7 8 6 5
51 46 39 31 31 34 34 35 31 26 27 19 21 26 25 18 17 16 14 14 17 13 10 11 11 13 12 8 6 6 7 4 3 4 10 13 14 10 12 8 9 8 5
61 48 42 35 37 42 38 36 36 33 31 27 25 24 27 26 19 18 17 15 17 18 10 10 15 15 14 13 13 10 7 7 7 7 11 14 16 19 20 18 18 12 12
66 58 53 51 51 53 51 47 45 42 42 36 32 27 27 25 28 24 17 16 13 24 20 12 12 14 18 15 14 14 14 12 10 11 12 14 18 23 24 22 22 21 18
69 64 58 61 62 63 60 58 57 51 50 48 47 39 36 37 33 32 27 24 22 22 23 19 16 14 16 18 18 17 17 16 15 16 16 18 17 22 23 25 28 27 26
77 74 68 67 67 66 67 63 60 58 57 51 48 49 44 40 42 44 45 35 30 29 27 23 24 21 16 19 21 22 25 23 20 21 21 22 22 20 25 27 25 32 29
79 79 77 75 70 70 69 66 62 63 64 62 59 54 50 51 50 47 48 45 43 39 37 30 28 30 26 26 30 30 31 29 28 28 28 27 24 24 24 28 29 35 36
92 85 83 83 78 76 73 75 72 66 67 70 67 66 59 61 61 59 56 58 56 48 47 36 37 37 37 31 33 33 32 33 35 33 32 34 32 26 25 27 32 36 39
89 96 93 85 83 84 78 80 79 78 71 72 71 70 71 66 67 63 63 60 60 53 52 45 46 48 46 40 38 41 40 37 34 36 36 37 35 34 31 29 32 34 36
94 92 92 98 95 90 91 83 80 82 80 79 79 74 75 74 73 69 64 61 65 66 60 59 56 51 50 48 44 45 46 44 42 40 42 42 40 38 35 35 34 35 35
98 96 94 92 93 97 98 95 91 87 90 87 88 86 71 76 77 73 70 68 67 68 71 71 62 62 58 56 55 54 50 46 48 53 48 47 44 43 42 39 38 38 35
102 101 101 99 97 97 101 105 102 102 99 90 92 85 87 75 70 73 78 77 76 75 76 77 76 74 71 66 65 68 61 58 59 59 60 55 55 49 50 47 44 41 39
108 107 105 104 105 103 102 101 108 111 111 107 98 94 94 94 93 80 73 67 71 76 80 82 85 83 83 84 80 77 75 75 71 70 70 70 64 59 54 52 48 44 40
113 113 112 111 110 110 110 109 109 109 117 116 115 112 110 103 97 95 95 91 90 84 81 81 82 88 93 96 92 89 85 83 82 83 80 84 73 65 61 55 54 50 47
116 116 117 117 117 117 116 115 115 116 114 118 123 122 119 117 116 110 103 99 100 95 98 96 95 86 89 88 91 93 93 94 96 94 87 80 73 69 61 58 58 56 54
120 120 119 119 119 121 121 122 121 121 122 123 123 123 125 125 125 123 118 118 112 112 106 100 100 97 106 99 87 92 86 88 87 85 76 73 72 67 64 64 60 59 60
124 122 122 122 121 121 120 121 122 124 126 126 126 127 130 131 132 131 133 130 126 121 119 117 117 114 112 113 100 97 88 89 90 87 82 81 83 81 75 76 74 68 65
127 126 125 126 125 124 124 123 123 123 124 125 127 129 131 133 134 138 137 143 139 135 133 132 131 130 129 128 127 125 124 116 109 105 100 96 99 93 85 85 85 78 70
127 127 128 128 128 128 128 128 128 128 127 128 128 128 129 131 134 137 139 142 147 147 148 147 146 144 138 133 132 135 137 134 131 129 127 117 115 110 108 106 100 97 86
123 126 128 127 127 126 126 127 128 129 131 132 132 133 134 135 135 135 136 138 142 145 146 146 146 144 142 140 139 138 136 135 134 133 132 130 126 120 118 119 111 103 96
109 114 118 121 124 125 125 125 125 124 123 125 129 132 136 138 139 140 141 142 143 144 145 144 142 141 139 140 142 144 143 141 141 140 137 133 130 127 129 126 128 105 104
99 102 103 106 109 111 114 115 117 118 119 120 121 122 124 126 131 136 140 143 145 147 149 150 148 145 142 140 140 141 143 145 146 145 143 141 137 134 130 129 124 125 112
87 90 93 96 97 100 102 103 105 106 107 110 111 113 114 115 117 119 121 124 127 131 135 136 137 138 141 144 146 145 143 142 140 140 142 142 141 139 138 135 132 129 125

GFSGL_250_spd_093.txt.gz
Wind_Speed
28 25 20 19 19 16 9 9 5 6 8 10 10 8 6 6 7 12 8 9 12 13 14 16 16 14 14 14 14 13 12 11 10 9 9 12 10 11 13 18 20 19 18
38 29 22 25 23 15 11 9 11 10 9 8 8 8 9 7 2 3 8 9 8 9 11 11 13 14 13 13 12 10 9 10 10 8 8 9 9 10 14 15 16 15 15
38 35 36 30 26 19 19 18 17 14 15 16 17 12 10 6 8 5 3 2 5 9 7 12 10 9 11 11 11 10 6 5 7 10 8 8 8 9 9 11 10 11 12
39 33 30 32 38 31 28 28 25 24 21 21 22 18 18 13 12 15 11 6 4 4 6 9 8 11 9 9 8 7 7 2 3 10 11 11 7 6 7 10 9 5 3
46 40 39 43 44 41 34 35 33 32 30 25 24 22 21 16 16 16 12 12 3 1 2 4 6 10 8 6 7 7 6 4 3 6 16 15 13 11 11 10 12 9 6
58 53 50 47 41 39 38 39 40 38 35 30 29 25 24 20 18 22 22 18 12 7 2 3 3 1 3 4 5 6 6 7 8 6 8 16 18 19 16 15 16 18 16
59 62 63 58 58 53 50 48 45 44 42 36 33 33 31 29 26 22 25 23 23 17 12 10 15 9 7 4 6 8 10 13 13 12 13 13 15 21 22 24 24 25 24
70 63 68 66 66 65 57 57 59 53 48 47 41 41 40 39 35 33 29 29 28 25 21 15 19 15 16 15 11 7 7 12 14 16 15 17 15 17 20 23 26 28 28
79 75 71 66 70 69 67 62 62 61 58 55 52 47 47 50 49 48 44 40 38 34 33 27 22 26 22 26 25 16 16 8 15 17 17 19 19 16 19 23 25 29 29
81 81 77 78 77 75 73 68 69 65 64 61 60 59 58 56 55 56 58 51 45 43 44 43 44 34 36 34 31 29 20 16 20 21 20 20 19 20 21 20 24 30 32
84 84 83 84 83 80 77 75 72 71 72 71 70 68 67 64 66 62 64 61 56 51 48 45 47 48 45 40 41 41 30 31 29 26 24 27 23 22 22 25 25 26 33
83 84 89 89 86 84 83 79 80 77 74 77 74 72 71 71 72 69 71 70 65 60 57 56 53 52 52 52 50 45 43 39 35 32 29 35 29 28 26 26 27 31 32
92 91 89 91 95 92 92 89 90 89 86 81 77 76 79 75 76 74 75 75 74 72 63 62 61 60 59 59 60 54 48 47 46 40 41 37 34 31 30 30 27 29 33
97 96 96 96 95 95 98 99 96 98 92 92 86 82 74 78 81 79 81 83 81 77 75 70 70 70 66 64 62 64 64 55 55 51 50 52 44 38 37 37 42 40 39
101 102 102 101 101 100 100 99 100 103 104 101 94 92 90 84 81 81 81 83 86 84 81 81 80 78 76 72 68 66 67 63 63 61 65 59 55 50 49 49 51 50 49
107 106 105 105 105 105 105 105 103 102 102 103 108 104 100 97 94 91 87 85 87 82 89 90 77 79 87 81 75 71 72 70 69 72 70 68 64 61 61 64 66 64 64
111 111 111 110 109 109 108 108 107 106 105 105 105 105 105 111 107 105 105 100 95 88 85 89 89 88 87 85 80 79 78 76 75 76 76 78 77 80 80 76 78 74 72
116 115 115 114 114 114 113 112 112 111 110 110 109 108 106 107 107 111 113 113 112 107 103 99 95 94 91 89 84 83 81 83 81 79 79 78 84 82 83 82 79 82 77
122 121 120 119 118 117 117 117 117 117 116 116 115 114 112 112 111 111 111 114 118 119 116 114 113 109 107 101 99 94 94 93 92 92 90 89 86 86 82 86 80 77 80
125 126 125 125 124 124 122 122 121 120 120 120 119 119 118 117 117 116 116 117 118 119 123 126 126 126 119 118 114 113 114 107 106 105 96 98 100 97 91 93 93 87 86
124 124 125 127 127 128 128 127 126 126 124 123 123 122 123 123 122 123 123 123 123 124 124 125 124 127 133 132 130 129 126 120 117 114 113 110 107 105 101 103 105 95 91
119 121 123 126 127 126 127 129 130 131 129 128 127 126 125 125 126 126 127 128 129 130 130 130 130 131 132 132 134 137 137 138 134 129 127 124 119 117 111 110 100 89 92
108 112 117 120 122 124 126 128 129 129 129 130 131 131 130 130 130 129 130 130 131 131 132 133 135 136 137 137 137 137 137 136 134 133 135 134 134 132 129 124 120 119 117
98 99 102 106 111 116 122 125 125 125 126 126 127 128 129 130 131 132 133 133 134 135 135 136 136 136 136 138 139 140 141 142 141 140 138 137 139 137 136 137 137 136 134
89 92 93 95 98 101 105 110 114 117 120 121 122 122 123 124 124 126 129 132 134 136 137 138 139 140 141 141 141 140 139 138 137 137 139 140 141 141 142 143 146 148 148
79 84 87 88 88 89 91 94 99 102 104 106 108 110 113 115 116 117 119 121 123 126 128 131 134 137 139 141 142 141 140 139 139 139 138 137 138 140 141 140 140 139 138

GFSGL_250_spd_096.txt.gz
Wind_Speed
27 23 22 23 19 13 11 9 7 7 7 3 4 6 9 9 8 6 9 11 10 12 14 15 15 15 13 11 11 10 10 10 11 10 9 8 9 9 12 11 11 12 11
31 29 27 24 23 21 15 14 11 11 10 9 8 4 6 5 7 4 2 7 4 6 11 12 13 13 13 11 8 6 6 7 6 7 7 6 9 12 12 10 9 8 8
44 38 36 32 28 25 27 21 18 15 16 14 14 12 11 10 9 9 4 1 4 4 7 7 8 12 13 12 10 7 4 5 6 6 6 5 7 8 7 5 3 7 3
49 47 43 38 32 31 32 30 26 23 22 21 21 19 18 17 16 14 13 10 4 2 2 2 4 5 5 7 8 7 5 2 5 8 7 7 7 6 6 6 5 2 4
51 51 47 44 36 35 36 35 33 31 31 29 28 26 24 23 18 18 17 12 11 9 8 4 5 4 2 1 4 3 5 5 4 7 11 12 11 9 8 9 12 12 10
55 54 54 50 40 42 41 39 41 39 39 38 37 32 29 29 26 21 21 20 18 16 15 12 7 6 4 4 5 8 6 4 5 6 7 9 16 19 20 20 19 19 19
65 60 61 58 54 49 54 47 44 42 39 39 41 36 36 33 33 29 26 22 25 23 20 21 16 12 11 10 7 5 9 5 5 7 7 9 11 12 14 18 23 28 28
74 73 70 67 65 60 57 58 53 50 46 43 41 41 39 39 37 36 36 34 28 31 27 26 26 23 24 19 14 11 14 12 9 9 9 8 11 12 13 16 18 21 23
78 79 75 72 72 71 68 66 62 60 58 57 52 52 52 51 49 46 45 42 41 39 36 36 36 32 35 29 25 23 22 23 16 13 14 17 15 11 14 16 16 22 21
91 87 84 80 78 72 66 69 69 69 69 69 67 65 64 63 59 56 54 52 50 48 47 49 48 44 41 37 35 32 28 25 29 28 22 23 22 14 12 14 15 19 23
78 80 82 84 81 78 75 74 68 70 71 74 70 69 69 67 65 65 62 60 60 57 56 57 55 54 51 51 48 46 42 37 38 37 36 26 27 26 27 22 19 19 20
85 81 81 83 86 87 87 82 80 73 73 69 73 74 73 74 72 72 70 68 68 64 64 63 63 63 59 58 56 51 48 52 49 48 43 43 42 40 37 32 27 26 25
92 91 89 87 86 86 88 91 92 87 88 81 75 74 79 78 78 82 77 75 76 75 73 72 71 71 71 67 66 60 54 50 53 54 52 52 49 46 42 42 43 39 33
100 98 97 96 93 92 89 89 88 92 88 88 87 81 75 74 79 79 78 82 82 80 78 76 73 75 74 72 73 73 68 67 62 60 54 56 59 57 53 53 51 50 46
104 104 103 102 100 99 98 96 94 94 94 95 96 95 94 92 92 85 87 87 81 85 83 82 79 77 79 80 79 78 77 73 73 67 68 63 62 62 62 63 61 59 60
106 107 107 107 106 105 104 103 103 101 100 99 98 100 105 103 99 98 101 99 95 94 89 85 78 87 84 84 87 84 83 82 83 80 76 76 75 70 69 66 66 68 68
112 111 111 110 109 108 109 109 108 107 107 106 105 105 104 104 106 109 110 109 108 106 105 99 96 93 95 99 88 85 88 86 86 86 82 83 81 82 78 74 79 73 71
114 115 115 114 113 113 113 113 112 112 111 112 112 111 110 109 109 110 109 110 109 115 113 112 108 103 101 102 98 94 86 82 83 90 88 82 82 85 85 87 85 81 79
122 120 119 118 118 118 117 117 117 117 117 116 116 115 115 114 115 115 114 114 113 113 113 112 111 112 115 113 108 110 110 105 100 95 93 87 91 87 84 85 91 86 82
124 125 126 125 124 122 122 122 121 120 119 120 120 119 120 119 119 119 118 118 117 117 117 116 116 115 114 114 116 119 121 119 116 111 112 110 104 112 102 98 93 94 88
122 122 123 124 127 129 127 126 127 126 125 124 123 123 123 123 122 122 122 122 122 121 121 121 121 121 120 120 120 120 121 121 121 125 126 128 128 117 113 110 107 105 104
118 119 120 122 124 125 126 128 131 131 130 129 129 130 129 128 127 126 125 124 124 124 124 124 124 123 124 125 125 125 125 126 125 125 124 123 124 129 131 129 124 123 121
108 111 114 116 117 119 121 125 127 129 129 129 130 131 132 134 134 133 133 131 130 131 130 129 128 128 127 126 126 127 128 129 129 129 127 127 127 128 128 130 131 129 129
96 97 99 101 104 108 111 115 120 124 127 128 129 130 130 130 130 130 131 132 133 134 134 134 135 135 134 133 132 131 131 130 129 129 129 128 128 130 130 131 131 131 131
87 90 91 92 93 94 95 98 102 107 112 116 121 125 128 130 131 131 131 132 132 133 133 133 133 134 134 135 135 135 135 135 134 134 132 130 129 129 129 130 132 133 134
77 78 82 86 84 84 85 87 89 90 93 98 103 107 111 115 119 122 125 127 129 130 131 131 132 132 133 134 134 134 134 134 133 132 131 131 132 134 135 135 135 134 132

GFSGL_250_spd_099.txt.gz
Wind_Speed
16 18 18 14 16 17 12 12 8 6 7 7 5 5 8 10 11 9 13 14 13 12 14 15 13 12 11 11 11 11 12 11 9 9 7 3 2 5 5 5 3 6 10
23 23 22 23 20 15 15 15 14 14 13 9 7 6 8 11 7 10 8 8 11 9 10 9 12 13 10 8 8 8 10 13 11 14 11 10 9 6 5 5 5 4 3
30 24 29 28 26 21 19 19 19 19 17 17 14 14 11 11 12 11 11 6 7 8 5 6 7 9 11 10 7 5 6 9 9 7 6 5 7 6 4 2 2 3 6
39 35 35 39 35 31 31 26 22 23 28 26 23 20 21 20 18 15 15 15 13 8 5 2 2 3 6 8 9 8 4 2 6 8 8 6 7 6 6 8 8 8 8
46 47 45 42 41 39 37 37 27 29 28 32 31 28 26 26 23 21 20 17 14 13 12 11 6 3 2 5 8 8 8 6 4 5 6 9 10 11 10 11 14 15 18
61 53 51 52 50 48 47 42 35 33 33 32 32 34 35 35 30 28 24 22 22 22 23 18 14 12 10 8 3 3 4 4 6 6 5 6 6 9 13 19 22 22 21
58 56 56 53 57 56 56 51 49 41 41 38 37 40 41 39 37 33 31 27 24 26 28 26 24 20 18 15 13 12 5 8 12 12 7 12 10 13 11 13 13 17 17
66 65 65 62 62 63 62 57 49 46 48 48 44 44 45 47 44 38 33 31 30 28 29 32 30 31 29 24 21 24 20 14 12 16 13 14 12 14 15 15 15 17 16
78 80 78 77 73 71 70 67 63 58 52 56 58 55 50 51 50 50 45 45 42 38 39 36 33 35 34 35 30 27 32 25 20 17 20 18 23 27 20 18 16 19 21
80 85 81 79 79 77 78 78 75 73 71 64 64 66 63 60 61 58 56 53 53 52 51 50 49 47 44 43 44 43 43 38 33 28 29 28 28 27 28 27 23 17 17
95 92 88 88 85 82 79 81 80 80 80 76 72 75 74 70 69 68 66 67 66 65 64 63 60 57 56 55 51 48 45 48 48 43 39 39 36 35 31 31 32 31 32
96 94 93 93 95 90 91 87 80 77 78 84 72 76 70 70 74 76 72 74 74 73 72 70 68 66 63 63 61 58 56 54 52 54 57 55 52 45 43 40 41 39 40
96 96 94 93 100 100 97 93 93 90 92 92 83 78 76 66 66 74 78 80 82 81 78 76 76 74 72 71 70 68 62 62 62 63 60 61 56 55 60 55 46 48 47
101 101 99 99 98 98 100 103 102 97 93 90 90 90 89 85 86 83 76 73 74 75 79 79 82 81 79 81 80 74 75 73 74 70 69 70 65 60 59 59 62 55 55
109 107 105 103 103 103 102 102 100 99 95 93 91 89 94 95 97 96 92 90 87 83 83 82 83 86 81 81 81 86 83 78 76 74 74 75 75 74 71 66 62 63 58
114 113 112 111 110 108 107 107 106 105 104 101 100 98 97 97 100 99 100 100 99 101 95 99 92 88 86 88 86 85 87 85 83 80 79 77 79 78 80 77 75 73 71
114 113 113 114 114 114 113 113 113 111 110 108 107 106 105 105 104 103 102 101 100 101 100 101 103 103 100 99 98 96 96 95 82 85 83 83 82 84 82 79 79 80 81
117 116 116 116 115 115 115 114 114 115 114 114 113 113 112 112 112 110 110 109 108 107 106 105 109 111 110 110 107 106 104 106 101 97 97 101 97 94 90 90 86 85 80
123 122 122 121 121 120 119 118 118 117 118 115 116 115 116 117 117 117 116 115 115 115 114 113 113 112 111 116 118 118 117 115 114 114 110 110 112 104 106 104 96 94 91
124 126 128 127 126 126 124 124 122 122 121 121 120 120 120 119 120 120 119 120 119 120 121 121 120 120 119 118 118 118 117 117 118 119 120 119 115 114 112 112 109 113 110
120 123 126 127 127 128 130 130 129 128 127 127 126 126 126 125 124 123 123 123 124 124 124 123 123 123 124 124 125 124 124 124 123 124 122 120 119 118 117 116 115 123 120
119 119 122 122 124 126 127 127 127 128 128 129 129 130 131 132 131 130 128 128 127 127 126 127 127 127 127 127 127 128 128 128 127 126 126 125 124 123 122 122 122 122 121
111 115 118 121 122 123 124 124 124 126 127 128 129 128 129 128 129 131 132 134 135 135 134 132 132 132 131 131 130 130 130 130 130 130 129 128 128 127 126 126 125 124 125
98 101 101 106 108 111 115 118 120 122 125 125 125 124 125 126 128 130 131 132 132 132 132 134 137 139 139 138 137 136 135 135 135 134 133 131 130 130 129 128 127 126 125
90 94 95 96 98 98 99 101 104 106 109 112 115 119 122 124 125 126 127 128 130 131 132 133 134 134 134 135 136 137 137 137 137 136 135 135 134 134 134 134 133 132 131
78 80 82 85 87 88 89 90 92 93 95 97 98 101 104 106 109 112 117 121 124 127 129 130 131 131 132 133 134 134 134 134 133 132 131 130 129 128 128 127 128 130 130

GFSGL_250_spd_102.txt.gz
Wind_Speed
19 15 10 9 11 10 9 8 9 7 2 3 6 9 9 11 11 14 14 16 19 17 14 14 14 11 8 7 6 5 5 6 9 8 6 4 5 4 3 6 5 5 8
24 20 16 14 12 20 10 6 8 11 14 12 10 10 10 11 10 11 10 8 11 13 12 10 10 11 10 6 4 5 5 6 7 9 2 3 5 3 1 3 5 5 7
34 28 26 20 25 26 20 17 13 12 15 16 17 14 15 15 14 15 14 9 7 9 5 7 6 7 8 7 3 1 6 5 5 4 4 5 5 7 7 9 10 11 9
37 37 38 30 29 24 25 24 25 24 18 19 22 24 22 21 20 18 16 14 15 9 6 3 3 6 1 3 5 4 4 7 8 10 12 12 10 13 14 14 14 14 14
46 43 43 39 39 36 34 32 31 32 30 26 25 25 27 27 23 21 16 19 17 16 14 14 13 7 4 2 4 7 7 4 1 2 6 8 9 13 15 19 19 19 19
54 54 53 49 47 45 42 42 37 38 35 35 29 27 30 31 29 29 30 29 25 22 21 23 20 20 16 13 8 8 9 6 5 4 5 7 8 8 11 14 16 18 19
58 62 61 54 57 52 48 47 47 46 44 44 39 42 40 39 34 34 37 36 31 26 26 25 22 27 23 21 21 20 14 12 10 11 11 11 8 7 10 14 14 17 14
64 66 68 67 65 60 57 57 53 54 53 51 50 49 46 43 43 43 42 41 40 37 30 29 30 29 30 32 29 28 28 26 24 21 21 17 18 16 17 19 19 22 19
70 69 67 72 71 71 67 62 59 57 57 59 59 55 55 54 51 49 51 52 48 45 45 41 38 36 36 32 33 36 34 31 31 27 29 27 23 23 25 23 23 25 25
76 74 76 70 71 71 69 67 64 66 69 68 68 66 62 64 60 58 56 57 58 56 55 55 55 52 50 48 47 45 44 46 44 41 40 39 41 34 31 32 33 33 27
92 87 84 82 81 75 76 75 76 77 79 81 80 77 70 73 75 72 72 67 65 65 68 64 62 63 63 62 60 60 60 56 54 54 50 49 43 47 38 41 40 39 37
95 94 94 90 88 89 89 83 84 85 86 83 85 85 83 84 82 79 78 80 74 73 73 75 74 71 71 70 70 70 67 66 64 60 59 56 55 51 51 49 51 50 50
103 101 100 99 96 92 93 92 88 87 80 81 86 89 90 91 85 85 77 78 76 75 75 75 70 76 78 76 77 77 75 74 74 70 69 67 63 64 61 58 58 55 55
116 110 108 107 105 104 108 107 106 107 108 104 102 98 98 92 93 85 86 86 83 87 81 78 75 75 74 82 83 85 84 78 80 81 77 75 73 74 71 69 67 66 65
124 122 121 119 117 116 116 116 115 111 109 106 107 102 99 97 101 100 100 91 94 94 91 94 87 78 77 80 80 82 84 81 80 79 80 77 77 77 79 79 76 77 71
125 126 125 123 120 118 116 114 113 116 112 113 108 106 104 102 102 102 102 106 108 107 105 100 95 93 100 99 93 90 88 84 86 92 85 87 86 82 83 80 76 79 79
122 124 125 124 125 123 121 120 119 119 117 116 113 112 111 109 108 107 107 106 105 106 104 101 101 99 103 99 102 102 101 105 105 101 94 92 95 93 95 88 92 87 83
122 122 123 123 123 123 124 123 123 123 121 120 120 120 119 118 117 115 113 112 112 111 110 109 108 107 106 105 106 111 110 106 104 107 109 109 108 108 104 102 98 98 96
126 125 126 125 124 124 123 123 124 123 122 120 122 120 120 120 120 120 120 119 119 119 118 117 117 116 114 114 113 112 111 112 111 112 111 111 111 108 110 113 113 111 110
127 128 130 129 128 129 128 127 127 127 126 124 124 123 125 123 123 123 123 122 121 119 120 120 120 119 119 119 119 120 119 118 118 118 117 117 117 116 117 118 118 121 121
122 125 127 128 128 130 131 132 132 131 132 131 129 128 129 128 128 127 128 128 127 125 124 123 122 122 122 123 123 123 123 123 123 123 124 124 124 124 124 124 123 123 124
121 121 124 125 125 126 127 128 128 129 129 130 130 130 131 132 133 133 132 132 131 131 130 130 128 127 126 126 126 126 126 127 127 127 127 128 128 129 129 128 128 127 127
116 117 118 123 122 122 123 124 124 124 125 125 124 124 127 126 126 127 129 132 132 134 133 134 134 134 133 133 132 132 131 132 132 132 133 133 133 132 132 132 132 131 131
102 102 103 106 113 113 114 117 120 121 122 123 123 122 122 123 123 122 123 124 124 125 127 128 129 130 131 132 133 132 133 133 132 132 131 131 131 132 133 133 134 135 136
97 98 97 95 99 102 99 101 103 104 106 107 109 110 112 114 117 120 121 123 125 126 126 127 127 127 127 127 128 128 128 129 129 129 130 131 132 132 131 131 130 129 129
88 90 88 88 88 90 94 96 96 96 96 97 99 99 100 102 103 103 104 106 108 109 112 114 116 118 120 121 124 124 125 126 126 126 125 126 125 123 119 117 117 117 116

GFSGL_250_spd_105.txt.gz
Wind_Speed
21 13 13 9 11 6 6 3 4 4 1 4 6 5 8 12 12 15 14 13 19 20 17 13 11 10 9 4 2 5 9 6 1 5 6 4 2 3 6 8 11 11 12
20 17 16 15 14 13 10 10 6 7 7 6 6 7 7 9 12 11 14 11 13 16 14 9 10 10 7 4 3 3 4 5 5 0 6 7 6 6 9 10 11 10 10
26 25 23 25 23 16 20 21 19 16 12 11 10 7 13 12 15 15 14 11 12 12 11 7 7 8 8 4 1 4 6 8 8 8 9 10 11 13 16 15 16 16 17
31 33 37 35 34 31 23 27 25 23 20 21 20 17 15 15 13 18 14 11 10 12 11 10 11 6 3 1 3 4 4 3 4 8 11 12 13 15 15 17 19 20 21
45 50 47 41 43 43 38 34 32 29 29 32 24 22 20 20 16 17 16 15 18 14 16 12 14 18 14 9 8 9 10 8 5 6 6 5 4 4 8 11 13 17 19
58 52 55 52 49 50 47 43 41 40 39 40 39 33 28 26 23 27 25 24 25 25 20 17 22 20 21 21 21 17 13 14 13 9 8 10 10 5 7 9 12 15 17
74 68 60 59 53 52 52 51 47 46 45 45 42 42 40 35 36 35 34 33 31 35 31 27 26 23 24 24 27 26 23 24 22 19 16 17 17 18 13 10 14 20 16
66 65 63 60 58 58 59 60 60 53 52 51 49 46 48 50 45 43 41 40 39 38 40 38 34 31 32 30 31 31 30 31 34 33 32 31 26 22 26 27 24 23 21
78 71 68 67 67 66 66 65 67 67 56 59 58 56 53 53 54 54 54 51 47 47 46 44 44 44 42 41 41 37 35 38 38 38 36 34 34 31 34 35 36 33 30
87 87 83 78 77 74 74 72 73 71 72 71 68 67 63 65 64 62 58 61 60 57 57 57 55 56 56 55 53 52 51 51 50 51 53 49 49 46 44 46 47 47 44
87 81 80 78 81 80 76 75 77 79 77 77 78 75 75 70 67 66 66 72 70 68 67 65 67 64 65 66 65 63 64 62 62 61 60 61 61 60 55 51 50 50 50
97 95 92 94 91 91 88 90 90 87 85 83 78 75 73 74 74 76 76 77 77 76 78 74 72 76 75 73 70 70 73 72 72 71 70 71 69 68 67 63 60 57 56
105 99 99 99 96 97 98 95 88 89 89 89 84 83 83 78 80 82 85 84 85 84 83 83 83 85 81 82 79 76 73 73 71 74 74 77 79 76 74 72 72 72 69
110 110 107 108 105 106 103 102 100 99 99 97 98 95 96 92 89 86 84 88 87 80 77 81 86 90 85 87 84 84 83 80 81 76 74 74 78 82 82 80 77 72 69
121 124 120 116 111 114 115 113 108 104 102 106 105 107 104 105 106 100 95 94 89 91 94 98 100 96 95 90 92 91 88 90 88 87 81 81 81 83 82 81 81 80 80
127 127 128 130 128 125 122 122 121 121 117 118 114 111 114 111 112 113 112 110 109 109 110 111 112 108 105 104 98 98 100 97 96 89 91 97 95 99 96 89 90 91 88
127 129 129 127 135 136 131 131 132 131 130 130 130 130 129 129 126 121 123 121 121 122 121 123 121 117 113 109 107 104 102 102 106 107 107 109 113 103 106 109 107 102 99
135 135 136 135 134 131 134 135 136 138 138 137 137 137 136 135 133 133 133 132 131 129 128 126 122 119 117 116 114 113 111 110 109 108 109 110 109 108 106 107 107 107 108
136 135 135 136 137 137 137 137 136 135 134 135 136 136 136 135 135 136 135 133 132 131 129 128 126 126 125 123 121 119 117 117 117 117 116 116 116 114 114 114 114 114 112
134 136 138 138 138 138 138 137 137 136 134 135 134 135 136 134 133 133 133 133 131 130 129 129 128 126 125 124 122 121 119 119 119 120 120 119 119 119 119 119 120 120 119
127 130 134 137 138 139 139 139 139 138 137 135 135 136 138 135 134 133 132 132 131 131 131 130 129 127 128 128 127 125 124 124 123 123 123 124 124 123 122 122 122 123 122
122 123 126 128 128 128 130 131 134 135 136 134 133 134 135 134 133 131 132 133 132 131 132 131 130 129 130 130 130 129 129 127 127 128 128 129 128 128 127 128 128 127 127
116 117 120 119 123 122 122 124 125 125 125 123 124 125 126 127 126 125 126 126 126 126 126 126 126 126 127 128 127 128 128 127 128 129 129 129 129 128 128 128 127 128 127
101 105 108 107 110 111 111 114 115 116 117 117 117 119 120 121 120 119 120 121 121 122 122 123 123 123 122 123 124 126 125 125 125 125 125 125 125 125 125 125 125 125 124
98 98 100 99 94 97 102 101 101 100 101 102 102 103 104 105 107 109 111 112 114 116 117 117 117 117 118 119 120 120 120 121 121 122 122 122 122 122 122 121 120 119 119
87 92 96 97 94 90 94 99 98 96 94 93 94 94 96 97 98 98 98 98 101 102 102 102 103 104 103 105 106 106 106 107 107 107 107 109 109 108 107 105 103 102 102

GFSGL_250_spd_108.txt.gz
Wind_Speed
22 22 17 13 8 4 4 3 3 5 7 6 6 7 7 10 13 15 16 16 17 19 18 19 14 9 5 5 4 5 5 7 9 10 13 14 14 10 11 13 14 17 18
20 23 26 19 18 14 7 8 6 5 10 6 4 3 2 6 9 12 14 11 11 11 14 14 14 15 13 9 8 10 10 10 9 8 10 12 14 15 16 15 17 18 20
18 22 24 25 25 21 17 18 19 19 15 11 6 6 10 8 7 5 5 6 6 9 9 9 11 12 14 14 12 13 11 11 14 17 15 13 12 14 15 17 17 20 22
32 30 29 32 29 26 25 26 27 27 25 19 18 18 15 12 10 12 9 10 10 8 6 7 12 12 13 12 10 12 14 14 13 14 14 12 11 10 12 13 15 14 16
43 41 39 39 34 31 32 33 35 36 36 32 25 24 26 25 20 18 13 12 14 16 16 12 14 16 15 16 16 14 14 15 15 18 17 17 18 14 13 13 13 13 18
46 52 55 49 49 43 43 40 40 47 47 45 38 34 35 36 34 29 25 22 21 22 20 21 19 19 23 23 21 23 25 24 21 21 18 18 19 18 17 15 15 10 18
48 56 56 54 52 52 48 49 51 54 56 52 49 43 37 37 39 40 35 34 34 33 29 28 29 29 27 25 25 26 27 27 28 26 23 27 29 31 29 27 26 20 21
55 58 66 65 65 63 63 64 57 59 60 56 53 52 47 45 45 45 44 43 42 42 42 44 43 37 34 32 33 35 35 33 33 33 32 30 30 34 34 33 34 31 32
69 73 71 73 73 71 76 72 67 64 62 60 58 59 57 53 52 50 50 51 50 49 51 55 55 49 47 45 47 46 41 44 41 39 44 44 43 41 43 43 44 48 46
82 74 80 87 93 89 85 79 73 68 64 63 62 63 63 69 59 58 60 59 60 60 59 60 62 62 60 56 56 55 56 57 56 51 55 48 54 56 55 53 54 56 55
84 82 79 85 89 84 79 79 78 73 77 74 73 77 76 71 73 69 69 69 67 70 73 72 70 68 66 68 70 66 65 64 65 65 64 63 58 57 62 65 64 63 64
97 96 92 83 89 91 93 99 98 98 93 88 87 84 81 78 76 79 78 77 76 79 76 80 74 70 72 75 77 76 72 74 73 73 72 71 74 73 69 68 67 65 66
106 105 107 106 107 106 106 99 97 102 92 88 83 84 86 84 80 81 86 86 86 85 81 82 78 77 78 81 83 85 85 83 82 79 77 80 80 84 83 82 82 78 75
107 108 106 108 107 104 105 104 103 96 96 84 86 92 91 87 86 87 87 90 91 88 83 87 86 86 85 84 86 87 91 90 85 84 87 88 89 91 91 89 90 94 87
113 113 111 113 114 115 112 106 107 103 104 102 101 96 97 99 103 100 97 97 90 94 91 87 88 90 85 92 90 92 96 90 89 90 93 98 94 97 98 98 96 96 97
128 123 124 122 121 121 121 114 110 110 115 116 113 114 111 115 109 105 103 103 103 103 103 104 108 110 109 107 105 106 107 107 106 108 109 111 113 115 113 108 109 103 100
132 135 131 127 125 125 127 129 125 123 123 123 122 120 127 117 119 117 117 116 116 113 121 120 121 119 122 124 118 119 123 125 123 119 123 126 125 123 125 122 118 116 113
125 128 130 136 138 139 137 139 139 139 135 131 132 130 132 132 129 130 130 128 131 130 130 131 131 131 133 132 131 131 131 132 134 136 136 133 130 126 123 125 126 122 119
124 125 129 132 133 136 138 139 143 144 144 140 142 138 136 136 138 136 136 137 136 135 136 139 142 142 141 141 140 139 139 140 139 137 136 136 134 131 128 126 124 122 121
135 138 138 138 138 136 135 139 142 145 146 146 144 145 145 142 142 143 143 143 142 142 143 143 141 140 140 141 140 138 137 137 136 135 135 134 134 132 130 129 128 126 124
133 131 132 136 138 140 142 145 147 148 149 147 148 148 147 146 144 145 144 143 142 142 142 142 141 142 142 141 141 141 139 138 137 137 136 136 137 137 136 135 134 132 131
124 125 126 128 130 128 130 131 133 134 135 138 142 144 146 146 144 144 144 143 143 143 142 142 141 141 141 139 138 138 137 136 136 135 135 134 133 132 132 130 129 127 127
111 115 118 119 120 122 124 123 122 122 122 123 124 127 130 132 132 131 133 133 132 131 130 128 127 126 126 126 126 126 126 126 126 127 128 128 128 127 126 126 125 125 124
96 100 104 106 110 112 112 113 112 114 114 114 116 117 118 117 118 117 117 119 119 120 121 120 120 118 119 120 121 120 120 120 121 121 121 121 121 121 121 121 120 120 120
96 97 97 97 96 96 98 98 98 100 101 99 101 102 103 103 104 103 102 103 106 108 109 109 108 108 109 110 110 110 111 111 111 111 110 110 110 109 109 109 109 108 108
87 88 88 90 92 92 92 91 91 96 96 94 94 94 95 95 96 97 96 96 97 100 102 102 102 102 102 102 102 102 101 102 103 102 102 102 102 102 102 101 101 101 100

GFSGL_250_spd_111.txt.gz
Wind_Speed
15 16 17 12 9 7 3 2 5 7 9 8 4 5 6 10 15 15 15 15 15 16 16 16 17 18 20 17 13 11 11 13 13 14 18 19 21 19 17 19 19 20 22
14 13 17 18 15 13 12 10 6 1 6 8 7 4 4 4 3 3 5 5 7 7 7 8 12 15 19 19 19 20 18 17 19 18 16 18 19 19 19 18 16 17 20
18 18 19 13 15 22 21 18 15 12 9 7 11 10 6 8 7 3 6 5 0 6 6 6 4 8 10 11 13 13 16 19 20 15 16 16 17 18 19 19 17 16 18
22 19 22 18 26 31 30 31 27 20 17 17 15 16 18 19 16 13 10 13 8 9 10 11 10 11 13 16 19 20 21 22 21 21 22 18 14 14 17 18 20 21 17
31 35 35 30 36 40 38 36 33 29 26 25 25 25 27 29 31 29 30 19 14 13 13 14 17 15 13 15 16 21 21 22 23 23 24 24 22 16 16 18 22 24 27
38 41 42 41 45 45 44 43 42 37 34 31 32 33 37 37 36 40 37 35 25 26 26 25 23 20 21 23 23 22 21 25 26 23 24 28 28 24 26 27 28 29 27
41 42 48 50 48 56 56 54 53 48 44 41 38 38 41 41 41 41 44 41 35 34 34 33 35 32 31 32 29 29 30 30 28 26 29 28 31 33 32 33 34 30 31
42 47 50 58 63 66 60 59 61 60 56 53 51 45 46 46 45 45 46 46 45 41 41 45 43 43 44 43 45 46 40 40 38 38 36 37 38 39 35 33 36 40 41
48 49 49 55 54 58 64 65 63 62 62 67 57 55 54 51 52 50 50 54 51 48 48 50 51 51 51 52 54 53 54 57 55 50 48 50 51 48 48 47 44 42 40
27 45 62 60 57 61 61 64 69 72 72 72 71 68 66 67 64 57 57 58 60 59 58 62 61 59 61 60 60 62 64 63 63 62 59 59 56 58 58 54 55 56 54
63 60 51 51 62 65 71 72 76 82 79 80 78 78 78 77 72 62 64 75 76 70 71 71 75 72 70 68 73 67 66 65 68 71 67 64 66 66 66 66 66 64 64
76 68 80 75 79 76 77 81 82 83 82 81 83 83 83 82 79 78 73 78 86 83 79 83 80 78 72 76 73 76 73 74 73 71 73 70 71 69 70 69 74 73 74
90 89 91 92 89 84 83 89 91 90 92 94 94 93 90 87 88 86 91 95 89 85 88 87 82 82 82 80 81 80 79 78 78 77 77 80 80 78 77 78 80 81 79
95 96 100 102 103 102 105 103 105 103 96 92 94 97 100 102 100 96 89 92 85 85 90 88 83 89 94 88 90 90 88 86 88 84 84 83 83 82 83 84 83 87 84
105 107 104 106 113 114 115 114 109 110 111 106 106 107 107 105 105 104 104 102 101 99 103 92 92 95 94 99 97 92 94 96 94 90 89 91 91 91 96 99 98 96 99
110 111 112 114 113 114 118 119 119 117 114 115 115 115 117 117 114 112 113 111 104 101 107 103 103 102 102 104 103 107 102 102 102 101 102 103 102 106 112 117 114 112 115
123 121 122 122 126 127 123 124 122 123 127 127 128 128 122 122 122 121 116 115 114 114 115 117 116 114 113 113 116 120 122 116 115 110 112 115 120 116 123 124 124 125 129
135 137 136 136 132 132 136 137 137 136 133 134 132 134 134 134 136 135 135 132 128 128 125 125 128 131 128 123 124 131 127 125 127 129 128 129 131 131 133 135 135 134 133
130 136 140 140 140 144 147 147 145 145 146 146 143 144 145 143 142 141 139 144 144 138 141 139 140 140 140 140 140 138 137 132 134 134 134 134 134 134 135 135 136 136 135
122 127 130 134 138 139 140 143 147 148 147 149 150 149 145 144 145 144 141 138 138 135 134 135 138 141 143 145 145 143 141 139 139 139 139 140 140 140 140 141 140 138 136
127 130 134 136 138 139 141 143 146 148 148 148 148 151 151 150 148 145 141 141 139 139 143 143 143 143 142 143 143 143 144 145 144 141 141 141 139 138 140 140 139 135 134
127 130 133 137 138 141 143 145 147 148 149 150 150 149 149 149 148 146 144 144 149 143 135 134 134 133 133 133 134 134 135 134 134 134 135 134 134 132 131 130 127 125 124
116 122 127 132 136 138 139 142 144 146 145 144 144 144 143 144 145 143 139 133 129 127 126 123 122 122 122 121 121 120 120 121 122 123 123 123 123 123 123 124 123 122 122
98 102 106 110 114 118 120 122 123 125 126 126 125 125 124 125 125 123 121 119 117 117 117 117 116 116 115 115 116 117 117 117 118 118 117 117 117 116 115 115 114 113 113
95 96 98 99 100 100 100 101 101 101 103 102 102 104 104 104 104 104 103 104 105 106 106 106 105 105 105 106 107 107 105 105 105 106 105 104 105 105 105 105 104 104 103
78 81 84 86 87 88 88 89 89 90 91 93 94 94 93 95 97 98 99 99 101 103 103 102 100 101 101 100 100 101 100 100 100 101 101 101 101 100 99 98 98 98 98

GFSGL_250_spd_114.txt.gz
Wind_Speed
16 13 15 13 8 3 2 7 11 10 9 8 6 7 11 11 11 11 10 10 10 12 12 14 13 13 17 14 17 18 19 22 23 23 24 22 24 25 25 24 24 26 28
20 20 11 13 11 14 8 8 8 7 1 3 6 3 4 2 3 3 4 5 6 7 7 6 7 8 9 11 15 15 16 18 20 21 22 23 21 20 20 21 23 28 29
25 23 21 16 15 17 16 12 15 13 8 4 3 1 2 3 4 5 10 9 15 11 9 7 9 11 12 12 11 12 14 16 17 19 20 20 21 20 18 17 20 24 24
31 29 26 17 18 21 19 17 20 22 21 15 12 16 11 7 10 11 14 18 21 12 11 11 11 12 13 13 13 14 16 16 15 17 18 18 19 21 20 21 23 25 26
30 36 32 23 18 16 23 29 31 31 31 27 26 21 23 24 20 18 20 21 26 25 18 19 18 20 17 15 17 18 17 18 17 21 21 20 19 20 21 23 23 24 24
38 40 41 35 34 32 33 36 43 39 38 36 34 33 28 28 29 27 25 25 28 27 29 28 25 24 26 26 24 24 22 22 24 26 24 21 24 27 25 26 27 30 30
44 39 44 40 40 37 37 46 44 46 48 46 43 42 40 41 35 35 33 32 31 32 32 35 38 33 25 29 35 39 38 40 42 43 38 37 40 39 36 38 36 38 40
50 48 48 49 49 47 47 48 51 55 56 52 53 53 57 53 51 45 43 38 37 37 39 39 41 42 42 40 47 50 46 46 47 48 48 51 52 51 49 44 46 45 43
54 50 50 51 45 43 48 53 58 63 60 62 64 63 64 63 61 60 53 50 46 47 46 52 49 53 49 52 51 51 54 53 58 56 54 56 56 55 53 53 54 52 53
58 54 53 50 46 46 54 53 61 65 65 69 72 70 70 69 69 64 59 62 62 60 60 58 54 52 55 60 56 57 61 63 63 66 61 60 61 60 60 61 62 58 57
55 62 61 54 53 51 58 63 65 69 69 71 71 73 74 73 71 69 69 71 73 72 74 74 68 64 66 65 68 71 71 68 73 73 65 65 66 66 62 66 64 62 64
66 55 31 50 45 54 66 70 69 73 74 75 75 74 72 71 71 74 75 78 79 77 77 78 79 81 80 79 77 83 80 77 83 79 69 68 71 73 74 77 74 75 73
70 71 69 64 54 57 58 71 74 75 78 79 84 81 76 77 79 81 82 84 83 85 86 86 91 90 89 90 91 89 90 90 88 85 84 83 77 79 80 83 89 88 82
78 74 70 70 83 85 65 63 73 82 86 88 88 87 85 84 86 87 89 89 93 94 97 94 95 94 93 93 95 91 89 90 88 88 98 97 92 84 82 85 87 89 90
91 90 90 83 80 92 84 83 86 85 93 93 93 97 101 100 98 97 96 98 100 100 100 93 95 96 90 90 90 94 98 96 99 100 105 100 94 95 94 90 92 95 95
100 100 99 104 106 103 102 102 104 103 102 105 104 104 104 105 107 106 107 110 113 116 114 112 114 111 114 113 111 112 117 118 119 117 111 105 109 106 111 114 113 112 111
105 105 111 115 115 118 122 123 123 120 116 118 121 122 121 120 121 121 120 122 123 122 125 128 126 127 127 128 129 129 129 129 129 125 129 131 127 123 124 127 125 125 127
113 111 114 116 118 122 124 123 123 125 128 131 131 127 128 130 131 131 129 132 130 129 130 131 132 130 130 132 133 133 135 135 133 135 132 132 131 128 130 126 125 128 129
117 114 117 126 123 125 130 131 133 132 131 132 133 137 139 140 141 139 141 141 142 142 143 143 143 143 141 141 141 141 132 135 138 134 133 129 128 125 124 124 125 130 134
130 134 132 133 136 132 134 136 137 139 142 144 147 148 147 147 149 147 148 152 155 154 153 150 151 147 145 149 150 146 145 142 136 134 135 134 134 130 130 135 135 132 126
125 130 134 141 147 150 150 150 152 154 154 153 156 160 159 160 162 163 163 157 154 157 159 156 155 156 149 147 144 142 141 142 140 137 136 134 135 137 133 126 122 119 116
118 122 126 129 133 139 147 150 152 155 159 162 164 164 165 166 165 163 162 162 161 158 155 151 149 148 148 149 150 149 147 145 143 143 141 136 133 127 123 120 119 118 118
109 113 119 124 129 134 137 140 144 147 150 154 155 155 155 155 155 152 150 148 147 146 146 147 147 145 142 140 137 133 131 129 125 121 119 118 116 115 115 115 115 117 118
97 105 110 113 119 125 128 132 133 135 137 138 138 140 141 140 139 138 137 137 136 134 133 130 127 124 123 120 118 116 113 111 109 108 107 107 107 107 108 109 110 108 108
82 87 92 98 104 109 112 114 114 115 115 116 117 118 120 119 119 120 118 118 119 117 116 116 114 112 110 109 109 107 106 105 104 103 103 102 102 101 101 100 102 102 101
68 74 79 82 85 89 92 94 96 96 94 94 94 94 96 97 96 94 96 98 99 101 103 104 104 103 103 101 100 101 101 102 102 102 102 101 101 100 100 99 99 99 98

GFSGL_250_spd_117.txt.gz
Wind_Speed
17 14 12 8 5 7 9 10 11 9 11 9 12 12 10 10 9 8 10 10 11 10 9 9 8 9 13 13 13 15 17 17 18 17 19 21 21 19 19 19 22 25 26
22 17 14 9 10 7 12 11 12 10 7 8 7 9 7 3 5 7 6 6 7 5 7 8 7 8 11 11 12 13 14 16 17 18 19 18 18 19 20 21 22 23 24
24 22 17 16 14 15 15 17 14 13 10 9 9 3 5 4 2 1 4 7 11 11 9 8 8 9 7 10 11 12 14 15 15 17 18 19 18 18 16 17 20 19 20
31 26 25 24 24 23 22 21 21 18 15 15 14 12 10 12 10 9 13 11 11 8 11 12 11 12 12 10 12 14 14 16 16 18 21 22 21 20 20 24 24 26 26
37 32 29 29 33 28 23 23 24 24 21 21 21 21 23 22 22 20 21 18 17 14 12 12 16 19 20 19 20 17 15 16 18 18 23 25 22 23 25 32 32 33 30
41 40 35 33 38 36 30 30 26 27 31 30 29 29 29 29 29 30 28 28 28 26 24 22 21 22 22 24 22 24 21 17 22 24 29 28 35 35 34 34 34 37 39
43 44 42 37 37 43 38 36 34 33 35 38 39 42 40 39 39 40 38 38 37 36 34 34 33 33 27 28 32 35 38 38 37 35 34 34 37 36 39 39 44 42 44
49 50 47 44 43 41 47 44 40 41 43 46 49 46 49 51 49 48 48 49 49 49 47 45 42 41 37 41 42 40 42 46 40 43 40 43 42 47 48 42 43 44 48
54 56 55 51 49 48 50 50 50 50 48 51 51 58 56 57 54 58 59 59 59 57 56 56 56 53 53 53 50 56 58 54 48 51 52 53 55 61 53 55 56 50 55
58 58 58 48 56 56 55 55 53 52 55 55 61 60 59 60 61 62 67 68 64 65 65 64 65 60 56 61 61 65 64 60 62 62 63 62 66 63 67 59 65 63 66
60 58 61 61 62 62 63 60 60 58 58 62 64 63 67 64 65 64 66 69 70 71 68 69 69 64 64 68 71 67 67 70 72 69 71 76 76 71 73 74 71 72 75
69 66 68 66 68 66 62 60 60 59 70 72 70 70 73 74 73 74 73 70 71 76 77 72 72 68 71 73 74 77 77 73 74 76 78 79 80 82 85 81 75 81 76
73 70 69 67 69 66 60 66 68 71 65 68 71 75 79 72 76 79 80 81 79 78 80 83 79 81 81 81 82 80 81 85 84 87 89 86 84 85 86 86 89 80 82
78 76 76 74 69 60 49 55 64 69 73 71 76 78 80 83 83 84 84 89 88 88 88 89 89 88 88 84 89 92 93 93 94 94 95 91 90 91 91 90 93 92 99
79 80 81 83 84 74 69 71 70 78 80 82 82 79 81 83 82 85 89 92 93 95 96 94 94 92 93 95 99 99 103 99 102 97 101 106 108 109 112 114 114 114 115
82 84 83 84 83 89 92 94 86 85 87 91 95 91 91 92 91 91 94 98 102 104 104 103 106 107 110 111 111 109 109 112 112 113 115 116 118 118 121 123 123 126 129
90 89 86 88 93 95 100 100 100 105 111 112 112 110 112 111 110 109 106 101 106 108 106 111 112 112 115 117 115 120 114 117 122 124 127 128 129 133 133 135 136 138 139
95 97 98 101 97 99 103 104 108 110 112 116 115 115 119 122 121 123 119 121 121 123 123 123 126 126 126 128 129 127 131 136 135 134 135 135 138 140 139 135 131 130 136
100 103 109 112 112 112 115 115 114 113 115 119 121 123 123 125 127 128 128 131 134 135 132 134 137 137 138 142 140 137 139 138 140 143 144 144 146 147 143 144 140 139 137
112 110 114 117 121 120 124 125 126 131 133 133 135 136 137 137 140 141 145 147 150 150 149 149 149 150 146 143 145 147 150 150 150 149 154 150 148 149 145 142 143 137 138
117 118 120 123 123 127 129 133 133 136 136 140 141 144 151 149 152 153 153 152 151 152 153 153 152 153 154 156 154 156 152 156 157 157 160 159 159 147 142 152 150 150 150
106 112 118 122 127 132 135 139 142 146 148 148 147 146 150 154 155 155 159 161 159 157 158 160 162 162 164 162 160 160 164 166 167 163 157 154 153 151 146 145 133 126 121
99 104 110 116 121 126 131 135 140 144 148 151 154 157 159 160 162 165 167 166 162 161 163 165 167 167 168 168 168 165 164 159 157 152 147 141 135 130 127 124 118 112 110
87 92 98 104 110 115 122 126 130 134 138 141 145 149 151 152 153 154 156 157 156 157 157 158 157 156 154 152 151 149 145 139 134 131 128 125 123 122 120 117 114 112 108
70 73 78 82 87 92 99 104 108 111 114 117 120 122 124 127 127 128 128 128 129 129 128 128 127 126 127 126 125 124 122 121 120 117 115 113 111 109 108 106 105 103 102
61 65 69 72 77 82 86 90 92 94 96 98 100 103 104 105 105 105 107 107 108 106 104 106 105 106 107 107 106 105 104 104 103 102 100 98 96 94 92 91 91 90 90